<?xml version="1.0" encoding="UTF-8" standalone="no" ?>
<gpx xmlns="http://www.topografix.com/GPX/1/1" xmlns:xsi="http://www.w3.org/2001/XMLSchema-instance" xsi:schemaLocation="http://www.topografix.com/GPX/1/1 http://www.topografix.com/GPX/1/1/gpx.xsd" version="1.1" creator="VisuGPX - https://www.visugpx.com">
  <metadata>
    <name>Mirepoix Gravel bike</name>
  </metadata>
  <trk>
    <name><![CDATA[Mirepoix Gravel bike_1]]></name>
    <trkseg>
      <trkpt lat="43.08864" lon="1.87242">
        <ele>297.8</ele>
        <time>2022-06-19T05:26:51Z</time>
      </trkpt>
      <trkpt lat="43.08866" lon="1.87237">
        <ele>308</ele>
        <time>2022-06-19T05:26:52Z</time>
      </trkpt>
      <trkpt lat="43.08868" lon="1.8722">
        <ele>309</ele>
        <time>2022-06-19T05:26:58Z</time>
      </trkpt>
      <trkpt lat="43.08863" lon="1.87212">
        <ele>308.8</ele>
        <time>2022-06-19T05:27:02Z</time>
      </trkpt>
      <trkpt lat="43.08863" lon="1.87211">
        <ele>309</ele>
        <time>2022-06-19T05:27:04Z</time>
      </trkpt>
      <trkpt lat="43.08867" lon="1.8721">
        <ele>309</ele>
        <time>2022-06-19T05:27:09Z</time>
      </trkpt>
      <trkpt lat="43.08871" lon="1.8721">
        <ele>309</ele>
        <time>2022-06-19T05:27:11Z</time>
      </trkpt>
      <trkpt lat="43.08884" lon="1.8721">
        <ele>309.4</ele>
        <time>2022-06-19T05:27:17Z</time>
      </trkpt>
      <trkpt lat="43.08895" lon="1.87208">
        <ele>310</ele>
        <time>2022-06-19T05:27:23Z</time>
      </trkpt>
      <trkpt lat="43.08902" lon="1.87205">
        <ele>310</ele>
        <time>2022-06-19T05:27:26Z</time>
      </trkpt>
      <trkpt lat="43.08909" lon="1.8721">
        <ele>310.2</ele>
        <time>2022-06-19T05:27:29Z</time>
      </trkpt>
      <trkpt lat="43.08912" lon="1.87211">
        <ele>310.4</ele>
        <time>2022-06-19T05:27:31Z</time>
      </trkpt>
      <trkpt lat="43.08913" lon="1.87214">
        <ele>310.4</ele>
        <time>2022-06-19T05:27:33Z</time>
      </trkpt>
      <trkpt lat="43.08917" lon="1.87229">
        <ele>310.4</ele>
        <time>2022-06-19T05:27:38Z</time>
      </trkpt>
      <trkpt lat="43.08917" lon="1.8726">
        <ele>310.2</ele>
        <time>2022-06-19T05:27:46Z</time>
      </trkpt>
      <trkpt lat="43.08917" lon="1.87283">
        <ele>310.2</ele>
        <time>2022-06-19T05:27:53Z</time>
      </trkpt>
      <trkpt lat="43.08918" lon="1.87308">
        <ele>310.4</ele>
        <time>2022-06-19T05:28:00Z</time>
      </trkpt>
      <trkpt lat="43.0892" lon="1.87341">
        <ele>310.6</ele>
        <time>2022-06-19T05:28:10Z</time>
      </trkpt>
      <trkpt lat="43.08923" lon="1.87348">
        <ele>310.8</ele>
        <time>2022-06-19T05:28:13Z</time>
      </trkpt>
      <trkpt lat="43.08924" lon="1.87349">
        <ele>310.8</ele>
        <time>2022-06-19T05:28:14Z</time>
      </trkpt>
      <trkpt lat="43.08943" lon="1.87348">
        <ele>311</ele>
        <time>2022-06-19T05:28:22Z</time>
      </trkpt>
      <trkpt lat="43.08949" lon="1.87348">
        <ele>311</ele>
        <time>2022-06-19T05:28:25Z</time>
      </trkpt>
      <trkpt lat="43.08958" lon="1.8735">
        <ele>311.2</ele>
        <time>2022-06-19T05:28:29Z</time>
      </trkpt>
      <trkpt lat="43.08965" lon="1.87352">
        <ele>311.2</ele>
        <time>2022-06-19T05:28:35Z</time>
      </trkpt>
      <trkpt lat="43.08981" lon="1.87358">
        <ele>311.2</ele>
        <time>2022-06-19T05:28:43Z</time>
      </trkpt>
      <trkpt lat="43.09001" lon="1.87356">
        <ele>311.4</ele>
        <time>2022-06-19T05:28:50Z</time>
      </trkpt>
      <trkpt lat="43.09014" lon="1.87356">
        <ele>311.2</ele>
        <time>2022-06-19T05:28:58Z</time>
      </trkpt>
      <trkpt lat="43.09027" lon="1.87355">
        <ele>311.4</ele>
        <time>2022-06-19T05:29:03Z</time>
      </trkpt>
      <trkpt lat="43.09052" lon="1.87353">
        <ele>312.2</ele>
        <time>2022-06-19T05:29:13Z</time>
      </trkpt>
      <trkpt lat="43.09054" lon="1.87353">
        <ele>312.6</ele>
        <time>2022-06-19T05:29:14Z</time>
      </trkpt>
      <trkpt lat="43.09057" lon="1.87354">
        <ele>312.6</ele>
        <time>2022-06-19T05:29:15Z</time>
      </trkpt>
      <trkpt lat="43.09064" lon="1.87355">
        <ele>313</ele>
        <time>2022-06-19T05:29:18Z</time>
      </trkpt>
      <trkpt lat="43.09064" lon="1.87355">
        <ele>313.2</ele>
        <time>2022-06-19T05:29:19Z</time>
      </trkpt>
      <trkpt lat="43.09065" lon="1.87355">
        <ele>313.2</ele>
        <time>2022-06-19T05:29:20Z</time>
      </trkpt>
      <trkpt lat="43.09067" lon="1.87351">
        <ele>313.4</ele>
        <time>2022-06-19T05:29:22Z</time>
      </trkpt>
      <trkpt lat="43.09067" lon="1.87347">
        <ele>313.4</ele>
        <time>2022-06-19T05:29:23Z</time>
      </trkpt>
      <trkpt lat="43.09071" lon="1.87325">
        <ele>313.4</ele>
        <time>2022-06-19T05:29:28Z</time>
      </trkpt>
      <trkpt lat="43.09072" lon="1.87321">
        <ele>313.6</ele>
        <time>2022-06-19T05:29:29Z</time>
      </trkpt>
      <trkpt lat="43.09074" lon="1.87308">
        <ele>313.6</ele>
        <time>2022-06-19T05:29:33Z</time>
      </trkpt>
      <trkpt lat="43.09074" lon="1.87302">
        <ele>313.6</ele>
        <time>2022-06-19T05:29:38Z</time>
      </trkpt>
      <trkpt lat="43.09073" lon="1.87302">
        <ele>313.6</ele>
        <time>2022-06-19T05:29:39Z</time>
      </trkpt>
      <trkpt lat="43.09073" lon="1.87307">
        <ele>313.6</ele>
        <time>2022-06-19T05:29:42Z</time>
      </trkpt>
      <trkpt lat="43.09073" lon="1.87308">
        <ele>313.6</ele>
        <time>2022-06-19T05:29:43Z</time>
      </trkpt>
      <trkpt lat="43.09072" lon="1.87325">
        <ele>313.6</ele>
        <time>2022-06-19T05:29:49Z</time>
      </trkpt>
      <trkpt lat="43.09072" lon="1.87352">
        <ele>313.6</ele>
        <time>2022-06-19T05:29:55Z</time>
      </trkpt>
      <trkpt lat="43.0907" lon="1.87382">
        <ele>313.6</ele>
        <time>2022-06-19T05:30:02Z</time>
      </trkpt>
      <trkpt lat="43.09065" lon="1.87444">
        <ele>313.8</ele>
        <time>2022-06-19T05:30:14Z</time>
      </trkpt>
      <trkpt lat="43.09063" lon="1.8749">
        <ele>313.6</ele>
        <time>2022-06-19T05:30:22Z</time>
      </trkpt>
      <trkpt lat="43.09062" lon="1.87532">
        <ele>313</ele>
        <time>2022-06-19T05:30:30Z</time>
      </trkpt>
      <trkpt lat="43.09066" lon="1.87555">
        <ele>313</ele>
        <time>2022-06-19T05:30:34Z</time>
      </trkpt>
      <trkpt lat="43.09065" lon="1.87576">
        <ele>313</ele>
        <time>2022-06-19T05:30:38Z</time>
      </trkpt>
      <trkpt lat="43.09063" lon="1.87597">
        <ele>313</ele>
        <time>2022-06-19T05:30:43Z</time>
      </trkpt>
      <trkpt lat="43.09062" lon="1.87607">
        <ele>313.2</ele>
        <time>2022-06-19T05:30:47Z</time>
      </trkpt>
      <trkpt lat="43.09063" lon="1.87609">
        <ele>313.2</ele>
        <time>2022-06-19T05:30:48Z</time>
      </trkpt>
      <trkpt lat="43.09069" lon="1.87613">
        <ele>313.2</ele>
        <time>2022-06-19T05:30:52Z</time>
      </trkpt>
      <trkpt lat="43.09073" lon="1.87612">
        <ele>313.2</ele>
        <time>2022-06-19T05:30:53Z</time>
      </trkpt>
      <trkpt lat="43.091" lon="1.87614">
        <ele>313.2</ele>
        <time>2022-06-19T05:31:00Z</time>
      </trkpt>
      <trkpt lat="43.09137" lon="1.8762">
        <ele>313.4</ele>
        <time>2022-06-19T05:31:09Z</time>
      </trkpt>
      <trkpt lat="43.0919" lon="1.87625">
        <ele>314</ele>
        <time>2022-06-19T05:31:20Z</time>
      </trkpt>
      <trkpt lat="43.0922" lon="1.87623">
        <ele>314.2</ele>
        <time>2022-06-19T05:31:26Z</time>
      </trkpt>
      <trkpt lat="43.09225" lon="1.87623">
        <ele>314.2</ele>
        <time>2022-06-19T05:31:27Z</time>
      </trkpt>
      <trkpt lat="43.0928" lon="1.87621">
        <ele>314.2</ele>
        <time>2022-06-19T05:31:38Z</time>
      </trkpt>
      <trkpt lat="43.09332" lon="1.87622">
        <ele>314</ele>
        <time>2022-06-19T05:31:48Z</time>
      </trkpt>
      <trkpt lat="43.09373" lon="1.87623">
        <ele>314</ele>
        <time>2022-06-19T05:31:56Z</time>
      </trkpt>
      <trkpt lat="43.09429" lon="1.87623">
        <ele>314.2</ele>
        <time>2022-06-19T05:32:07Z</time>
      </trkpt>
      <trkpt lat="43.09486" lon="1.87624">
        <ele>314.4</ele>
        <time>2022-06-19T05:32:17Z</time>
      </trkpt>
      <trkpt lat="43.09541" lon="1.87625">
        <ele>314.2</ele>
        <time>2022-06-19T05:32:26Z</time>
      </trkpt>
      <trkpt lat="43.09597" lon="1.87625">
        <ele>314.2</ele>
        <time>2022-06-19T05:32:35Z</time>
      </trkpt>
      <trkpt lat="43.09603" lon="1.87625">
        <ele>314.2</ele>
        <time>2022-06-19T05:32:36Z</time>
      </trkpt>
      <trkpt lat="43.09619" lon="1.87629">
        <ele>314.2</ele>
        <time>2022-06-19T05:32:39Z</time>
      </trkpt>
      <trkpt lat="43.09628" lon="1.87625">
        <ele>314</ele>
        <time>2022-06-19T05:32:41Z</time>
      </trkpt>
      <trkpt lat="43.09636" lon="1.87612">
        <ele>313.8</ele>
        <time>2022-06-19T05:32:45Z</time>
      </trkpt>
      <trkpt lat="43.09639" lon="1.87605">
        <ele>313.8</ele>
        <time>2022-06-19T05:32:47Z</time>
      </trkpt>
      <trkpt lat="43.09644" lon="1.87589">
        <ele>313.6</ele>
        <time>2022-06-19T05:32:50Z</time>
      </trkpt>
      <trkpt lat="43.09645" lon="1.87576">
        <ele>313.4</ele>
        <time>2022-06-19T05:32:52Z</time>
      </trkpt>
      <trkpt lat="43.09646" lon="1.87563">
        <ele>313.4</ele>
        <time>2022-06-19T05:32:54Z</time>
      </trkpt>
      <trkpt lat="43.09647" lon="1.87555">
        <ele>313.2</ele>
        <time>2022-06-19T05:32:55Z</time>
      </trkpt>
      <trkpt lat="43.09649" lon="1.87517">
        <ele>312.8</ele>
        <time>2022-06-19T05:33:00Z</time>
      </trkpt>
      <trkpt lat="43.0965" lon="1.87495">
        <ele>312.6</ele>
        <time>2022-06-19T05:33:03Z</time>
      </trkpt>
      <trkpt lat="43.09652" lon="1.87475">
        <ele>312.4</ele>
        <time>2022-06-19T05:33:06Z</time>
      </trkpt>
      <trkpt lat="43.09657" lon="1.87464">
        <ele>312.2</ele>
        <time>2022-06-19T05:33:08Z</time>
      </trkpt>
      <trkpt lat="43.09667" lon="1.87461">
        <ele>312</ele>
        <time>2022-06-19T05:33:10Z</time>
      </trkpt>
      <trkpt lat="43.09672" lon="1.87462">
        <ele>311.8</ele>
        <time>2022-06-19T05:33:11Z</time>
      </trkpt>
      <trkpt lat="43.09677" lon="1.87464">
        <ele>311.8</ele>
        <time>2022-06-19T05:33:12Z</time>
      </trkpt>
      <trkpt lat="43.09702" lon="1.87477">
        <ele>311</ele>
        <time>2022-06-19T05:33:17Z</time>
      </trkpt>
      <trkpt lat="43.09707" lon="1.87479">
        <ele>310.8</ele>
        <time>2022-06-19T05:33:18Z</time>
      </trkpt>
      <trkpt lat="43.0975" lon="1.87498">
        <ele>310.4</ele>
        <time>2022-06-19T05:33:27Z</time>
      </trkpt>
      <trkpt lat="43.09771" lon="1.87507">
        <ele>310.4</ele>
        <time>2022-06-19T05:33:32Z</time>
      </trkpt>
      <trkpt lat="43.09779" lon="1.87508">
        <ele>310.4</ele>
        <time>2022-06-19T05:33:34Z</time>
      </trkpt>
      <trkpt lat="43.09784" lon="1.87508">
        <ele>310.4</ele>
        <time>2022-06-19T05:33:35Z</time>
      </trkpt>
      <trkpt lat="43.09788" lon="1.87506">
        <ele>310.4</ele>
        <time>2022-06-19T05:33:36Z</time>
      </trkpt>
      <trkpt lat="43.09798" lon="1.87498">
        <ele>310.4</ele>
        <time>2022-06-19T05:33:38Z</time>
      </trkpt>
      <trkpt lat="43.09801" lon="1.87494">
        <ele>310.4</ele>
        <time>2022-06-19T05:33:39Z</time>
      </trkpt>
      <trkpt lat="43.09827" lon="1.87449">
        <ele>310.4</ele>
        <time>2022-06-19T05:33:47Z</time>
      </trkpt>
      <trkpt lat="43.09845" lon="1.87415">
        <ele>310</ele>
        <time>2022-06-19T05:33:53Z</time>
      </trkpt>
      <trkpt lat="43.0986" lon="1.87385">
        <ele>309.8</ele>
        <time>2022-06-19T05:33:58Z</time>
      </trkpt>
      <trkpt lat="43.09894" lon="1.87322">
        <ele>309.4</ele>
        <time>2022-06-19T05:34:09Z</time>
      </trkpt>
      <trkpt lat="43.09903" lon="1.87305">
        <ele>309.4</ele>
        <time>2022-06-19T05:34:12Z</time>
      </trkpt>
      <trkpt lat="43.09933" lon="1.8725">
        <ele>309.2</ele>
        <time>2022-06-19T05:34:22Z</time>
      </trkpt>
      <trkpt lat="43.09936" lon="1.87246">
        <ele>309.2</ele>
        <time>2022-06-19T05:34:23Z</time>
      </trkpt>
      <trkpt lat="43.0994" lon="1.87242">
        <ele>309.2</ele>
        <time>2022-06-19T05:34:24Z</time>
      </trkpt>
      <trkpt lat="43.09946" lon="1.87235">
        <ele>309</ele>
        <time>2022-06-19T05:34:26Z</time>
      </trkpt>
      <trkpt lat="43.09954" lon="1.8723">
        <ele>309</ele>
        <time>2022-06-19T05:34:28Z</time>
      </trkpt>
      <trkpt lat="43.09984" lon="1.87217">
        <ele>309.6</ele>
        <time>2022-06-19T05:34:36Z</time>
      </trkpt>
      <trkpt lat="43.10011" lon="1.87202">
        <ele>310.2</ele>
        <time>2022-06-19T05:34:43Z</time>
      </trkpt>
      <trkpt lat="43.10015" lon="1.87199">
        <ele>310.2</ele>
        <time>2022-06-19T05:34:44Z</time>
      </trkpt>
      <trkpt lat="43.10018" lon="1.87196">
        <ele>310.4</ele>
        <time>2022-06-19T05:34:45Z</time>
      </trkpt>
      <trkpt lat="43.10028" lon="1.87177">
        <ele>310.8</ele>
        <time>2022-06-19T05:34:50Z</time>
      </trkpt>
      <trkpt lat="43.10036" lon="1.87152">
        <ele>311.2</ele>
        <time>2022-06-19T05:34:56Z</time>
      </trkpt>
      <trkpt lat="43.10039" lon="1.87142">
        <ele>311.4</ele>
        <time>2022-06-19T05:34:58Z</time>
      </trkpt>
      <trkpt lat="43.10047" lon="1.87114">
        <ele>311.8</ele>
        <time>2022-06-19T05:35:04Z</time>
      </trkpt>
      <trkpt lat="43.10057" lon="1.87078">
        <ele>312.4</ele>
        <time>2022-06-19T05:35:12Z</time>
      </trkpt>
      <trkpt lat="43.1006" lon="1.8706">
        <ele>313</ele>
        <time>2022-06-19T05:35:17Z</time>
      </trkpt>
      <trkpt lat="43.10062" lon="1.87042">
        <ele>313.6</ele>
        <time>2022-06-19T05:35:23Z</time>
      </trkpt>
      <trkpt lat="43.10061" lon="1.87039">
        <ele>313.8</ele>
        <time>2022-06-19T05:35:24Z</time>
      </trkpt>
      <trkpt lat="43.10055" lon="1.87026">
        <ele>314.8</ele>
        <time>2022-06-19T05:35:29Z</time>
      </trkpt>
      <trkpt lat="43.10052" lon="1.8702">
        <ele>315.2</ele>
        <time>2022-06-19T05:35:31Z</time>
      </trkpt>
      <trkpt lat="43.10045" lon="1.87006">
        <ele>316</ele>
        <time>2022-06-19T05:35:36Z</time>
      </trkpt>
      <trkpt lat="43.10041" lon="1.86997">
        <ele>316.4</ele>
        <time>2022-06-19T05:35:39Z</time>
      </trkpt>
      <trkpt lat="43.10042" lon="1.86988">
        <ele>317</ele>
        <time>2022-06-19T05:35:42Z</time>
      </trkpt>
      <trkpt lat="43.10044" lon="1.86983">
        <ele>317.4</ele>
        <time>2022-06-19T05:35:44Z</time>
      </trkpt>
      <trkpt lat="43.1005" lon="1.86977">
        <ele>318.2</ele>
        <time>2022-06-19T05:35:48Z</time>
      </trkpt>
      <trkpt lat="43.10052" lon="1.86977">
        <ele>318.2</ele>
        <time>2022-06-19T05:35:49Z</time>
      </trkpt>
      <trkpt lat="43.10063" lon="1.86969">
        <ele>319.4</ele>
        <time>2022-06-19T05:35:55Z</time>
      </trkpt>
      <trkpt lat="43.10069" lon="1.86966">
        <ele>320</ele>
        <time>2022-06-19T05:35:58Z</time>
      </trkpt>
      <trkpt lat="43.10076" lon="1.86964">
        <ele>320.6</ele>
        <time>2022-06-19T05:36:02Z</time>
      </trkpt>
      <trkpt lat="43.10083" lon="1.86962">
        <ele>321</ele>
        <time>2022-06-19T05:36:05Z</time>
      </trkpt>
      <trkpt lat="43.10092" lon="1.86959">
        <ele>321.8</ele>
        <time>2022-06-19T05:36:09Z</time>
      </trkpt>
      <trkpt lat="43.101" lon="1.86961">
        <ele>322.4</ele>
        <time>2022-06-19T05:36:13Z</time>
      </trkpt>
      <trkpt lat="43.10106" lon="1.86964">
        <ele>323</ele>
        <time>2022-06-19T05:36:16Z</time>
      </trkpt>
      <trkpt lat="43.10117" lon="1.8697">
        <ele>324</ele>
        <time>2022-06-19T05:36:22Z</time>
      </trkpt>
      <trkpt lat="43.10121" lon="1.86971">
        <ele>324.6</ele>
        <time>2022-06-19T05:36:24Z</time>
      </trkpt>
      <trkpt lat="43.10126" lon="1.86971">
        <ele>325.4</ele>
        <time>2022-06-19T05:36:27Z</time>
      </trkpt>
      <trkpt lat="43.10132" lon="1.86973">
        <ele>326</ele>
        <time>2022-06-19T05:36:31Z</time>
      </trkpt>
      <trkpt lat="43.10135" lon="1.86972">
        <ele>326.4</ele>
        <time>2022-06-19T05:36:33Z</time>
      </trkpt>
      <trkpt lat="43.10141" lon="1.86969">
        <ele>327.8</ele>
        <time>2022-06-19T05:36:37Z</time>
      </trkpt>
      <trkpt lat="43.10142" lon="1.86968">
        <ele>327.8</ele>
        <time>2022-06-19T05:36:38Z</time>
      </trkpt>
      <trkpt lat="43.10151" lon="1.86962">
        <ele>328.8</ele>
        <time>2022-06-19T05:36:43Z</time>
      </trkpt>
      <trkpt lat="43.10161" lon="1.86954">
        <ele>329.6</ele>
        <time>2022-06-19T05:36:48Z</time>
      </trkpt>
      <trkpt lat="43.10164" lon="1.86952">
        <ele>330</ele>
        <time>2022-06-19T05:36:50Z</time>
      </trkpt>
      <trkpt lat="43.10168" lon="1.86948">
        <ele>330.8</ele>
        <time>2022-06-19T05:36:53Z</time>
      </trkpt>
      <trkpt lat="43.10171" lon="1.86945">
        <ele>331.2</ele>
        <time>2022-06-19T05:36:55Z</time>
      </trkpt>
      <trkpt lat="43.10173" lon="1.86944">
        <ele>331.4</ele>
        <time>2022-06-19T05:36:56Z</time>
      </trkpt>
      <trkpt lat="43.10185" lon="1.86934">
        <ele>332.4</ele>
        <time>2022-06-19T05:37:01Z</time>
      </trkpt>
      <trkpt lat="43.10193" lon="1.86925">
        <ele>333.4</ele>
        <time>2022-06-19T05:37:06Z</time>
      </trkpt>
      <trkpt lat="43.10196" lon="1.86922">
        <ele>333.8</ele>
        <time>2022-06-19T05:37:08Z</time>
      </trkpt>
      <trkpt lat="43.10202" lon="1.86919">
        <ele>334.4</ele>
        <time>2022-06-19T05:37:11Z</time>
      </trkpt>
      <trkpt lat="43.10204" lon="1.86918">
        <ele>334.8</ele>
        <time>2022-06-19T05:37:12Z</time>
      </trkpt>
      <trkpt lat="43.10206" lon="1.86916">
        <ele>335.2</ele>
        <time>2022-06-19T05:37:15Z</time>
      </trkpt>
      <trkpt lat="43.1021" lon="1.86914">
        <ele>335.6</ele>
        <time>2022-06-19T05:37:17Z</time>
      </trkpt>
      <trkpt lat="43.10216" lon="1.8691">
        <ele>336.6</ele>
        <time>2022-06-19T05:37:22Z</time>
      </trkpt>
      <trkpt lat="43.10217" lon="1.86909">
        <ele>336.8</ele>
        <time>2022-06-19T05:37:23Z</time>
      </trkpt>
      <trkpt lat="43.10224" lon="1.86905">
        <ele>338</ele>
        <time>2022-06-19T05:37:28Z</time>
      </trkpt>
      <trkpt lat="43.10228" lon="1.86903">
        <ele>338.4</ele>
        <time>2022-06-19T05:37:31Z</time>
      </trkpt>
      <trkpt lat="43.10232" lon="1.86901">
        <ele>339</ele>
        <time>2022-06-19T05:37:33Z</time>
      </trkpt>
      <trkpt lat="43.10242" lon="1.86896">
        <ele>340</ele>
        <time>2022-06-19T05:37:39Z</time>
      </trkpt>
      <trkpt lat="43.10244" lon="1.86895">
        <ele>340.2</ele>
        <time>2022-06-19T05:37:40Z</time>
      </trkpt>
      <trkpt lat="43.10251" lon="1.86894">
        <ele>341</ele>
        <time>2022-06-19T05:37:44Z</time>
      </trkpt>
      <trkpt lat="43.10254" lon="1.86893">
        <ele>341.4</ele>
        <time>2022-06-19T05:37:46Z</time>
      </trkpt>
      <trkpt lat="43.10263" lon="1.8689">
        <ele>342.4</ele>
        <time>2022-06-19T05:37:51Z</time>
      </trkpt>
      <trkpt lat="43.10264" lon="1.86889">
        <ele>342.6</ele>
        <time>2022-06-19T05:37:52Z</time>
      </trkpt>
      <trkpt lat="43.10268" lon="1.86886">
        <ele>342.8</ele>
        <time>2022-06-19T05:37:54Z</time>
      </trkpt>
      <trkpt lat="43.1027" lon="1.86885">
        <ele>343</ele>
        <time>2022-06-19T05:37:56Z</time>
      </trkpt>
      <trkpt lat="43.10271" lon="1.86884">
        <ele>343.2</ele>
        <time>2022-06-19T05:37:58Z</time>
      </trkpt>
      <trkpt lat="43.10271" lon="1.86882">
        <ele>343.4</ele>
        <time>2022-06-19T05:37:59Z</time>
      </trkpt>
      <trkpt lat="43.10272" lon="1.86879">
        <ele>343.6</ele>
        <time>2022-06-19T05:38:01Z</time>
      </trkpt>
      <trkpt lat="43.10272" lon="1.86879">
        <ele>343.8</ele>
        <time>2022-06-19T05:38:03Z</time>
      </trkpt>
      <trkpt lat="43.10272" lon="1.86879">
        <ele>343.8</ele>
        <time>2022-06-19T05:38:04Z</time>
      </trkpt>
      <trkpt lat="43.10275" lon="1.86829">
        <ele>351.2</ele>
        <time>2022-06-19T05:45:50Z</time>
      </trkpt>
      <trkpt lat="43.10275" lon="1.86836">
        <ele>351.2</ele>
        <time>2022-06-19T05:45:52Z</time>
      </trkpt>
      <trkpt lat="43.10275" lon="1.86848">
        <ele>350.6</ele>
        <time>2022-06-19T05:45:58Z</time>
      </trkpt>
      <trkpt lat="43.10274" lon="1.86857">
        <ele>350.2</ele>
        <time>2022-06-19T05:46:02Z</time>
      </trkpt>
      <trkpt lat="43.10275" lon="1.86868">
        <ele>349.8</ele>
        <time>2022-06-19T05:46:06Z</time>
      </trkpt>
      <trkpt lat="43.10276" lon="1.86873">
        <ele>349.6</ele>
        <time>2022-06-19T05:46:08Z</time>
      </trkpt>
      <trkpt lat="43.10281" lon="1.86874">
        <ele>349.2</ele>
        <time>2022-06-19T05:46:11Z</time>
      </trkpt>
      <trkpt lat="43.10293" lon="1.8687">
        <ele>348.6</ele>
        <time>2022-06-19T05:46:18Z</time>
      </trkpt>
      <trkpt lat="43.10308" lon="1.86859">
        <ele>348.8</ele>
        <time>2022-06-19T05:46:26Z</time>
      </trkpt>
      <trkpt lat="43.10324" lon="1.86845">
        <ele>349</ele>
        <time>2022-06-19T05:46:32Z</time>
      </trkpt>
      <trkpt lat="43.10344" lon="1.86825">
        <ele>349.2</ele>
        <time>2022-06-19T05:46:38Z</time>
      </trkpt>
      <trkpt lat="43.1037" lon="1.86797">
        <ele>349.2</ele>
        <time>2022-06-19T05:46:44Z</time>
      </trkpt>
      <trkpt lat="43.10406" lon="1.8676">
        <ele>348.8</ele>
        <time>2022-06-19T05:46:51Z</time>
      </trkpt>
      <trkpt lat="43.10418" lon="1.86749">
        <ele>348.6</ele>
        <time>2022-06-19T05:46:53Z</time>
      </trkpt>
      <trkpt lat="43.10433" lon="1.8674">
        <ele>348.4</ele>
        <time>2022-06-19T05:46:55Z</time>
      </trkpt>
      <trkpt lat="43.10441" lon="1.86737">
        <ele>348.4</ele>
        <time>2022-06-19T05:46:56Z</time>
      </trkpt>
      <trkpt lat="43.10456" lon="1.86734">
        <ele>348.2</ele>
        <time>2022-06-19T05:46:58Z</time>
      </trkpt>
      <trkpt lat="43.10467" lon="1.86733">
        <ele>348</ele>
        <time>2022-06-19T05:46:59Z</time>
      </trkpt>
      <trkpt lat="43.10477" lon="1.86735">
        <ele>348</ele>
        <time>2022-06-19T05:47:00Z</time>
      </trkpt>
      <trkpt lat="43.10503" lon="1.86745">
        <ele>347.2</ele>
        <time>2022-06-19T05:47:03Z</time>
      </trkpt>
      <trkpt lat="43.10529" lon="1.86749">
        <ele>346</ele>
        <time>2022-06-19T05:47:06Z</time>
      </trkpt>
      <trkpt lat="43.10535" lon="1.86748">
        <ele>345.8</ele>
        <time>2022-06-19T05:47:07Z</time>
      </trkpt>
      <trkpt lat="43.10563" lon="1.86743">
        <ele>345</ele>
        <time>2022-06-19T05:47:11Z</time>
      </trkpt>
      <trkpt lat="43.10583" lon="1.86738">
        <ele>344.2</ele>
        <time>2022-06-19T05:47:15Z</time>
      </trkpt>
      <trkpt lat="43.1059" lon="1.86736">
        <ele>343.8</ele>
        <time>2022-06-19T05:47:17Z</time>
      </trkpt>
      <trkpt lat="43.10604" lon="1.86733">
        <ele>343.6</ele>
        <time>2022-06-19T05:47:21Z</time>
      </trkpt>
      <trkpt lat="43.10623" lon="1.86727">
        <ele>343.8</ele>
        <time>2022-06-19T05:47:28Z</time>
      </trkpt>
      <trkpt lat="43.10642" lon="1.86723">
        <ele>344.2</ele>
        <time>2022-06-19T05:47:35Z</time>
      </trkpt>
      <trkpt lat="43.10662" lon="1.86716">
        <ele>345</ele>
        <time>2022-06-19T05:47:43Z</time>
      </trkpt>
      <trkpt lat="43.10667" lon="1.86713">
        <ele>345.2</ele>
        <time>2022-06-19T05:47:45Z</time>
      </trkpt>
      <trkpt lat="43.10681" lon="1.86701">
        <ele>345.8</ele>
        <time>2022-06-19T05:47:50Z</time>
      </trkpt>
      <trkpt lat="43.1069" lon="1.86689">
        <ele>346.2</ele>
        <time>2022-06-19T05:47:54Z</time>
      </trkpt>
      <trkpt lat="43.10703" lon="1.86669">
        <ele>346.8</ele>
        <time>2022-06-19T05:47:59Z</time>
      </trkpt>
      <trkpt lat="43.10713" lon="1.86655">
        <ele>347.2</ele>
        <time>2022-06-19T05:48:02Z</time>
      </trkpt>
      <trkpt lat="43.10728" lon="1.86634">
        <ele>347.8</ele>
        <time>2022-06-19T05:48:07Z</time>
      </trkpt>
      <trkpt lat="43.10741" lon="1.86621">
        <ele>348</ele>
        <time>2022-06-19T05:48:10Z</time>
      </trkpt>
      <trkpt lat="43.10751" lon="1.86617">
        <ele>348</ele>
        <time>2022-06-19T05:48:12Z</time>
      </trkpt>
      <trkpt lat="43.10784" lon="1.86611">
        <ele>348</ele>
        <time>2022-06-19T05:48:17Z</time>
      </trkpt>
      <trkpt lat="43.108" lon="1.86602">
        <ele>348</ele>
        <time>2022-06-19T05:48:19Z</time>
      </trkpt>
      <trkpt lat="43.10805" lon="1.86596">
        <ele>348</ele>
        <time>2022-06-19T05:48:20Z</time>
      </trkpt>
      <trkpt lat="43.10809" lon="1.86588">
        <ele>348</ele>
        <time>2022-06-19T05:48:21Z</time>
      </trkpt>
      <trkpt lat="43.10815" lon="1.86572">
        <ele>348</ele>
        <time>2022-06-19T05:48:23Z</time>
      </trkpt>
      <trkpt lat="43.10817" lon="1.86563">
        <ele>348</ele>
        <time>2022-06-19T05:48:24Z</time>
      </trkpt>
      <trkpt lat="43.10821" lon="1.86503">
        <ele>347.6</ele>
        <time>2022-06-19T05:48:30Z</time>
      </trkpt>
      <trkpt lat="43.10824" lon="1.86466">
        <ele>347.2</ele>
        <time>2022-06-19T05:48:34Z</time>
      </trkpt>
      <trkpt lat="43.10826" lon="1.8645">
        <ele>347</ele>
        <time>2022-06-19T05:48:36Z</time>
      </trkpt>
      <trkpt lat="43.10832" lon="1.86397">
        <ele>346.6</ele>
        <time>2022-06-19T05:48:42Z</time>
      </trkpt>
      <trkpt lat="43.10835" lon="1.86389">
        <ele>346.6</ele>
        <time>2022-06-19T05:48:43Z</time>
      </trkpt>
      <trkpt lat="43.10842" lon="1.86376">
        <ele>346.4</ele>
        <time>2022-06-19T05:48:45Z</time>
      </trkpt>
      <trkpt lat="43.10847" lon="1.8637">
        <ele>346.2</ele>
        <time>2022-06-19T05:48:46Z</time>
      </trkpt>
      <trkpt lat="43.10853" lon="1.86363">
        <ele>346.2</ele>
        <time>2022-06-19T05:48:47Z</time>
      </trkpt>
      <trkpt lat="43.10865" lon="1.86357">
        <ele>345.8</ele>
        <time>2022-06-19T05:48:49Z</time>
      </trkpt>
      <trkpt lat="43.10882" lon="1.86356">
        <ele>345.8</ele>
        <time>2022-06-19T05:48:51Z</time>
      </trkpt>
      <trkpt lat="43.10889" lon="1.8636">
        <ele>345.6</ele>
        <time>2022-06-19T05:48:52Z</time>
      </trkpt>
      <trkpt lat="43.10905" lon="1.86365">
        <ele>345.4</ele>
        <time>2022-06-19T05:48:54Z</time>
      </trkpt>
      <trkpt lat="43.10939" lon="1.86371">
        <ele>344.2</ele>
        <time>2022-06-19T05:48:58Z</time>
      </trkpt>
      <trkpt lat="43.10957" lon="1.86366">
        <ele>343.8</ele>
        <time>2022-06-19T05:49:00Z</time>
      </trkpt>
      <trkpt lat="43.10965" lon="1.86363">
        <ele>343.8</ele>
        <time>2022-06-19T05:49:01Z</time>
      </trkpt>
      <trkpt lat="43.10989" lon="1.86354">
        <ele>343.2</ele>
        <time>2022-06-19T05:49:04Z</time>
      </trkpt>
      <trkpt lat="43.10998" lon="1.86352">
        <ele>342.8</ele>
        <time>2022-06-19T05:49:05Z</time>
      </trkpt>
      <trkpt lat="43.11007" lon="1.86352">
        <ele>342.6</ele>
        <time>2022-06-19T05:49:06Z</time>
      </trkpt>
      <trkpt lat="43.11022" lon="1.86353">
        <ele>342</ele>
        <time>2022-06-19T05:49:08Z</time>
      </trkpt>
      <trkpt lat="43.11061" lon="1.86356">
        <ele>341</ele>
        <time>2022-06-19T05:49:12Z</time>
      </trkpt>
      <trkpt lat="43.11107" lon="1.8636">
        <ele>339.8</ele>
        <time>2022-06-19T05:49:17Z</time>
      </trkpt>
      <trkpt lat="43.11116" lon="1.8636">
        <ele>339.6</ele>
        <time>2022-06-19T05:49:18Z</time>
      </trkpt>
      <trkpt lat="43.11145" lon="1.86361">
        <ele>338.8</ele>
        <time>2022-06-19T05:49:21Z</time>
      </trkpt>
      <trkpt lat="43.11173" lon="1.8636">
        <ele>337.6</ele>
        <time>2022-06-19T05:49:24Z</time>
      </trkpt>
      <trkpt lat="43.11192" lon="1.86359">
        <ele>337</ele>
        <time>2022-06-19T05:49:26Z</time>
      </trkpt>
      <trkpt lat="43.11199" lon="1.86359">
        <ele>336.6</ele>
        <time>2022-06-19T05:49:27Z</time>
      </trkpt>
      <trkpt lat="43.11207" lon="1.86361">
        <ele>336</ele>
        <time>2022-06-19T05:49:28Z</time>
      </trkpt>
      <trkpt lat="43.11222" lon="1.86367">
        <ele>335.4</ele>
        <time>2022-06-19T05:49:30Z</time>
      </trkpt>
      <trkpt lat="43.11229" lon="1.8637">
        <ele>335</ele>
        <time>2022-06-19T05:49:31Z</time>
      </trkpt>
      <trkpt lat="43.11236" lon="1.86373">
        <ele>334.8</ele>
        <time>2022-06-19T05:49:32Z</time>
      </trkpt>
      <trkpt lat="43.11243" lon="1.86375">
        <ele>334.2</ele>
        <time>2022-06-19T05:49:33Z</time>
      </trkpt>
      <trkpt lat="43.1125" lon="1.86375">
        <ele>334</ele>
        <time>2022-06-19T05:49:34Z</time>
      </trkpt>
      <trkpt lat="43.11257" lon="1.86374">
        <ele>333.4</ele>
        <time>2022-06-19T05:49:35Z</time>
      </trkpt>
      <trkpt lat="43.11264" lon="1.86373">
        <ele>333.2</ele>
        <time>2022-06-19T05:49:36Z</time>
      </trkpt>
      <trkpt lat="43.11287" lon="1.86363">
        <ele>332.2</ele>
        <time>2022-06-19T05:49:40Z</time>
      </trkpt>
      <trkpt lat="43.11313" lon="1.86347">
        <ele>331</ele>
        <time>2022-06-19T05:49:45Z</time>
      </trkpt>
      <trkpt lat="43.11346" lon="1.86329">
        <ele>329.8</ele>
        <time>2022-06-19T05:49:51Z</time>
      </trkpt>
      <trkpt lat="43.11362" lon="1.8632">
        <ele>329.4</ele>
        <time>2022-06-19T05:49:54Z</time>
      </trkpt>
      <trkpt lat="43.11384" lon="1.86311">
        <ele>329.2</ele>
        <time>2022-06-19T05:49:59Z</time>
      </trkpt>
      <trkpt lat="43.11391" lon="1.8631">
        <ele>329</ele>
        <time>2022-06-19T05:50:01Z</time>
      </trkpt>
      <trkpt lat="43.114" lon="1.86309">
        <ele>329</ele>
        <time>2022-06-19T05:50:03Z</time>
      </trkpt>
      <trkpt lat="43.11416" lon="1.86312">
        <ele>329</ele>
        <time>2022-06-19T05:50:08Z</time>
      </trkpt>
      <trkpt lat="43.11429" lon="1.86319">
        <ele>329</ele>
        <time>2022-06-19T05:50:13Z</time>
      </trkpt>
      <trkpt lat="43.11443" lon="1.86332">
        <ele>329.6</ele>
        <time>2022-06-19T05:50:20Z</time>
      </trkpt>
      <trkpt lat="43.11452" lon="1.8634">
        <ele>330.2</ele>
        <time>2022-06-19T05:50:25Z</time>
      </trkpt>
      <trkpt lat="43.11457" lon="1.86346">
        <ele>330.6</ele>
        <time>2022-06-19T05:50:28Z</time>
      </trkpt>
      <trkpt lat="43.11462" lon="1.86352">
        <ele>331.2</ele>
        <time>2022-06-19T05:50:31Z</time>
      </trkpt>
      <trkpt lat="43.11471" lon="1.86361">
        <ele>332.4</ele>
        <time>2022-06-19T05:50:36Z</time>
      </trkpt>
      <trkpt lat="43.11474" lon="1.86365">
        <ele>332.6</ele>
        <time>2022-06-19T05:50:38Z</time>
      </trkpt>
      <trkpt lat="43.11483" lon="1.86374">
        <ele>333.6</ele>
        <time>2022-06-19T05:50:43Z</time>
      </trkpt>
      <trkpt lat="43.1149" lon="1.8638">
        <ele>333.8</ele>
        <time>2022-06-19T05:50:46Z</time>
      </trkpt>
      <trkpt lat="43.11504" lon="1.86394">
        <ele>334.6</ele>
        <time>2022-06-19T05:50:52Z</time>
      </trkpt>
      <trkpt lat="43.11513" lon="1.86403">
        <ele>335</ele>
        <time>2022-06-19T05:50:55Z</time>
      </trkpt>
      <trkpt lat="43.11535" lon="1.86421">
        <ele>335.6</ele>
        <time>2022-06-19T05:51:02Z</time>
      </trkpt>
      <trkpt lat="43.11539" lon="1.86424">
        <ele>335.8</ele>
        <time>2022-06-19T05:51:03Z</time>
      </trkpt>
      <trkpt lat="43.11573" lon="1.86456">
        <ele>336.2</ele>
        <time>2022-06-19T05:51:12Z</time>
      </trkpt>
      <trkpt lat="43.11603" lon="1.86486">
        <ele>336.8</ele>
        <time>2022-06-19T05:51:21Z</time>
      </trkpt>
      <trkpt lat="43.11625" lon="1.86504">
        <ele>337.6</ele>
        <time>2022-06-19T05:51:28Z</time>
      </trkpt>
      <trkpt lat="43.11631" lon="1.8651">
        <ele>338</ele>
        <time>2022-06-19T05:51:30Z</time>
      </trkpt>
      <trkpt lat="43.11662" lon="1.86539">
        <ele>338.8</ele>
        <time>2022-06-19T05:51:40Z</time>
      </trkpt>
      <trkpt lat="43.11667" lon="1.86545">
        <ele>339</ele>
        <time>2022-06-19T05:51:42Z</time>
      </trkpt>
      <trkpt lat="43.11691" lon="1.86571">
        <ele>339.8</ele>
        <time>2022-06-19T05:51:50Z</time>
      </trkpt>
      <trkpt lat="43.11702" lon="1.86582">
        <ele>340.2</ele>
        <time>2022-06-19T05:51:53Z</time>
      </trkpt>
      <trkpt lat="43.11713" lon="1.86595">
        <ele>340.2</ele>
        <time>2022-06-19T05:51:56Z</time>
      </trkpt>
      <trkpt lat="43.11739" lon="1.86631">
        <ele>340.4</ele>
        <time>2022-06-19T05:52:02Z</time>
      </trkpt>
      <trkpt lat="43.1177" lon="1.86682">
        <ele>339.6</ele>
        <time>2022-06-19T05:52:09Z</time>
      </trkpt>
      <trkpt lat="43.11791" lon="1.86717">
        <ele>339</ele>
        <time>2022-06-19T05:52:14Z</time>
      </trkpt>
      <trkpt lat="43.11804" lon="1.86737">
        <ele>338.8</ele>
        <time>2022-06-19T05:52:17Z</time>
      </trkpt>
      <trkpt lat="43.11826" lon="1.86773">
        <ele>338.2</ele>
        <time>2022-06-19T05:52:23Z</time>
      </trkpt>
      <trkpt lat="43.11844" lon="1.86805">
        <ele>338</ele>
        <time>2022-06-19T05:52:29Z</time>
      </trkpt>
      <trkpt lat="43.11847" lon="1.86809">
        <ele>338</ele>
        <time>2022-06-19T05:52:30Z</time>
      </trkpt>
      <trkpt lat="43.1186" lon="1.86831">
        <ele>338.4</ele>
        <time>2022-06-19T05:52:35Z</time>
      </trkpt>
      <trkpt lat="43.11874" lon="1.86857">
        <ele>339</ele>
        <time>2022-06-19T05:52:41Z</time>
      </trkpt>
      <trkpt lat="43.11893" lon="1.86888">
        <ele>340</ele>
        <time>2022-06-19T05:52:49Z</time>
      </trkpt>
      <trkpt lat="43.11895" lon="1.86891">
        <ele>340</ele>
        <time>2022-06-19T05:52:50Z</time>
      </trkpt>
      <trkpt lat="43.11919" lon="1.86928">
        <ele>341.4</ele>
        <time>2022-06-19T05:52:59Z</time>
      </trkpt>
      <trkpt lat="43.11934" lon="1.86965">
        <ele>342</ele>
        <time>2022-06-19T05:53:07Z</time>
      </trkpt>
      <trkpt lat="43.11946" lon="1.87001">
        <ele>342.4</ele>
        <time>2022-06-19T05:53:14Z</time>
      </trkpt>
      <trkpt lat="43.11949" lon="1.87012">
        <ele>342.4</ele>
        <time>2022-06-19T05:53:16Z</time>
      </trkpt>
      <trkpt lat="43.11968" lon="1.8706">
        <ele>343</ele>
        <time>2022-06-19T05:53:26Z</time>
      </trkpt>
      <trkpt lat="43.11975" lon="1.87074">
        <ele>343.4</ele>
        <time>2022-06-19T05:53:29Z</time>
      </trkpt>
      <trkpt lat="43.11986" lon="1.87091">
        <ele>343.8</ele>
        <time>2022-06-19T05:53:33Z</time>
      </trkpt>
      <trkpt lat="43.12" lon="1.87121">
        <ele>344.2</ele>
        <time>2022-06-19T05:53:40Z</time>
      </trkpt>
      <trkpt lat="43.12005" lon="1.87134">
        <ele>344.4</ele>
        <time>2022-06-19T05:53:43Z</time>
      </trkpt>
      <trkpt lat="43.12013" lon="1.87152">
        <ele>344.8</ele>
        <time>2022-06-19T05:53:47Z</time>
      </trkpt>
      <trkpt lat="43.1203" lon="1.87197">
        <ele>345.6</ele>
        <time>2022-06-19T05:53:56Z</time>
      </trkpt>
      <trkpt lat="43.12035" lon="1.87206">
        <ele>345.8</ele>
        <time>2022-06-19T05:53:58Z</time>
      </trkpt>
      <trkpt lat="43.12053" lon="1.87249">
        <ele>346.4</ele>
        <time>2022-06-19T05:54:06Z</time>
      </trkpt>
      <trkpt lat="43.12057" lon="1.87258">
        <ele>346.6</ele>
        <time>2022-06-19T05:54:08Z</time>
      </trkpt>
      <trkpt lat="43.12062" lon="1.87268">
        <ele>346.6</ele>
        <time>2022-06-19T05:54:10Z</time>
      </trkpt>
      <trkpt lat="43.12068" lon="1.87282">
        <ele>347</ele>
        <time>2022-06-19T05:54:13Z</time>
      </trkpt>
      <trkpt lat="43.1207" lon="1.87287">
        <ele>347.2</ele>
        <time>2022-06-19T05:54:14Z</time>
      </trkpt>
      <trkpt lat="43.12077" lon="1.87307">
        <ele>347.6</ele>
        <time>2022-06-19T05:54:18Z</time>
      </trkpt>
      <trkpt lat="43.12082" lon="1.87315">
        <ele>348</ele>
        <time>2022-06-19T05:54:20Z</time>
      </trkpt>
      <trkpt lat="43.12093" lon="1.87345">
        <ele>348.8</ele>
        <time>2022-06-19T05:54:27Z</time>
      </trkpt>
      <trkpt lat="43.12095" lon="1.87351">
        <ele>348.8</ele>
        <time>2022-06-19T05:54:28Z</time>
      </trkpt>
      <trkpt lat="43.12108" lon="1.874">
        <ele>349.6</ele>
        <time>2022-06-19T05:54:37Z</time>
      </trkpt>
      <trkpt lat="43.1211" lon="1.8741">
        <ele>349.8</ele>
        <time>2022-06-19T05:54:39Z</time>
      </trkpt>
      <trkpt lat="43.1212" lon="1.87465">
        <ele>350.2</ele>
        <time>2022-06-19T05:54:48Z</time>
      </trkpt>
      <trkpt lat="43.12126" lon="1.87502">
        <ele>350.4</ele>
        <time>2022-06-19T05:54:54Z</time>
      </trkpt>
      <trkpt lat="43.1213" lon="1.87526">
        <ele>350.4</ele>
        <time>2022-06-19T05:54:58Z</time>
      </trkpt>
      <trkpt lat="43.12136" lon="1.87561">
        <ele>350.8</ele>
        <time>2022-06-19T05:55:04Z</time>
      </trkpt>
      <trkpt lat="43.12138" lon="1.87572">
        <ele>351</ele>
        <time>2022-06-19T05:55:06Z</time>
      </trkpt>
      <trkpt lat="43.12146" lon="1.87618">
        <ele>351</ele>
        <time>2022-06-19T05:55:14Z</time>
      </trkpt>
      <trkpt lat="43.12154" lon="1.8767">
        <ele>351.4</ele>
        <time>2022-06-19T05:55:23Z</time>
      </trkpt>
      <trkpt lat="43.12164" lon="1.87707">
        <ele>352</ele>
        <time>2022-06-19T05:55:30Z</time>
      </trkpt>
      <trkpt lat="43.12166" lon="1.87717">
        <ele>352.2</ele>
        <time>2022-06-19T05:55:32Z</time>
      </trkpt>
      <trkpt lat="43.12175" lon="1.8775">
        <ele>352.4</ele>
        <time>2022-06-19T05:55:38Z</time>
      </trkpt>
      <trkpt lat="43.1218" lon="1.87766">
        <ele>352.6</ele>
        <time>2022-06-19T05:55:41Z</time>
      </trkpt>
      <trkpt lat="43.12182" lon="1.87771">
        <ele>352.6</ele>
        <time>2022-06-19T05:55:42Z</time>
      </trkpt>
      <trkpt lat="43.12189" lon="1.87786">
        <ele>353</ele>
        <time>2022-06-19T05:55:46Z</time>
      </trkpt>
      <trkpt lat="43.12196" lon="1.87798">
        <ele>353.4</ele>
        <time>2022-06-19T05:55:49Z</time>
      </trkpt>
      <trkpt lat="43.12211" lon="1.87817">
        <ele>354.2</ele>
        <time>2022-06-19T05:55:55Z</time>
      </trkpt>
      <trkpt lat="43.12216" lon="1.87823">
        <ele>354.4</ele>
        <time>2022-06-19T05:55:57Z</time>
      </trkpt>
      <trkpt lat="43.12238" lon="1.87843">
        <ele>355</ele>
        <time>2022-06-19T05:56:05Z</time>
      </trkpt>
      <trkpt lat="43.12249" lon="1.87851">
        <ele>355.4</ele>
        <time>2022-06-19T05:56:09Z</time>
      </trkpt>
      <trkpt lat="43.1226" lon="1.87859">
        <ele>355.8</ele>
        <time>2022-06-19T05:56:13Z</time>
      </trkpt>
      <trkpt lat="43.12276" lon="1.87871">
        <ele>356.6</ele>
        <time>2022-06-19T05:56:19Z</time>
      </trkpt>
      <trkpt lat="43.12283" lon="1.87876">
        <ele>357</ele>
        <time>2022-06-19T05:56:22Z</time>
      </trkpt>
      <trkpt lat="43.12293" lon="1.87883">
        <ele>357.6</ele>
        <time>2022-06-19T05:56:26Z</time>
      </trkpt>
      <trkpt lat="43.12301" lon="1.87888">
        <ele>358</ele>
        <time>2022-06-19T05:56:29Z</time>
      </trkpt>
      <trkpt lat="43.1231" lon="1.87894">
        <ele>358.8</ele>
        <time>2022-06-19T05:56:33Z</time>
      </trkpt>
      <trkpt lat="43.12318" lon="1.87899">
        <ele>359.2</ele>
        <time>2022-06-19T05:56:36Z</time>
      </trkpt>
      <trkpt lat="43.12329" lon="1.87906">
        <ele>359.8</ele>
        <time>2022-06-19T05:56:40Z</time>
      </trkpt>
      <trkpt lat="43.12343" lon="1.8791">
        <ele>360.2</ele>
        <time>2022-06-19T05:56:45Z</time>
      </trkpt>
      <trkpt lat="43.12367" lon="1.87919">
        <ele>356.6</ele>
        <time>2022-06-19T05:56:53Z</time>
      </trkpt>
      <trkpt lat="43.12394" lon="1.87927">
        <ele>361.6</ele>
        <time>2022-06-19T05:57:02Z</time>
      </trkpt>
      <trkpt lat="43.12421" lon="1.87937">
        <ele>361.8</ele>
        <time>2022-06-19T05:57:09Z</time>
      </trkpt>
      <trkpt lat="43.12435" lon="1.8794">
        <ele>361.8</ele>
        <time>2022-06-19T05:57:12Z</time>
      </trkpt>
      <trkpt lat="43.12449" lon="1.87943">
        <ele>361.8</ele>
        <time>2022-06-19T05:57:15Z</time>
      </trkpt>
      <trkpt lat="43.12454" lon="1.87943">
        <ele>361.8</ele>
        <time>2022-06-19T05:57:16Z</time>
      </trkpt>
      <trkpt lat="43.12484" lon="1.87941">
        <ele>361.8</ele>
        <time>2022-06-19T05:57:22Z</time>
      </trkpt>
      <trkpt lat="43.12527" lon="1.87936">
        <ele>361.6</ele>
        <time>2022-06-19T05:57:31Z</time>
      </trkpt>
      <trkpt lat="43.12544" lon="1.87934">
        <ele>361.6</ele>
        <time>2022-06-19T05:57:35Z</time>
      </trkpt>
      <trkpt lat="43.12559" lon="1.87933">
        <ele>361.4</ele>
        <time>2022-06-19T05:57:38Z</time>
      </trkpt>
      <trkpt lat="43.12601" lon="1.87928">
        <ele>361</ele>
        <time>2022-06-19T05:57:47Z</time>
      </trkpt>
      <trkpt lat="43.12616" lon="1.87927">
        <ele>360.8</ele>
        <time>2022-06-19T05:57:50Z</time>
      </trkpt>
      <trkpt lat="43.12634" lon="1.87928">
        <ele>360.6</ele>
        <time>2022-06-19T05:57:54Z</time>
      </trkpt>
      <trkpt lat="43.12638" lon="1.87929">
        <ele>360.6</ele>
        <time>2022-06-19T05:57:55Z</time>
      </trkpt>
      <trkpt lat="43.12681" lon="1.87946">
        <ele>360.4</ele>
        <time>2022-06-19T05:58:04Z</time>
      </trkpt>
      <trkpt lat="43.12734" lon="1.87967">
        <ele>360.2</ele>
        <time>2022-06-19T05:58:14Z</time>
      </trkpt>
      <trkpt lat="43.12781" lon="1.8798">
        <ele>360.2</ele>
        <time>2022-06-19T05:58:23Z</time>
      </trkpt>
      <trkpt lat="43.12836" lon="1.87983">
        <ele>360.6</ele>
        <time>2022-06-19T05:58:33Z</time>
      </trkpt>
      <trkpt lat="43.12881" lon="1.87989">
        <ele>360.6</ele>
        <time>2022-06-19T05:58:42Z</time>
      </trkpt>
      <trkpt lat="43.12915" lon="1.87994">
        <ele>361.2</ele>
        <time>2022-06-19T05:58:49Z</time>
      </trkpt>
      <trkpt lat="43.12954" lon="1.87995">
        <ele>361.8</ele>
        <time>2022-06-19T05:58:57Z</time>
      </trkpt>
      <trkpt lat="43.12969" lon="1.87994">
        <ele>362</ele>
        <time>2022-06-19T05:59:00Z</time>
      </trkpt>
      <trkpt lat="43.13011" lon="1.87995">
        <ele>362.8</ele>
        <time>2022-06-19T05:59:09Z</time>
      </trkpt>
      <trkpt lat="43.1302" lon="1.87995">
        <ele>362.8</ele>
        <time>2022-06-19T05:59:11Z</time>
      </trkpt>
      <trkpt lat="43.13055" lon="1.87992">
        <ele>363.6</ele>
        <time>2022-06-19T05:59:19Z</time>
      </trkpt>
      <trkpt lat="43.13071" lon="1.87992">
        <ele>364</ele>
        <time>2022-06-19T05:59:23Z</time>
      </trkpt>
      <trkpt lat="43.1309" lon="1.87992">
        <ele>364.4</ele>
        <time>2022-06-19T05:59:28Z</time>
      </trkpt>
      <trkpt lat="43.13121" lon="1.87991">
        <ele>365</ele>
        <time>2022-06-19T05:59:36Z</time>
      </trkpt>
      <trkpt lat="43.13139" lon="1.87991">
        <ele>365.2</ele>
        <time>2022-06-19T05:59:41Z</time>
      </trkpt>
      <trkpt lat="43.13176" lon="1.8799">
        <ele>366</ele>
        <time>2022-06-19T05:59:51Z</time>
      </trkpt>
      <trkpt lat="43.13183" lon="1.8799">
        <ele>366.2</ele>
        <time>2022-06-19T05:59:53Z</time>
      </trkpt>
      <trkpt lat="43.13228" lon="1.87988">
        <ele>366.8</ele>
        <time>2022-06-19T06:00:04Z</time>
      </trkpt>
      <trkpt lat="43.13277" lon="1.87987">
        <ele>366.6</ele>
        <time>2022-06-19T06:00:16Z</time>
      </trkpt>
      <trkpt lat="43.13325" lon="1.87986">
        <ele>366.4</ele>
        <time>2022-06-19T06:00:27Z</time>
      </trkpt>
      <trkpt lat="43.13348" lon="1.87989">
        <ele>366.4</ele>
        <time>2022-06-19T06:00:32Z</time>
      </trkpt>
      <trkpt lat="43.13358" lon="1.87993">
        <ele>366.6</ele>
        <time>2022-06-19T06:00:34Z</time>
      </trkpt>
      <trkpt lat="43.1337" lon="1.88001">
        <ele>366.8</ele>
        <time>2022-06-19T06:00:37Z</time>
      </trkpt>
      <trkpt lat="43.13397" lon="1.88018">
        <ele>367.4</ele>
        <time>2022-06-19T06:00:44Z</time>
      </trkpt>
      <trkpt lat="43.13411" lon="1.88027">
        <ele>367.8</ele>
        <time>2022-06-19T06:00:48Z</time>
      </trkpt>
      <trkpt lat="43.13422" lon="1.88035">
        <ele>368.2</ele>
        <time>2022-06-19T06:00:51Z</time>
      </trkpt>
      <trkpt lat="43.13443" lon="1.88048">
        <ele>368.8</ele>
        <time>2022-06-19T06:00:57Z</time>
      </trkpt>
      <trkpt lat="43.13455" lon="1.88054">
        <ele>369.4</ele>
        <time>2022-06-19T06:01:00Z</time>
      </trkpt>
      <trkpt lat="43.13473" lon="1.88063">
        <ele>370</ele>
        <time>2022-06-19T06:01:05Z</time>
      </trkpt>
      <trkpt lat="43.13493" lon="1.88069">
        <ele>370.6</ele>
        <time>2022-06-19T06:01:10Z</time>
      </trkpt>
      <trkpt lat="43.13507" lon="1.88074">
        <ele>371</ele>
        <time>2022-06-19T06:01:14Z</time>
      </trkpt>
      <trkpt lat="43.13533" lon="1.88082">
        <ele>371.8</ele>
        <time>2022-06-19T06:01:21Z</time>
      </trkpt>
      <trkpt lat="43.13543" lon="1.88085">
        <ele>372.2</ele>
        <time>2022-06-19T06:01:24Z</time>
      </trkpt>
      <trkpt lat="43.13558" lon="1.8809">
        <ele>372.6</ele>
        <time>2022-06-19T06:01:28Z</time>
      </trkpt>
      <trkpt lat="43.13573" lon="1.88095">
        <ele>373.4</ele>
        <time>2022-06-19T06:01:32Z</time>
      </trkpt>
      <trkpt lat="43.13599" lon="1.88104">
        <ele>374</ele>
        <time>2022-06-19T06:01:39Z</time>
      </trkpt>
      <trkpt lat="43.13607" lon="1.88107">
        <ele>374.4</ele>
        <time>2022-06-19T06:01:41Z</time>
      </trkpt>
      <trkpt lat="43.13633" lon="1.88115">
        <ele>375</ele>
        <time>2022-06-19T06:01:48Z</time>
      </trkpt>
      <trkpt lat="43.13648" lon="1.88119">
        <ele>375.2</ele>
        <time>2022-06-19T06:01:52Z</time>
      </trkpt>
      <trkpt lat="43.13658" lon="1.88121">
        <ele>375.8</ele>
        <time>2022-06-19T06:01:55Z</time>
      </trkpt>
      <trkpt lat="43.1369" lon="1.88123">
        <ele>376</ele>
        <time>2022-06-19T06:02:03Z</time>
      </trkpt>
      <trkpt lat="43.13714" lon="1.88122">
        <ele>376</ele>
        <time>2022-06-19T06:02:09Z</time>
      </trkpt>
      <trkpt lat="43.13727" lon="1.88122">
        <ele>376.2</ele>
        <time>2022-06-19T06:02:12Z</time>
      </trkpt>
      <trkpt lat="43.13736" lon="1.88124">
        <ele>376.4</ele>
        <time>2022-06-19T06:02:14Z</time>
      </trkpt>
      <trkpt lat="43.13742" lon="1.88123">
        <ele>376.4</ele>
        <time>2022-06-19T06:02:15Z</time>
      </trkpt>
      <trkpt lat="43.13756" lon="1.88122">
        <ele>376.6</ele>
        <time>2022-06-19T06:02:18Z</time>
      </trkpt>
      <trkpt lat="43.1376" lon="1.88122">
        <ele>376.6</ele>
        <time>2022-06-19T06:02:19Z</time>
      </trkpt>
      <trkpt lat="43.13769" lon="1.88121">
        <ele>376.8</ele>
        <time>2022-06-19T06:02:21Z</time>
      </trkpt>
      <trkpt lat="43.13791" lon="1.8812">
        <ele>377.2</ele>
        <time>2022-06-19T06:02:25Z</time>
      </trkpt>
      <trkpt lat="43.13795" lon="1.88119">
        <ele>377.2</ele>
        <time>2022-06-19T06:02:26Z</time>
      </trkpt>
      <trkpt lat="43.13824" lon="1.88111">
        <ele>378.2</ele>
        <time>2022-06-19T06:02:32Z</time>
      </trkpt>
      <trkpt lat="43.13847" lon="1.88102">
        <ele>379</ele>
        <time>2022-06-19T06:02:37Z</time>
      </trkpt>
      <trkpt lat="43.13856" lon="1.88099">
        <ele>379.2</ele>
        <time>2022-06-19T06:02:39Z</time>
      </trkpt>
      <trkpt lat="43.13898" lon="1.88087">
        <ele>380.4</ele>
        <time>2022-06-19T06:02:48Z</time>
      </trkpt>
      <trkpt lat="43.13903" lon="1.88086">
        <ele>380.4</ele>
        <time>2022-06-19T06:02:49Z</time>
      </trkpt>
      <trkpt lat="43.13938" lon="1.88077">
        <ele>381.4</ele>
        <time>2022-06-19T06:02:57Z</time>
      </trkpt>
      <trkpt lat="43.13974" lon="1.88065">
        <ele>382.2</ele>
        <time>2022-06-19T06:03:05Z</time>
      </trkpt>
      <trkpt lat="43.13982" lon="1.88061">
        <ele>382.6</ele>
        <time>2022-06-19T06:03:07Z</time>
      </trkpt>
      <trkpt lat="43.14008" lon="1.88047">
        <ele>383</ele>
        <time>2022-06-19T06:03:13Z</time>
      </trkpt>
      <trkpt lat="43.1402" lon="1.88042">
        <ele>383.6</ele>
        <time>2022-06-19T06:03:16Z</time>
      </trkpt>
      <trkpt lat="43.14044" lon="1.88035">
        <ele>384.2</ele>
        <time>2022-06-19T06:03:22Z</time>
      </trkpt>
      <trkpt lat="43.14056" lon="1.88032">
        <ele>384.6</ele>
        <time>2022-06-19T06:03:25Z</time>
      </trkpt>
      <trkpt lat="43.14076" lon="1.88026">
        <ele>385.2</ele>
        <time>2022-06-19T06:03:30Z</time>
      </trkpt>
      <trkpt lat="43.14091" lon="1.88021">
        <ele>385.6</ele>
        <time>2022-06-19T06:03:34Z</time>
      </trkpt>
      <trkpt lat="43.14105" lon="1.88019">
        <ele>385.8</ele>
        <time>2022-06-19T06:03:38Z</time>
      </trkpt>
      <trkpt lat="43.14131" lon="1.88018">
        <ele>386.4</ele>
        <time>2022-06-19T06:03:45Z</time>
      </trkpt>
      <trkpt lat="43.14139" lon="1.88019">
        <ele>386.6</ele>
        <time>2022-06-19T06:03:47Z</time>
      </trkpt>
      <trkpt lat="43.14165" lon="1.88025">
        <ele>387.6</ele>
        <time>2022-06-19T06:03:54Z</time>
      </trkpt>
      <trkpt lat="43.14169" lon="1.88027">
        <ele>387.6</ele>
        <time>2022-06-19T06:03:55Z</time>
      </trkpt>
      <trkpt lat="43.14193" lon="1.88038">
        <ele>388.8</ele>
        <time>2022-06-19T06:04:02Z</time>
      </trkpt>
      <trkpt lat="43.142" lon="1.88041">
        <ele>389.2</ele>
        <time>2022-06-19T06:04:04Z</time>
      </trkpt>
      <trkpt lat="43.14213" lon="1.88046">
        <ele>389.8</ele>
        <time>2022-06-19T06:04:08Z</time>
      </trkpt>
      <trkpt lat="43.14227" lon="1.88046">
        <ele>390.4</ele>
        <time>2022-06-19T06:04:12Z</time>
      </trkpt>
      <trkpt lat="43.14237" lon="1.88044">
        <ele>390.8</ele>
        <time>2022-06-19T06:04:15Z</time>
      </trkpt>
      <trkpt lat="43.14254" lon="1.88037">
        <ele>391.6</ele>
        <time>2022-06-19T06:04:20Z</time>
      </trkpt>
      <trkpt lat="43.14261" lon="1.88033">
        <ele>392</ele>
        <time>2022-06-19T06:04:22Z</time>
      </trkpt>
      <trkpt lat="43.14284" lon="1.88021">
        <ele>393</ele>
        <time>2022-06-19T06:04:29Z</time>
      </trkpt>
      <trkpt lat="43.14286" lon="1.88019">
        <ele>393</ele>
        <time>2022-06-19T06:04:30Z</time>
      </trkpt>
      <trkpt lat="43.14305" lon="1.88008">
        <ele>393.6</ele>
        <time>2022-06-19T06:04:36Z</time>
      </trkpt>
      <trkpt lat="43.14314" lon="1.88002">
        <ele>394.2</ele>
        <time>2022-06-19T06:04:39Z</time>
      </trkpt>
      <trkpt lat="43.14332" lon="1.87988">
        <ele>395.2</ele>
        <time>2022-06-19T06:04:45Z</time>
      </trkpt>
      <trkpt lat="43.14335" lon="1.87985">
        <ele>395.4</ele>
        <time>2022-06-19T06:04:46Z</time>
      </trkpt>
      <trkpt lat="43.14351" lon="1.87973">
        <ele>396.2</ele>
        <time>2022-06-19T06:04:51Z</time>
      </trkpt>
      <trkpt lat="43.14361" lon="1.8797">
        <ele>396.8</ele>
        <time>2022-06-19T06:04:54Z</time>
      </trkpt>
      <trkpt lat="43.14371" lon="1.8797">
        <ele>397.2</ele>
        <time>2022-06-19T06:04:57Z</time>
      </trkpt>
      <trkpt lat="43.1439" lon="1.87973">
        <ele>398.4</ele>
        <time>2022-06-19T06:05:03Z</time>
      </trkpt>
      <trkpt lat="43.14409" lon="1.87976">
        <ele>399.2</ele>
        <time>2022-06-19T06:05:10Z</time>
      </trkpt>
      <trkpt lat="43.14412" lon="1.87976">
        <ele>399.4</ele>
        <time>2022-06-19T06:05:11Z</time>
      </trkpt>
      <trkpt lat="43.14432" lon="1.87975">
        <ele>400.4</ele>
        <time>2022-06-19T06:05:17Z</time>
      </trkpt>
      <trkpt lat="43.14439" lon="1.87976">
        <ele>400.8</ele>
        <time>2022-06-19T06:05:19Z</time>
      </trkpt>
      <trkpt lat="43.14461" lon="1.87979">
        <ele>401.4</ele>
        <time>2022-06-19T06:05:26Z</time>
      </trkpt>
      <trkpt lat="43.14473" lon="1.87983">
        <ele>401.6</ele>
        <time>2022-06-19T06:05:30Z</time>
      </trkpt>
      <trkpt lat="43.14485" lon="1.87988">
        <ele>402.4</ele>
        <time>2022-06-19T06:05:34Z</time>
      </trkpt>
      <trkpt lat="43.14494" lon="1.87992">
        <ele>402.6</ele>
        <time>2022-06-19T06:05:37Z</time>
      </trkpt>
      <trkpt lat="43.14506" lon="1.87997">
        <ele>403.4</ele>
        <time>2022-06-19T06:05:41Z</time>
      </trkpt>
      <trkpt lat="43.1452" lon="1.88002">
        <ele>404</ele>
        <time>2022-06-19T06:05:46Z</time>
      </trkpt>
      <trkpt lat="43.14532" lon="1.88005">
        <ele>404.6</ele>
        <time>2022-06-19T06:05:50Z</time>
      </trkpt>
      <trkpt lat="43.14544" lon="1.88007">
        <ele>405</ele>
        <time>2022-06-19T06:05:54Z</time>
      </trkpt>
      <trkpt lat="43.14554" lon="1.88005">
        <ele>405.6</ele>
        <time>2022-06-19T06:05:57Z</time>
      </trkpt>
      <trkpt lat="43.14573" lon="1.87998">
        <ele>406.4</ele>
        <time>2022-06-19T06:06:03Z</time>
      </trkpt>
      <trkpt lat="43.14576" lon="1.87997">
        <ele>406.6</ele>
        <time>2022-06-19T06:06:04Z</time>
      </trkpt>
      <trkpt lat="43.14597" lon="1.87993">
        <ele>407.6</ele>
        <time>2022-06-19T06:06:10Z</time>
      </trkpt>
      <trkpt lat="43.1462" lon="1.88001">
        <ele>408.8</ele>
        <time>2022-06-19T06:06:17Z</time>
      </trkpt>
      <trkpt lat="43.14637" lon="1.8801">
        <ele>409.8</ele>
        <time>2022-06-19T06:06:23Z</time>
      </trkpt>
      <trkpt lat="43.14644" lon="1.88012">
        <ele>410</ele>
        <time>2022-06-19T06:06:25Z</time>
      </trkpt>
      <trkpt lat="43.14664" lon="1.88016">
        <ele>410.8</ele>
        <time>2022-06-19T06:06:31Z</time>
      </trkpt>
      <trkpt lat="43.14671" lon="1.88018">
        <ele>411.4</ele>
        <time>2022-06-19T06:06:33Z</time>
      </trkpt>
      <trkpt lat="43.14677" lon="1.8802">
        <ele>412</ele>
        <time>2022-06-19T06:06:36Z</time>
      </trkpt>
      <trkpt lat="43.14702" lon="1.8803">
        <ele>412.8</ele>
        <time>2022-06-19T06:06:43Z</time>
      </trkpt>
      <trkpt lat="43.14707" lon="1.88032">
        <ele>413</ele>
        <time>2022-06-19T06:06:45Z</time>
      </trkpt>
      <trkpt lat="43.14722" lon="1.8804">
        <ele>414.2</ele>
        <time>2022-06-19T06:06:51Z</time>
      </trkpt>
      <trkpt lat="43.14733" lon="1.8805">
        <ele>414.4</ele>
        <time>2022-06-19T06:06:54Z</time>
      </trkpt>
      <trkpt lat="43.14743" lon="1.8806">
        <ele>415.4</ele>
        <time>2022-06-19T06:06:58Z</time>
      </trkpt>
      <trkpt lat="43.14753" lon="1.88072">
        <ele>416</ele>
        <time>2022-06-19T06:07:02Z</time>
      </trkpt>
      <trkpt lat="43.14758" lon="1.88078">
        <ele>416.4</ele>
        <time>2022-06-19T06:07:04Z</time>
      </trkpt>
      <trkpt lat="43.1477" lon="1.8809">
        <ele>417.6</ele>
        <time>2022-06-19T06:07:09Z</time>
      </trkpt>
      <trkpt lat="43.14773" lon="1.88093">
        <ele>417.8</ele>
        <time>2022-06-19T06:07:10Z</time>
      </trkpt>
      <trkpt lat="43.14789" lon="1.8811">
        <ele>418.6</ele>
        <time>2022-06-19T06:07:16Z</time>
      </trkpt>
      <trkpt lat="43.14808" lon="1.88128">
        <ele>419.4</ele>
        <time>2022-06-19T06:07:22Z</time>
      </trkpt>
      <trkpt lat="43.14828" lon="1.88129">
        <ele>419.8</ele>
        <time>2022-06-19T06:07:27Z</time>
      </trkpt>
      <trkpt lat="43.14832" lon="1.88127">
        <ele>419.8</ele>
        <time>2022-06-19T06:07:28Z</time>
      </trkpt>
      <trkpt lat="43.14836" lon="1.88123">
        <ele>420</ele>
        <time>2022-06-19T06:07:29Z</time>
      </trkpt>
      <trkpt lat="43.1484" lon="1.88119">
        <ele>420</ele>
        <time>2022-06-19T06:07:30Z</time>
      </trkpt>
      <trkpt lat="43.14843" lon="1.88114">
        <ele>420</ele>
        <time>2022-06-19T06:07:31Z</time>
      </trkpt>
      <trkpt lat="43.14857" lon="1.88093">
        <ele>419.6</ele>
        <time>2022-06-19T06:07:35Z</time>
      </trkpt>
      <trkpt lat="43.14865" lon="1.88084">
        <ele>419.8</ele>
        <time>2022-06-19T06:07:37Z</time>
      </trkpt>
      <trkpt lat="43.14881" lon="1.8808">
        <ele>419.6</ele>
        <time>2022-06-19T06:07:40Z</time>
      </trkpt>
      <trkpt lat="43.14887" lon="1.88081">
        <ele>419.6</ele>
        <time>2022-06-19T06:07:41Z</time>
      </trkpt>
      <trkpt lat="43.14913" lon="1.88087">
        <ele>419.2</ele>
        <time>2022-06-19T06:07:45Z</time>
      </trkpt>
      <trkpt lat="43.14928" lon="1.88087">
        <ele>418.8</ele>
        <time>2022-06-19T06:07:47Z</time>
      </trkpt>
      <trkpt lat="43.14953" lon="1.88086">
        <ele>418.6</ele>
        <time>2022-06-19T06:07:50Z</time>
      </trkpt>
      <trkpt lat="43.14979" lon="1.88086">
        <ele>418.4</ele>
        <time>2022-06-19T06:07:53Z</time>
      </trkpt>
      <trkpt lat="43.14987" lon="1.88089">
        <ele>418</ele>
        <time>2022-06-19T06:07:54Z</time>
      </trkpt>
      <trkpt lat="43.14994" lon="1.88095">
        <ele>417.8</ele>
        <time>2022-06-19T06:07:55Z</time>
      </trkpt>
      <trkpt lat="43.14999" lon="1.88102">
        <ele>417.4</ele>
        <time>2022-06-19T06:07:57Z</time>
      </trkpt>
      <trkpt lat="43.15014" lon="1.88128">
        <ele>416.8</ele>
        <time>2022-06-19T06:07:59Z</time>
      </trkpt>
      <trkpt lat="43.1502" lon="1.88132">
        <ele>416.2</ele>
        <time>2022-06-19T06:08:00Z</time>
      </trkpt>
      <trkpt lat="43.15028" lon="1.88134">
        <ele>415.8</ele>
        <time>2022-06-19T06:08:01Z</time>
      </trkpt>
      <trkpt lat="43.15042" lon="1.88126">
        <ele>415</ele>
        <time>2022-06-19T06:08:03Z</time>
      </trkpt>
      <trkpt lat="43.15056" lon="1.8811">
        <ele>414.2</ele>
        <time>2022-06-19T06:08:05Z</time>
      </trkpt>
      <trkpt lat="43.15069" lon="1.88093">
        <ele>413.2</ele>
        <time>2022-06-19T06:08:07Z</time>
      </trkpt>
      <trkpt lat="43.15077" lon="1.88081">
        <ele>412.4</ele>
        <time>2022-06-19T06:08:08Z</time>
      </trkpt>
      <trkpt lat="43.15094" lon="1.88044">
        <ele>411</ele>
        <time>2022-06-19T06:08:11Z</time>
      </trkpt>
      <trkpt lat="43.15106" lon="1.8802">
        <ele>410</ele>
        <time>2022-06-19T06:08:13Z</time>
      </trkpt>
      <trkpt lat="43.15113" lon="1.8801">
        <ele>409.8</ele>
        <time>2022-06-19T06:08:14Z</time>
      </trkpt>
      <trkpt lat="43.15121" lon="1.88001">
        <ele>408.8</ele>
        <time>2022-06-19T06:08:15Z</time>
      </trkpt>
      <trkpt lat="43.1513" lon="1.87993">
        <ele>408.4</ele>
        <time>2022-06-19T06:08:16Z</time>
      </trkpt>
      <trkpt lat="43.15149" lon="1.87979">
        <ele>407.4</ele>
        <time>2022-06-19T06:08:18Z</time>
      </trkpt>
      <trkpt lat="43.1516" lon="1.87972">
        <ele>407</ele>
        <time>2022-06-19T06:08:19Z</time>
      </trkpt>
      <trkpt lat="43.15179" lon="1.87959">
        <ele>406.2</ele>
        <time>2022-06-19T06:08:21Z</time>
      </trkpt>
      <trkpt lat="43.15189" lon="1.87951">
        <ele>405.2</ele>
        <time>2022-06-19T06:08:22Z</time>
      </trkpt>
      <trkpt lat="43.15199" lon="1.87943">
        <ele>404.8</ele>
        <time>2022-06-19T06:08:23Z</time>
      </trkpt>
      <trkpt lat="43.1521" lon="1.87931">
        <ele>404.2</ele>
        <time>2022-06-19T06:08:24Z</time>
      </trkpt>
      <trkpt lat="43.15218" lon="1.87919">
        <ele>403.8</ele>
        <time>2022-06-19T06:08:25Z</time>
      </trkpt>
      <trkpt lat="43.15231" lon="1.87895">
        <ele>402.8</ele>
        <time>2022-06-19T06:08:27Z</time>
      </trkpt>
      <trkpt lat="43.15243" lon="1.87863">
        <ele>401.8</ele>
        <time>2022-06-19T06:08:29Z</time>
      </trkpt>
      <trkpt lat="43.15252" lon="1.87831">
        <ele>400.8</ele>
        <time>2022-06-19T06:08:31Z</time>
      </trkpt>
      <trkpt lat="43.15261" lon="1.87802">
        <ele>399.6</ele>
        <time>2022-06-19T06:08:33Z</time>
      </trkpt>
      <trkpt lat="43.15277" lon="1.8775">
        <ele>397.8</ele>
        <time>2022-06-19T06:08:36Z</time>
      </trkpt>
      <trkpt lat="43.15288" lon="1.87719">
        <ele>396.6</ele>
        <time>2022-06-19T06:08:38Z</time>
      </trkpt>
      <trkpt lat="43.153" lon="1.8769">
        <ele>395.2</ele>
        <time>2022-06-19T06:08:40Z</time>
      </trkpt>
      <trkpt lat="43.15307" lon="1.87677">
        <ele>394.6</ele>
        <time>2022-06-19T06:08:41Z</time>
      </trkpt>
      <trkpt lat="43.15315" lon="1.87666">
        <ele>393.6</ele>
        <time>2022-06-19T06:08:42Z</time>
      </trkpt>
      <trkpt lat="43.15334" lon="1.87648">
        <ele>392.8</ele>
        <time>2022-06-19T06:08:44Z</time>
      </trkpt>
      <trkpt lat="43.15343" lon="1.87639">
        <ele>391.6</ele>
        <time>2022-06-19T06:08:45Z</time>
      </trkpt>
      <trkpt lat="43.15362" lon="1.87623">
        <ele>390.4</ele>
        <time>2022-06-19T06:08:47Z</time>
      </trkpt>
      <trkpt lat="43.1537" lon="1.87618">
        <ele>390.2</ele>
        <time>2022-06-19T06:08:48Z</time>
      </trkpt>
      <trkpt lat="43.15378" lon="1.87615">
        <ele>388.8</ele>
        <time>2022-06-19T06:08:49Z</time>
      </trkpt>
      <trkpt lat="43.15386" lon="1.87614">
        <ele>387.8</ele>
        <time>2022-06-19T06:08:50Z</time>
      </trkpt>
      <trkpt lat="43.15394" lon="1.87617">
        <ele>387.2</ele>
        <time>2022-06-19T06:08:51Z</time>
      </trkpt>
      <trkpt lat="43.15399" lon="1.87624">
        <ele>386.2</ele>
        <time>2022-06-19T06:08:52Z</time>
      </trkpt>
      <trkpt lat="43.15406" lon="1.87641">
        <ele>384.8</ele>
        <time>2022-06-19T06:08:54Z</time>
      </trkpt>
      <trkpt lat="43.15412" lon="1.87656">
        <ele>383.4</ele>
        <time>2022-06-19T06:08:56Z</time>
      </trkpt>
      <trkpt lat="43.15422" lon="1.87666">
        <ele>382.2</ele>
        <time>2022-06-19T06:08:58Z</time>
      </trkpt>
      <trkpt lat="43.15437" lon="1.87668">
        <ele>381</ele>
        <time>2022-06-19T06:09:00Z</time>
      </trkpt>
      <trkpt lat="43.15444" lon="1.87665">
        <ele>380.4</ele>
        <time>2022-06-19T06:09:01Z</time>
      </trkpt>
      <trkpt lat="43.15448" lon="1.87659">
        <ele>379.8</ele>
        <time>2022-06-19T06:09:02Z</time>
      </trkpt>
      <trkpt lat="43.15448" lon="1.8765">
        <ele>379</ele>
        <time>2022-06-19T06:09:03Z</time>
      </trkpt>
      <trkpt lat="43.15447" lon="1.87641">
        <ele>378.4</ele>
        <time>2022-06-19T06:09:04Z</time>
      </trkpt>
      <trkpt lat="43.15445" lon="1.87616">
        <ele>377.6</ele>
        <time>2022-06-19T06:09:06Z</time>
      </trkpt>
      <trkpt lat="43.15444" lon="1.87604">
        <ele>377.6</ele>
        <time>2022-06-19T06:09:07Z</time>
      </trkpt>
      <trkpt lat="43.15443" lon="1.87578">
        <ele>376.2</ele>
        <time>2022-06-19T06:09:09Z</time>
      </trkpt>
      <trkpt lat="43.15441" lon="1.87552">
        <ele>374.8</ele>
        <time>2022-06-19T06:09:11Z</time>
      </trkpt>
      <trkpt lat="43.15444" lon="1.87539">
        <ele>374.6</ele>
        <time>2022-06-19T06:09:12Z</time>
      </trkpt>
      <trkpt lat="43.15448" lon="1.87527">
        <ele>374</ele>
        <time>2022-06-19T06:09:13Z</time>
      </trkpt>
      <trkpt lat="43.15458" lon="1.87506">
        <ele>372.8</ele>
        <time>2022-06-19T06:09:15Z</time>
      </trkpt>
      <trkpt lat="43.15465" lon="1.87493">
        <ele>372.4</ele>
        <time>2022-06-19T06:09:16Z</time>
      </trkpt>
      <trkpt lat="43.15473" lon="1.87483">
        <ele>371.6</ele>
        <time>2022-06-19T06:09:17Z</time>
      </trkpt>
      <trkpt lat="43.15489" lon="1.87462">
        <ele>370.6</ele>
        <time>2022-06-19T06:09:19Z</time>
      </trkpt>
      <trkpt lat="43.15506" lon="1.87441">
        <ele>369.4</ele>
        <time>2022-06-19T06:09:21Z</time>
      </trkpt>
      <trkpt lat="43.15523" lon="1.87419">
        <ele>368.2</ele>
        <time>2022-06-19T06:09:23Z</time>
      </trkpt>
      <trkpt lat="43.15541" lon="1.87397">
        <ele>366.8</ele>
        <time>2022-06-19T06:09:25Z</time>
      </trkpt>
      <trkpt lat="43.15549" lon="1.87387">
        <ele>366.4</ele>
        <time>2022-06-19T06:09:26Z</time>
      </trkpt>
      <trkpt lat="43.15558" lon="1.87377">
        <ele>366</ele>
        <time>2022-06-19T06:09:27Z</time>
      </trkpt>
      <trkpt lat="43.15569" lon="1.87369">
        <ele>365.8</ele>
        <time>2022-06-19T06:09:28Z</time>
      </trkpt>
      <trkpt lat="43.15579" lon="1.87363">
        <ele>364.8</ele>
        <time>2022-06-19T06:09:29Z</time>
      </trkpt>
      <trkpt lat="43.156" lon="1.87354">
        <ele>363.4</ele>
        <time>2022-06-19T06:09:31Z</time>
      </trkpt>
      <trkpt lat="43.15619" lon="1.87345">
        <ele>362.4</ele>
        <time>2022-06-19T06:09:33Z</time>
      </trkpt>
      <trkpt lat="43.15629" lon="1.87342">
        <ele>362</ele>
        <time>2022-06-19T06:09:34Z</time>
      </trkpt>
      <trkpt lat="43.15648" lon="1.87334">
        <ele>360.8</ele>
        <time>2022-06-19T06:09:36Z</time>
      </trkpt>
      <trkpt lat="43.15668" lon="1.87325">
        <ele>359.8</ele>
        <time>2022-06-19T06:09:38Z</time>
      </trkpt>
      <trkpt lat="43.15677" lon="1.87319">
        <ele>359.2</ele>
        <time>2022-06-19T06:09:39Z</time>
      </trkpt>
      <trkpt lat="43.15686" lon="1.87312">
        <ele>359</ele>
        <time>2022-06-19T06:09:40Z</time>
      </trkpt>
      <trkpt lat="43.15694" lon="1.87303">
        <ele>358.2</ele>
        <time>2022-06-19T06:09:41Z</time>
      </trkpt>
      <trkpt lat="43.15708" lon="1.87279">
        <ele>357.2</ele>
        <time>2022-06-19T06:09:43Z</time>
      </trkpt>
      <trkpt lat="43.15714" lon="1.87266">
        <ele>357</ele>
        <time>2022-06-19T06:09:44Z</time>
      </trkpt>
      <trkpt lat="43.15727" lon="1.8724">
        <ele>355.8</ele>
        <time>2022-06-19T06:09:46Z</time>
      </trkpt>
      <trkpt lat="43.1574" lon="1.87214">
        <ele>354.4</ele>
        <time>2022-06-19T06:09:48Z</time>
      </trkpt>
      <trkpt lat="43.15753" lon="1.87188">
        <ele>353.4</ele>
        <time>2022-06-19T06:09:50Z</time>
      </trkpt>
      <trkpt lat="43.15765" lon="1.87163">
        <ele>352.2</ele>
        <time>2022-06-19T06:09:52Z</time>
      </trkpt>
      <trkpt lat="43.15777" lon="1.87139">
        <ele>351.2</ele>
        <time>2022-06-19T06:09:54Z</time>
      </trkpt>
      <trkpt lat="43.1579" lon="1.87114">
        <ele>350.2</ele>
        <time>2022-06-19T06:09:56Z</time>
      </trkpt>
      <trkpt lat="43.15803" lon="1.87091">
        <ele>349</ele>
        <time>2022-06-19T06:09:58Z</time>
      </trkpt>
      <trkpt lat="43.15817" lon="1.87068">
        <ele>347.6</ele>
        <time>2022-06-19T06:10:00Z</time>
      </trkpt>
      <trkpt lat="43.15839" lon="1.87037">
        <ele>346.2</ele>
        <time>2022-06-19T06:10:03Z</time>
      </trkpt>
      <trkpt lat="43.15862" lon="1.8701">
        <ele>344.2</ele>
        <time>2022-06-19T06:10:06Z</time>
      </trkpt>
      <trkpt lat="43.1587" lon="1.87002">
        <ele>343.6</ele>
        <time>2022-06-19T06:10:07Z</time>
      </trkpt>
      <trkpt lat="43.15879" lon="1.86996">
        <ele>343.2</ele>
        <time>2022-06-19T06:10:08Z</time>
      </trkpt>
      <trkpt lat="43.15895" lon="1.86984">
        <ele>342</ele>
        <time>2022-06-19T06:10:10Z</time>
      </trkpt>
      <trkpt lat="43.15918" lon="1.86967">
        <ele>340.6</ele>
        <time>2022-06-19T06:10:13Z</time>
      </trkpt>
      <trkpt lat="43.1594" lon="1.86952">
        <ele>339.4</ele>
        <time>2022-06-19T06:10:16Z</time>
      </trkpt>
      <trkpt lat="43.15962" lon="1.86938">
        <ele>338.4</ele>
        <time>2022-06-19T06:10:19Z</time>
      </trkpt>
      <trkpt lat="43.15993" lon="1.86923">
        <ele>337.4</ele>
        <time>2022-06-19T06:10:23Z</time>
      </trkpt>
      <trkpt lat="43.16" lon="1.8692">
        <ele>337.2</ele>
        <time>2022-06-19T06:10:24Z</time>
      </trkpt>
      <trkpt lat="43.1603" lon="1.86907">
        <ele>336.2</ele>
        <time>2022-06-19T06:10:28Z</time>
      </trkpt>
      <trkpt lat="43.16069" lon="1.8689">
        <ele>335.2</ele>
        <time>2022-06-19T06:10:33Z</time>
      </trkpt>
      <trkpt lat="43.16076" lon="1.86887">
        <ele>335</ele>
        <time>2022-06-19T06:10:34Z</time>
      </trkpt>
      <trkpt lat="43.16128" lon="1.86858">
        <ele>334.2</ele>
        <time>2022-06-19T06:10:41Z</time>
      </trkpt>
      <trkpt lat="43.16176" lon="1.86815">
        <ele>333.4</ele>
        <time>2022-06-19T06:10:48Z</time>
      </trkpt>
      <trkpt lat="43.16183" lon="1.86809">
        <ele>333.2</ele>
        <time>2022-06-19T06:10:49Z</time>
      </trkpt>
      <trkpt lat="43.16205" lon="1.86788">
        <ele>332.8</ele>
        <time>2022-06-19T06:10:52Z</time>
      </trkpt>
      <trkpt lat="43.16219" lon="1.86771">
        <ele>332.4</ele>
        <time>2022-06-19T06:10:54Z</time>
      </trkpt>
      <trkpt lat="43.16225" lon="1.86764">
        <ele>332</ele>
        <time>2022-06-19T06:10:55Z</time>
      </trkpt>
      <trkpt lat="43.16249" lon="1.86736">
        <ele>331.6</ele>
        <time>2022-06-19T06:10:59Z</time>
      </trkpt>
      <trkpt lat="43.16273" lon="1.86718">
        <ele>330.8</ele>
        <time>2022-06-19T06:11:03Z</time>
      </trkpt>
      <trkpt lat="43.16279" lon="1.86714">
        <ele>330.6</ele>
        <time>2022-06-19T06:11:04Z</time>
      </trkpt>
      <trkpt lat="43.1632" lon="1.8669">
        <ele>330.2</ele>
        <time>2022-06-19T06:11:10Z</time>
      </trkpt>
      <trkpt lat="43.16353" lon="1.8667">
        <ele>329.6</ele>
        <time>2022-06-19T06:11:14Z</time>
      </trkpt>
      <trkpt lat="43.1637" lon="1.8666">
        <ele>329.4</ele>
        <time>2022-06-19T06:11:16Z</time>
      </trkpt>
      <trkpt lat="43.16415" lon="1.86633">
        <ele>328.2</ele>
        <time>2022-06-19T06:11:21Z</time>
      </trkpt>
      <trkpt lat="43.16433" lon="1.86622">
        <ele>327.8</ele>
        <time>2022-06-19T06:11:23Z</time>
      </trkpt>
      <trkpt lat="43.16461" lon="1.86607">
        <ele>327</ele>
        <time>2022-06-19T06:11:26Z</time>
      </trkpt>
      <trkpt lat="43.16488" lon="1.86592">
        <ele>325.8</ele>
        <time>2022-06-19T06:11:29Z</time>
      </trkpt>
      <trkpt lat="43.16496" lon="1.86588">
        <ele>325.2</ele>
        <time>2022-06-19T06:11:30Z</time>
      </trkpt>
      <trkpt lat="43.16511" lon="1.86581">
        <ele>324.6</ele>
        <time>2022-06-19T06:11:32Z</time>
      </trkpt>
      <trkpt lat="43.16536" lon="1.86567">
        <ele>323.6</ele>
        <time>2022-06-19T06:11:35Z</time>
      </trkpt>
      <trkpt lat="43.16543" lon="1.86564">
        <ele>323.4</ele>
        <time>2022-06-19T06:11:36Z</time>
      </trkpt>
      <trkpt lat="43.16569" lon="1.8655">
        <ele>322.4</ele>
        <time>2022-06-19T06:11:40Z</time>
      </trkpt>
      <trkpt lat="43.16576" lon="1.86546">
        <ele>322.2</ele>
        <time>2022-06-19T06:11:41Z</time>
      </trkpt>
      <trkpt lat="43.16601" lon="1.86532">
        <ele>321.2</ele>
        <time>2022-06-19T06:11:45Z</time>
      </trkpt>
      <trkpt lat="43.16639" lon="1.86511">
        <ele>320.2</ele>
        <time>2022-06-19T06:11:51Z</time>
      </trkpt>
      <trkpt lat="43.16663" lon="1.86498">
        <ele>319.4</ele>
        <time>2022-06-19T06:11:55Z</time>
      </trkpt>
      <trkpt lat="43.1668" lon="1.86491">
        <ele>319</ele>
        <time>2022-06-19T06:11:58Z</time>
      </trkpt>
      <trkpt lat="43.16713" lon="1.86484">
        <ele>318.6</ele>
        <time>2022-06-19T06:12:04Z</time>
      </trkpt>
      <trkpt lat="43.16745" lon="1.86479">
        <ele>318.4</ele>
        <time>2022-06-19T06:12:10Z</time>
      </trkpt>
      <trkpt lat="43.1678" lon="1.8647">
        <ele>318.8</ele>
        <time>2022-06-19T06:12:17Z</time>
      </trkpt>
      <trkpt lat="43.16816" lon="1.86458">
        <ele>318.6</ele>
        <time>2022-06-19T06:12:23Z</time>
      </trkpt>
      <trkpt lat="43.16859" lon="1.86448">
        <ele>318.8</ele>
        <time>2022-06-19T06:12:31Z</time>
      </trkpt>
      <trkpt lat="43.16912" lon="1.8644">
        <ele>318.6</ele>
        <time>2022-06-19T06:12:39Z</time>
      </trkpt>
      <trkpt lat="43.1695" lon="1.86447">
        <ele>318.2</ele>
        <time>2022-06-19T06:12:45Z</time>
      </trkpt>
      <trkpt lat="43.16968" lon="1.86453">
        <ele>318.2</ele>
        <time>2022-06-19T06:12:48Z</time>
      </trkpt>
      <trkpt lat="43.17002" lon="1.86466">
        <ele>318</ele>
        <time>2022-06-19T06:12:54Z</time>
      </trkpt>
      <trkpt lat="43.17049" lon="1.86494">
        <ele>318.2</ele>
        <time>2022-06-19T06:13:02Z</time>
      </trkpt>
      <trkpt lat="43.17102" lon="1.86531">
        <ele>317.4</ele>
        <time>2022-06-19T06:13:11Z</time>
      </trkpt>
      <trkpt lat="43.17126" lon="1.86547">
        <ele>317</ele>
        <time>2022-06-19T06:13:15Z</time>
      </trkpt>
      <trkpt lat="43.17152" lon="1.8656">
        <ele>316.8</ele>
        <time>2022-06-19T06:13:19Z</time>
      </trkpt>
      <trkpt lat="43.17191" lon="1.8658">
        <ele>316</ele>
        <time>2022-06-19T06:13:25Z</time>
      </trkpt>
      <trkpt lat="43.17205" lon="1.86583">
        <ele>316</ele>
        <time>2022-06-19T06:13:27Z</time>
      </trkpt>
      <trkpt lat="43.17211" lon="1.86583">
        <ele>316</ele>
        <time>2022-06-19T06:13:28Z</time>
      </trkpt>
      <trkpt lat="43.17218" lon="1.86582">
        <ele>315.8</ele>
        <time>2022-06-19T06:13:29Z</time>
      </trkpt>
      <trkpt lat="43.17231" lon="1.86576">
        <ele>315.6</ele>
        <time>2022-06-19T06:13:31Z</time>
      </trkpt>
      <trkpt lat="43.17256" lon="1.86558">
        <ele>315.2</ele>
        <time>2022-06-19T06:13:36Z</time>
      </trkpt>
      <trkpt lat="43.17294" lon="1.86534">
        <ele>315</ele>
        <time>2022-06-19T06:13:43Z</time>
      </trkpt>
      <trkpt lat="43.17333" lon="1.86508">
        <ele>315</ele>
        <time>2022-06-19T06:13:51Z</time>
      </trkpt>
      <trkpt lat="43.17337" lon="1.86504">
        <ele>315</ele>
        <time>2022-06-19T06:13:52Z</time>
      </trkpt>
      <trkpt lat="43.1735" lon="1.86488">
        <ele>315</ele>
        <time>2022-06-19T06:13:56Z</time>
      </trkpt>
      <trkpt lat="43.17365" lon="1.8647">
        <ele>315.6</ele>
        <time>2022-06-19T06:14:02Z</time>
      </trkpt>
      <trkpt lat="43.17372" lon="1.86462">
        <ele>316.4</ele>
        <time>2022-06-19T06:14:05Z</time>
      </trkpt>
      <trkpt lat="43.17381" lon="1.86453">
        <ele>317.4</ele>
        <time>2022-06-19T06:14:09Z</time>
      </trkpt>
      <trkpt lat="43.17383" lon="1.86451">
        <ele>317.4</ele>
        <time>2022-06-19T06:14:10Z</time>
      </trkpt>
      <trkpt lat="43.17391" lon="1.86439">
        <ele>318.6</ele>
        <time>2022-06-19T06:14:14Z</time>
      </trkpt>
      <trkpt lat="43.17396" lon="1.86434">
        <ele>319</ele>
        <time>2022-06-19T06:14:16Z</time>
      </trkpt>
      <trkpt lat="43.17401" lon="1.86425">
        <ele>319.8</ele>
        <time>2022-06-19T06:14:19Z</time>
      </trkpt>
      <trkpt lat="43.1741" lon="1.8641">
        <ele>320.6</ele>
        <time>2022-06-19T06:14:24Z</time>
      </trkpt>
      <trkpt lat="43.17412" lon="1.86407">
        <ele>321</ele>
        <time>2022-06-19T06:14:25Z</time>
      </trkpt>
      <trkpt lat="43.17413" lon="1.86405">
        <ele>321.2</ele>
        <time>2022-06-19T06:14:26Z</time>
      </trkpt>
      <trkpt lat="43.17415" lon="1.86404">
        <ele>321.4</ele>
        <time>2022-06-19T06:14:28Z</time>
      </trkpt>
      <trkpt lat="43.17418" lon="1.86404">
        <ele>321.6</ele>
        <time>2022-06-19T06:14:29Z</time>
      </trkpt>
      <trkpt lat="43.1742" lon="1.86409">
        <ele>322</ele>
        <time>2022-06-19T06:14:31Z</time>
      </trkpt>
      <trkpt lat="43.1742" lon="1.86412">
        <ele>322</ele>
        <time>2022-06-19T06:14:32Z</time>
      </trkpt>
      <trkpt lat="43.17421" lon="1.86432">
        <ele>323</ele>
        <time>2022-06-19T06:14:39Z</time>
      </trkpt>
      <trkpt lat="43.17421" lon="1.86435">
        <ele>323.2</ele>
        <time>2022-06-19T06:14:40Z</time>
      </trkpt>
      <trkpt lat="43.17422" lon="1.86454">
        <ele>323.8</ele>
        <time>2022-06-19T06:14:46Z</time>
      </trkpt>
      <trkpt lat="43.17424" lon="1.8646">
        <ele>323.6</ele>
        <time>2022-06-19T06:14:48Z</time>
      </trkpt>
      <trkpt lat="43.17428" lon="1.86467">
        <ele>323.6</ele>
        <time>2022-06-19T06:14:51Z</time>
      </trkpt>
      <trkpt lat="43.17429" lon="1.86467">
        <ele>323.6</ele>
        <time>2022-06-19T06:14:52Z</time>
      </trkpt>
      <trkpt lat="43.1743" lon="1.86465">
        <ele>323.6</ele>
        <time>2022-06-19T06:14:54Z</time>
      </trkpt>
      <trkpt lat="43.17424" lon="1.86459">
        <ele>323.6</ele>
        <time>2022-06-19T06:14:58Z</time>
      </trkpt>
      <trkpt lat="43.17421" lon="1.86446">
        <ele>323.6</ele>
        <time>2022-06-19T06:15:02Z</time>
      </trkpt>
      <trkpt lat="43.17421" lon="1.86438">
        <ele>323.6</ele>
        <time>2022-06-19T06:15:04Z</time>
      </trkpt>
      <trkpt lat="43.17419" lon="1.86423">
        <ele>324.2</ele>
        <time>2022-06-19T06:15:11Z</time>
      </trkpt>
      <trkpt lat="43.17419" lon="1.86422">
        <ele>324.4</ele>
        <time>2022-06-19T06:15:12Z</time>
      </trkpt>
      <trkpt lat="43.17419" lon="1.86422">
        <ele>324.4</ele>
        <time>2022-06-19T06:15:13Z</time>
      </trkpt>
      <trkpt lat="43.17418" lon="1.86419">
        <ele>325</ele>
        <time>2022-06-19T06:15:43Z</time>
      </trkpt>
      <trkpt lat="43.17418" lon="1.86416">
        <ele>325</ele>
        <time>2022-06-19T06:15:44Z</time>
      </trkpt>
      <trkpt lat="43.1742" lon="1.86392">
        <ele>325</ele>
        <time>2022-06-19T06:15:49Z</time>
      </trkpt>
      <trkpt lat="43.17421" lon="1.86383">
        <ele>325</ele>
        <time>2022-06-19T06:15:51Z</time>
      </trkpt>
      <trkpt lat="43.17427" lon="1.86363">
        <ele>325.2</ele>
        <time>2022-06-19T06:15:56Z</time>
      </trkpt>
      <trkpt lat="43.17427" lon="1.86342">
        <ele>325.4</ele>
        <time>2022-06-19T06:16:01Z</time>
      </trkpt>
      <trkpt lat="43.17426" lon="1.86322">
        <ele>326.2</ele>
        <time>2022-06-19T06:16:06Z</time>
      </trkpt>
      <trkpt lat="43.17425" lon="1.86314">
        <ele>326.4</ele>
        <time>2022-06-19T06:16:08Z</time>
      </trkpt>
      <trkpt lat="43.17422" lon="1.86293">
        <ele>327.2</ele>
        <time>2022-06-19T06:16:13Z</time>
      </trkpt>
      <trkpt lat="43.17421" lon="1.86285">
        <ele>327.6</ele>
        <time>2022-06-19T06:16:15Z</time>
      </trkpt>
      <trkpt lat="43.17419" lon="1.86266">
        <ele>328.4</ele>
        <time>2022-06-19T06:16:21Z</time>
      </trkpt>
      <trkpt lat="43.17418" lon="1.86261">
        <ele>328.8</ele>
        <time>2022-06-19T06:16:23Z</time>
      </trkpt>
      <trkpt lat="43.17417" lon="1.86252">
        <ele>329.6</ele>
        <time>2022-06-19T06:16:27Z</time>
      </trkpt>
      <trkpt lat="43.17416" lon="1.86247">
        <ele>329.8</ele>
        <time>2022-06-19T06:16:29Z</time>
      </trkpt>
      <trkpt lat="43.17413" lon="1.86233">
        <ele>330.6</ele>
        <time>2022-06-19T06:16:35Z</time>
      </trkpt>
      <trkpt lat="43.17413" lon="1.8624">
        <ele>331</ele>
        <time>2022-06-19T06:16:38Z</time>
      </trkpt>
      <trkpt lat="43.17413" lon="1.86243">
        <ele>331</ele>
        <time>2022-06-19T06:16:39Z</time>
      </trkpt>
      <trkpt lat="43.17413" lon="1.86246">
        <ele>331</ele>
        <time>2022-06-19T06:16:40Z</time>
      </trkpt>
      <trkpt lat="43.17409" lon="1.8625">
        <ele>331.2</ele>
        <time>2022-06-19T06:16:42Z</time>
      </trkpt>
      <trkpt lat="43.17402" lon="1.86244">
        <ele>331.2</ele>
        <time>2022-06-19T06:16:45Z</time>
      </trkpt>
      <trkpt lat="43.17394" lon="1.86232">
        <ele>331.4</ele>
        <time>2022-06-19T06:16:50Z</time>
      </trkpt>
      <trkpt lat="43.17392" lon="1.86232">
        <ele>331.2</ele>
        <time>2022-06-19T06:16:54Z</time>
      </trkpt>
      <trkpt lat="43.17396" lon="1.86238">
        <ele>333.2</ele>
        <time>2022-06-19T06:21:01Z</time>
      </trkpt>
      <trkpt lat="43.1741" lon="1.86251">
        <ele>333.2</ele>
        <time>2022-06-19T06:21:07Z</time>
      </trkpt>
      <trkpt lat="43.17418" lon="1.86263">
        <ele>333.2</ele>
        <time>2022-06-19T06:21:12Z</time>
      </trkpt>
      <trkpt lat="43.17418" lon="1.86286">
        <ele>333</ele>
        <time>2022-06-19T06:21:17Z</time>
      </trkpt>
      <trkpt lat="43.17417" lon="1.86315">
        <ele>332.8</ele>
        <time>2022-06-19T06:21:22Z</time>
      </trkpt>
      <trkpt lat="43.17418" lon="1.86341">
        <ele>332.6</ele>
        <time>2022-06-19T06:21:26Z</time>
      </trkpt>
      <trkpt lat="43.1742" lon="1.86353">
        <ele>332.4</ele>
        <time>2022-06-19T06:21:28Z</time>
      </trkpt>
      <trkpt lat="43.17421" lon="1.86358">
        <ele>332.2</ele>
        <time>2022-06-19T06:21:29Z</time>
      </trkpt>
      <trkpt lat="43.17423" lon="1.86363">
        <ele>332.2</ele>
        <time>2022-06-19T06:21:30Z</time>
      </trkpt>
      <trkpt lat="43.17429" lon="1.86371">
        <ele>332</ele>
        <time>2022-06-19T06:21:32Z</time>
      </trkpt>
      <trkpt lat="43.17431" lon="1.86373">
        <ele>332</ele>
        <time>2022-06-19T06:21:33Z</time>
      </trkpt>
      <trkpt lat="43.17444" lon="1.86381">
        <ele>331.2</ele>
        <time>2022-06-19T06:21:37Z</time>
      </trkpt>
      <trkpt lat="43.1745" lon="1.86383">
        <ele>330.8</ele>
        <time>2022-06-19T06:21:39Z</time>
      </trkpt>
      <trkpt lat="43.17478" lon="1.86385">
        <ele>330.4</ele>
        <time>2022-06-19T06:21:45Z</time>
      </trkpt>
      <trkpt lat="43.17483" lon="1.86385">
        <ele>330.2</ele>
        <time>2022-06-19T06:21:46Z</time>
      </trkpt>
      <trkpt lat="43.17494" lon="1.86385">
        <ele>330</ele>
        <time>2022-06-19T06:21:48Z</time>
      </trkpt>
      <trkpt lat="43.17516" lon="1.86385">
        <ele>329.8</ele>
        <time>2022-06-19T06:21:52Z</time>
      </trkpt>
      <trkpt lat="43.17556" lon="1.86387">
        <ele>329.2</ele>
        <time>2022-06-19T06:21:57Z</time>
      </trkpt>
      <trkpt lat="43.17575" lon="1.86388">
        <ele>328.8</ele>
        <time>2022-06-19T06:21:59Z</time>
      </trkpt>
      <trkpt lat="43.17605" lon="1.86388">
        <ele>328.6</ele>
        <time>2022-06-19T06:22:02Z</time>
      </trkpt>
      <trkpt lat="43.17628" lon="1.86389">
        <ele>327.8</ele>
        <time>2022-06-19T06:22:05Z</time>
      </trkpt>
      <trkpt lat="43.17667" lon="1.8639">
        <ele>326.6</ele>
        <time>2022-06-19T06:22:08Z</time>
      </trkpt>
      <trkpt lat="43.17675" lon="1.86392">
        <ele>326.4</ele>
        <time>2022-06-19T06:22:09Z</time>
      </trkpt>
      <trkpt lat="43.17688" lon="1.86403">
        <ele>325.2</ele>
        <time>2022-06-19T06:22:11Z</time>
      </trkpt>
      <trkpt lat="43.17693" lon="1.86411">
        <ele>325</ele>
        <time>2022-06-19T06:22:12Z</time>
      </trkpt>
      <trkpt lat="43.17696" lon="1.86423">
        <ele>324.6</ele>
        <time>2022-06-19T06:22:13Z</time>
      </trkpt>
      <trkpt lat="43.17696" lon="1.86434">
        <ele>324.4</ele>
        <time>2022-06-19T06:22:14Z</time>
      </trkpt>
      <trkpt lat="43.17695" lon="1.86454">
        <ele>323.8</ele>
        <time>2022-06-19T06:22:16Z</time>
      </trkpt>
      <trkpt lat="43.17694" lon="1.86474">
        <ele>323.2</ele>
        <time>2022-06-19T06:22:18Z</time>
      </trkpt>
      <trkpt lat="43.17695" lon="1.86481">
        <ele>322.8</ele>
        <time>2022-06-19T06:22:19Z</time>
      </trkpt>
      <trkpt lat="43.17697" lon="1.86485">
        <ele>322.4</ele>
        <time>2022-06-19T06:22:20Z</time>
      </trkpt>
      <trkpt lat="43.17701" lon="1.86486">
        <ele>321.8</ele>
        <time>2022-06-19T06:22:22Z</time>
      </trkpt>
      <trkpt lat="43.17703" lon="1.86484">
        <ele>321.2</ele>
        <time>2022-06-19T06:22:23Z</time>
      </trkpt>
      <trkpt lat="43.17707" lon="1.86478">
        <ele>320.2</ele>
        <time>2022-06-19T06:22:25Z</time>
      </trkpt>
      <trkpt lat="43.17711" lon="1.86469">
        <ele>318.6</ele>
        <time>2022-06-19T06:22:28Z</time>
      </trkpt>
      <trkpt lat="43.17716" lon="1.86457">
        <ele>317.4</ele>
        <time>2022-06-19T06:22:31Z</time>
      </trkpt>
      <trkpt lat="43.17721" lon="1.86446">
        <ele>316.2</ele>
        <time>2022-06-19T06:22:33Z</time>
      </trkpt>
      <trkpt lat="43.1773" lon="1.86427">
        <ele>315.2</ele>
        <time>2022-06-19T06:22:36Z</time>
      </trkpt>
      <trkpt lat="43.17738" lon="1.86414">
        <ele>314.2</ele>
        <time>2022-06-19T06:22:38Z</time>
      </trkpt>
      <trkpt lat="43.17744" lon="1.86405">
        <ele>313.6</ele>
        <time>2022-06-19T06:22:39Z</time>
      </trkpt>
      <trkpt lat="43.17757" lon="1.86383">
        <ele>312.6</ele>
        <time>2022-06-19T06:22:42Z</time>
      </trkpt>
      <trkpt lat="43.17768" lon="1.86366">
        <ele>311.8</ele>
        <time>2022-06-19T06:22:44Z</time>
      </trkpt>
      <trkpt lat="43.17774" lon="1.86356">
        <ele>311.4</ele>
        <time>2022-06-19T06:22:45Z</time>
      </trkpt>
      <trkpt lat="43.17793" lon="1.86318">
        <ele>310.2</ele>
        <time>2022-06-19T06:22:49Z</time>
      </trkpt>
      <trkpt lat="43.17798" lon="1.86305">
        <ele>310</ele>
        <time>2022-06-19T06:22:50Z</time>
      </trkpt>
      <trkpt lat="43.1781" lon="1.8627">
        <ele>309</ele>
        <time>2022-06-19T06:22:53Z</time>
      </trkpt>
      <trkpt lat="43.17817" lon="1.86248">
        <ele>308.2</ele>
        <time>2022-06-19T06:22:55Z</time>
      </trkpt>
      <trkpt lat="43.17821" lon="1.86232">
        <ele>307.8</ele>
        <time>2022-06-19T06:22:56Z</time>
      </trkpt>
      <trkpt lat="43.1783" lon="1.86192">
        <ele>306.8</ele>
        <time>2022-06-19T06:22:59Z</time>
      </trkpt>
      <trkpt lat="43.17831" lon="1.86177">
        <ele>306.4</ele>
        <time>2022-06-19T06:23:00Z</time>
      </trkpt>
      <trkpt lat="43.17833" lon="1.86162">
        <ele>305.6</ele>
        <time>2022-06-19T06:23:01Z</time>
      </trkpt>
      <trkpt lat="43.17833" lon="1.86118">
        <ele>304.4</ele>
        <time>2022-06-19T06:23:04Z</time>
      </trkpt>
      <trkpt lat="43.17828" lon="1.86073">
        <ele>303.4</ele>
        <time>2022-06-19T06:23:07Z</time>
      </trkpt>
      <trkpt lat="43.17822" lon="1.86027">
        <ele>302.4</ele>
        <time>2022-06-19T06:23:10Z</time>
      </trkpt>
      <trkpt lat="43.17816" lon="1.85981">
        <ele>301.2</ele>
        <time>2022-06-19T06:23:13Z</time>
      </trkpt>
      <trkpt lat="43.17815" lon="1.85949">
        <ele>300.4</ele>
        <time>2022-06-19T06:23:15Z</time>
      </trkpt>
      <trkpt lat="43.17816" lon="1.85934">
        <ele>300</ele>
        <time>2022-06-19T06:23:16Z</time>
      </trkpt>
      <trkpt lat="43.17819" lon="1.85919">
        <ele>299.4</ele>
        <time>2022-06-19T06:23:17Z</time>
      </trkpt>
      <trkpt lat="43.17824" lon="1.85904">
        <ele>299</ele>
        <time>2022-06-19T06:23:18Z</time>
      </trkpt>
      <trkpt lat="43.17829" lon="1.8589">
        <ele>298.6</ele>
        <time>2022-06-19T06:23:19Z</time>
      </trkpt>
      <trkpt lat="43.17842" lon="1.85848">
        <ele>297.4</ele>
        <time>2022-06-19T06:23:22Z</time>
      </trkpt>
      <trkpt lat="43.17844" lon="1.85833">
        <ele>297</ele>
        <time>2022-06-19T06:23:23Z</time>
      </trkpt>
      <trkpt lat="43.17847" lon="1.85804">
        <ele>296.2</ele>
        <time>2022-06-19T06:23:25Z</time>
      </trkpt>
      <trkpt lat="43.17847" lon="1.85774">
        <ele>295</ele>
        <time>2022-06-19T06:23:27Z</time>
      </trkpt>
      <trkpt lat="43.17847" lon="1.8576">
        <ele>294.8</ele>
        <time>2022-06-19T06:23:28Z</time>
      </trkpt>
      <trkpt lat="43.17848" lon="1.85733">
        <ele>294</ele>
        <time>2022-06-19T06:23:30Z</time>
      </trkpt>
      <trkpt lat="43.17848" lon="1.85695">
        <ele>293</ele>
        <time>2022-06-19T06:23:33Z</time>
      </trkpt>
      <trkpt lat="43.17849" lon="1.85683">
        <ele>292.8</ele>
        <time>2022-06-19T06:23:34Z</time>
      </trkpt>
      <trkpt lat="43.17855" lon="1.85664">
        <ele>292.4</ele>
        <time>2022-06-19T06:23:36Z</time>
      </trkpt>
      <trkpt lat="43.17868" lon="1.85655">
        <ele>292.2</ele>
        <time>2022-06-19T06:23:38Z</time>
      </trkpt>
      <trkpt lat="43.17876" lon="1.85651">
        <ele>292</ele>
        <time>2022-06-19T06:23:39Z</time>
      </trkpt>
      <trkpt lat="43.17885" lon="1.85649">
        <ele>291.6</ele>
        <time>2022-06-19T06:23:40Z</time>
      </trkpt>
      <trkpt lat="43.17909" lon="1.85638">
        <ele>290.6</ele>
        <time>2022-06-19T06:23:43Z</time>
      </trkpt>
      <trkpt lat="43.17933" lon="1.85628">
        <ele>289.8</ele>
        <time>2022-06-19T06:23:46Z</time>
      </trkpt>
      <trkpt lat="43.17941" lon="1.85625">
        <ele>289</ele>
        <time>2022-06-19T06:23:47Z</time>
      </trkpt>
      <trkpt lat="43.17972" lon="1.85611">
        <ele>288.2</ele>
        <time>2022-06-19T06:23:51Z</time>
      </trkpt>
      <trkpt lat="43.18001" lon="1.85598">
        <ele>287.4</ele>
        <time>2022-06-19T06:23:55Z</time>
      </trkpt>
      <trkpt lat="43.18016" lon="1.8559">
        <ele>287</ele>
        <time>2022-06-19T06:23:57Z</time>
      </trkpt>
      <trkpt lat="43.18051" lon="1.85573">
        <ele>285.8</ele>
        <time>2022-06-19T06:24:02Z</time>
      </trkpt>
      <trkpt lat="43.18079" lon="1.85559">
        <ele>285.4</ele>
        <time>2022-06-19T06:24:06Z</time>
      </trkpt>
      <trkpt lat="43.18132" lon="1.85533">
        <ele>284.8</ele>
        <time>2022-06-19T06:24:14Z</time>
      </trkpt>
      <trkpt lat="43.18139" lon="1.8553">
        <ele>284.8</ele>
        <time>2022-06-19T06:24:15Z</time>
      </trkpt>
      <trkpt lat="43.18145" lon="1.85527">
        <ele>284.6</ele>
        <time>2022-06-19T06:24:16Z</time>
      </trkpt>
      <trkpt lat="43.18184" lon="1.85508">
        <ele>284.4</ele>
        <time>2022-06-19T06:24:23Z</time>
      </trkpt>
      <trkpt lat="43.18198" lon="1.85502">
        <ele>284.8</ele>
        <time>2022-06-19T06:24:27Z</time>
      </trkpt>
      <trkpt lat="43.18221" lon="1.8549">
        <ele>285.2</ele>
        <time>2022-06-19T06:24:32Z</time>
      </trkpt>
      <trkpt lat="43.18257" lon="1.85473">
        <ele>285</ele>
        <time>2022-06-19T06:24:38Z</time>
      </trkpt>
      <trkpt lat="43.183" lon="1.8545">
        <ele>284.4</ele>
        <time>2022-06-19T06:24:45Z</time>
      </trkpt>
      <trkpt lat="43.18329" lon="1.85436">
        <ele>284</ele>
        <time>2022-06-19T06:24:50Z</time>
      </trkpt>
      <trkpt lat="43.1834" lon="1.8543">
        <ele>283.8</ele>
        <time>2022-06-19T06:24:52Z</time>
      </trkpt>
      <trkpt lat="43.18396" lon="1.85402">
        <ele>284</ele>
        <time>2022-06-19T06:25:02Z</time>
      </trkpt>
      <trkpt lat="43.18401" lon="1.85399">
        <ele>284</ele>
        <time>2022-06-19T06:25:03Z</time>
      </trkpt>
      <trkpt lat="43.1845" lon="1.85367">
        <ele>284</ele>
        <time>2022-06-19T06:25:13Z</time>
      </trkpt>
      <trkpt lat="43.18486" lon="1.85341">
        <ele>283.8</ele>
        <time>2022-06-19T06:25:22Z</time>
      </trkpt>
      <trkpt lat="43.18504" lon="1.85329">
        <ele>284</ele>
        <time>2022-06-19T06:25:27Z</time>
      </trkpt>
      <trkpt lat="43.18526" lon="1.85313">
        <ele>284.8</ele>
        <time>2022-06-19T06:25:34Z</time>
      </trkpt>
      <trkpt lat="43.18536" lon="1.85307">
        <ele>285</ele>
        <time>2022-06-19T06:25:37Z</time>
      </trkpt>
      <trkpt lat="43.1855" lon="1.85298">
        <ele>285.4</ele>
        <time>2022-06-19T06:25:42Z</time>
      </trkpt>
      <trkpt lat="43.18558" lon="1.85293">
        <ele>286</ele>
        <time>2022-06-19T06:25:45Z</time>
      </trkpt>
      <trkpt lat="43.18573" lon="1.85286">
        <ele>287</ele>
        <time>2022-06-19T06:25:51Z</time>
      </trkpt>
      <trkpt lat="43.18575" lon="1.85285">
        <ele>287.2</ele>
        <time>2022-06-19T06:25:52Z</time>
      </trkpt>
      <trkpt lat="43.18592" lon="1.85279">
        <ele>288.2</ele>
        <time>2022-06-19T06:25:59Z</time>
      </trkpt>
      <trkpt lat="43.18606" lon="1.85277">
        <ele>289.4</ele>
        <time>2022-06-19T06:26:05Z</time>
      </trkpt>
      <trkpt lat="43.18612" lon="1.85277">
        <ele>290</ele>
        <time>2022-06-19T06:26:08Z</time>
      </trkpt>
      <trkpt lat="43.18616" lon="1.85278">
        <ele>290.4</ele>
        <time>2022-06-19T06:26:10Z</time>
      </trkpt>
      <trkpt lat="43.18626" lon="1.8528">
        <ele>291.4</ele>
        <time>2022-06-19T06:26:15Z</time>
      </trkpt>
      <trkpt lat="43.18634" lon="1.85283">
        <ele>292.4</ele>
        <time>2022-06-19T06:26:19Z</time>
      </trkpt>
      <trkpt lat="43.18636" lon="1.85284">
        <ele>292.8</ele>
        <time>2022-06-19T06:26:20Z</time>
      </trkpt>
      <trkpt lat="43.18645" lon="1.85288">
        <ele>294</ele>
        <time>2022-06-19T06:26:25Z</time>
      </trkpt>
      <trkpt lat="43.18647" lon="1.85288">
        <ele>294</ele>
        <time>2022-06-19T06:26:26Z</time>
      </trkpt>
      <trkpt lat="43.18652" lon="1.85291">
        <ele>295</ele>
        <time>2022-06-19T06:26:29Z</time>
      </trkpt>
      <trkpt lat="43.1866" lon="1.85294">
        <ele>296.2</ele>
        <time>2022-06-19T06:26:33Z</time>
      </trkpt>
      <trkpt lat="43.18668" lon="1.85299">
        <ele>297.6</ele>
        <time>2022-06-19T06:26:38Z</time>
      </trkpt>
      <trkpt lat="43.18674" lon="1.85303">
        <ele>298.2</ele>
        <time>2022-06-19T06:26:41Z</time>
      </trkpt>
      <trkpt lat="43.18681" lon="1.85307">
        <ele>298.6</ele>
        <time>2022-06-19T06:26:44Z</time>
      </trkpt>
      <trkpt lat="43.1869" lon="1.85309">
        <ele>299.4</ele>
        <time>2022-06-19T06:26:48Z</time>
      </trkpt>
      <trkpt lat="43.18699" lon="1.85311">
        <ele>299.8</ele>
        <time>2022-06-19T06:26:52Z</time>
      </trkpt>
      <trkpt lat="43.18709" lon="1.85316">
        <ele>300.8</ele>
        <time>2022-06-19T06:26:58Z</time>
      </trkpt>
      <trkpt lat="43.18711" lon="1.85317">
        <ele>301</ele>
        <time>2022-06-19T06:26:59Z</time>
      </trkpt>
      <trkpt lat="43.18725" lon="1.85324">
        <ele>302</ele>
        <time>2022-06-19T06:27:07Z</time>
      </trkpt>
      <trkpt lat="43.18727" lon="1.85325">
        <ele>302.2</ele>
        <time>2022-06-19T06:27:08Z</time>
      </trkpt>
      <trkpt lat="43.18738" lon="1.8533">
        <ele>303</ele>
        <time>2022-06-19T06:27:14Z</time>
      </trkpt>
      <trkpt lat="43.18745" lon="1.85333">
        <ele>303.8</ele>
        <time>2022-06-19T06:27:18Z</time>
      </trkpt>
      <trkpt lat="43.18749" lon="1.85335">
        <ele>304.2</ele>
        <time>2022-06-19T06:27:20Z</time>
      </trkpt>
      <trkpt lat="43.18758" lon="1.85338">
        <ele>305</ele>
        <time>2022-06-19T06:27:25Z</time>
      </trkpt>
      <trkpt lat="43.18763" lon="1.85341">
        <ele>305.4</ele>
        <time>2022-06-19T06:27:28Z</time>
      </trkpt>
      <trkpt lat="43.18774" lon="1.85346">
        <ele>306.4</ele>
        <time>2022-06-19T06:27:34Z</time>
      </trkpt>
      <trkpt lat="43.18786" lon="1.85351">
        <ele>307.4</ele>
        <time>2022-06-19T06:27:41Z</time>
      </trkpt>
      <trkpt lat="43.18787" lon="1.85351">
        <ele>307.6</ele>
        <time>2022-06-19T06:27:42Z</time>
      </trkpt>
      <trkpt lat="43.188" lon="1.85357">
        <ele>308.6</ele>
        <time>2022-06-19T06:27:49Z</time>
      </trkpt>
      <trkpt lat="43.18803" lon="1.85358">
        <ele>308.8</ele>
        <time>2022-06-19T06:27:51Z</time>
      </trkpt>
      <trkpt lat="43.18813" lon="1.85362">
        <ele>309.8</ele>
        <time>2022-06-19T06:27:57Z</time>
      </trkpt>
      <trkpt lat="43.18823" lon="1.85367">
        <ele>311</ele>
        <time>2022-06-19T06:28:03Z</time>
      </trkpt>
      <trkpt lat="43.18825" lon="1.85368">
        <ele>311</ele>
        <time>2022-06-19T06:28:04Z</time>
      </trkpt>
      <trkpt lat="43.1884" lon="1.85374">
        <ele>312</ele>
        <time>2022-06-19T06:28:12Z</time>
      </trkpt>
      <trkpt lat="43.18848" lon="1.85377">
        <ele>312.8</ele>
        <time>2022-06-19T06:28:16Z</time>
      </trkpt>
      <trkpt lat="43.18851" lon="1.85379">
        <ele>313.2</ele>
        <time>2022-06-19T06:28:18Z</time>
      </trkpt>
      <trkpt lat="43.1886" lon="1.85382">
        <ele>314.2</ele>
        <time>2022-06-19T06:28:23Z</time>
      </trkpt>
      <trkpt lat="43.18872" lon="1.85388">
        <ele>315.2</ele>
        <time>2022-06-19T06:28:30Z</time>
      </trkpt>
      <trkpt lat="43.18886" lon="1.85394">
        <ele>316.6</ele>
        <time>2022-06-19T06:28:38Z</time>
      </trkpt>
      <trkpt lat="43.1889" lon="1.85396">
        <ele>317</ele>
        <time>2022-06-19T06:28:40Z</time>
      </trkpt>
      <trkpt lat="43.18895" lon="1.85397">
        <ele>317.6</ele>
        <time>2022-06-19T06:28:43Z</time>
      </trkpt>
      <trkpt lat="43.18904" lon="1.85402">
        <ele>318.6</ele>
        <time>2022-06-19T06:28:48Z</time>
      </trkpt>
      <trkpt lat="43.18906" lon="1.85402">
        <ele>318.6</ele>
        <time>2022-06-19T06:28:49Z</time>
      </trkpt>
      <trkpt lat="43.18916" lon="1.85408">
        <ele>319.8</ele>
        <time>2022-06-19T06:28:55Z</time>
      </trkpt>
      <trkpt lat="43.1892" lon="1.8541">
        <ele>320.2</ele>
        <time>2022-06-19T06:28:57Z</time>
      </trkpt>
      <trkpt lat="43.18928" lon="1.85413">
        <ele>321.2</ele>
        <time>2022-06-19T06:29:02Z</time>
      </trkpt>
      <trkpt lat="43.18932" lon="1.85414">
        <ele>321.8</ele>
        <time>2022-06-19T06:29:05Z</time>
      </trkpt>
      <trkpt lat="43.18935" lon="1.85416">
        <ele>322.2</ele>
        <time>2022-06-19T06:29:07Z</time>
      </trkpt>
      <trkpt lat="43.18937" lon="1.85417">
        <ele>322.6</ele>
        <time>2022-06-19T06:29:08Z</time>
      </trkpt>
      <trkpt lat="43.1894" lon="1.85418">
        <ele>322.8</ele>
        <time>2022-06-19T06:29:10Z</time>
      </trkpt>
      <trkpt lat="43.18946" lon="1.85418">
        <ele>323.4</ele>
        <time>2022-06-19T06:29:13Z</time>
      </trkpt>
      <trkpt lat="43.18954" lon="1.85415">
        <ele>324</ele>
        <time>2022-06-19T06:29:17Z</time>
      </trkpt>
      <trkpt lat="43.18963" lon="1.8541">
        <ele>324.6</ele>
        <time>2022-06-19T06:29:22Z</time>
      </trkpt>
      <trkpt lat="43.18966" lon="1.85407">
        <ele>325</ele>
        <time>2022-06-19T06:29:24Z</time>
      </trkpt>
      <trkpt lat="43.18968" lon="1.85403">
        <ele>325.4</ele>
        <time>2022-06-19T06:29:26Z</time>
      </trkpt>
      <trkpt lat="43.1897" lon="1.85398">
        <ele>325.8</ele>
        <time>2022-06-19T06:29:28Z</time>
      </trkpt>
      <trkpt lat="43.18972" lon="1.85393">
        <ele>326.4</ele>
        <time>2022-06-19T06:29:30Z</time>
      </trkpt>
      <trkpt lat="43.18975" lon="1.85383">
        <ele>326.8</ele>
        <time>2022-06-19T06:29:34Z</time>
      </trkpt>
      <trkpt lat="43.1898" lon="1.85372">
        <ele>327.6</ele>
        <time>2022-06-19T06:29:39Z</time>
      </trkpt>
      <trkpt lat="43.18983" lon="1.85367">
        <ele>328</ele>
        <time>2022-06-19T06:29:41Z</time>
      </trkpt>
      <trkpt lat="43.18987" lon="1.85358">
        <ele>328.8</ele>
        <time>2022-06-19T06:29:45Z</time>
      </trkpt>
      <trkpt lat="43.18989" lon="1.85353">
        <ele>329.2</ele>
        <time>2022-06-19T06:29:47Z</time>
      </trkpt>
      <trkpt lat="43.18994" lon="1.85341">
        <ele>329.8</ele>
        <time>2022-06-19T06:29:52Z</time>
      </trkpt>
      <trkpt lat="43.18997" lon="1.85334">
        <ele>330.4</ele>
        <time>2022-06-19T06:29:55Z</time>
      </trkpt>
      <trkpt lat="43.19001" lon="1.85327">
        <ele>331.2</ele>
        <time>2022-06-19T06:29:58Z</time>
      </trkpt>
      <trkpt lat="43.19006" lon="1.85316">
        <ele>332.4</ele>
        <time>2022-06-19T06:30:03Z</time>
      </trkpt>
      <trkpt lat="43.19012" lon="1.85306">
        <ele>333.4</ele>
        <time>2022-06-19T06:30:08Z</time>
      </trkpt>
      <trkpt lat="43.19014" lon="1.85301">
        <ele>334</ele>
        <time>2022-06-19T06:30:10Z</time>
      </trkpt>
      <trkpt lat="43.19018" lon="1.85294">
        <ele>334.4</ele>
        <time>2022-06-19T06:30:14Z</time>
      </trkpt>
      <trkpt lat="43.19026" lon="1.8528">
        <ele>335.4</ele>
        <time>2022-06-19T06:30:20Z</time>
      </trkpt>
      <trkpt lat="43.19032" lon="1.85268">
        <ele>336.4</ele>
        <time>2022-06-19T06:30:25Z</time>
      </trkpt>
      <trkpt lat="43.19034" lon="1.85266">
        <ele>336.6</ele>
        <time>2022-06-19T06:30:26Z</time>
      </trkpt>
      <trkpt lat="43.19038" lon="1.85252">
        <ele>337.6</ele>
        <time>2022-06-19T06:30:31Z</time>
      </trkpt>
      <trkpt lat="43.1904" lon="1.85248">
        <ele>337.8</ele>
        <time>2022-06-19T06:30:33Z</time>
      </trkpt>
      <trkpt lat="43.19044" lon="1.8524">
        <ele>338.6</ele>
        <time>2022-06-19T06:30:36Z</time>
      </trkpt>
      <trkpt lat="43.1905" lon="1.85231">
        <ele>339.6</ele>
        <time>2022-06-19T06:30:40Z</time>
      </trkpt>
      <trkpt lat="43.19052" lon="1.85227">
        <ele>340</ele>
        <time>2022-06-19T06:30:42Z</time>
      </trkpt>
      <trkpt lat="43.19057" lon="1.8522">
        <ele>340.8</ele>
        <time>2022-06-19T06:30:45Z</time>
      </trkpt>
      <trkpt lat="43.19061" lon="1.8521">
        <ele>341.4</ele>
        <time>2022-06-19T06:30:49Z</time>
      </trkpt>
      <trkpt lat="43.19064" lon="1.85203">
        <ele>342</ele>
        <time>2022-06-19T06:30:52Z</time>
      </trkpt>
      <trkpt lat="43.19067" lon="1.85193">
        <ele>342.6</ele>
        <time>2022-06-19T06:30:56Z</time>
      </trkpt>
      <trkpt lat="43.19069" lon="1.85186">
        <ele>343.2</ele>
        <time>2022-06-19T06:30:59Z</time>
      </trkpt>
      <trkpt lat="43.19074" lon="1.85174">
        <ele>343.8</ele>
        <time>2022-06-19T06:31:03Z</time>
      </trkpt>
      <trkpt lat="43.19077" lon="1.85166">
        <ele>344.4</ele>
        <time>2022-06-19T06:31:06Z</time>
      </trkpt>
      <trkpt lat="43.19081" lon="1.85154">
        <ele>345.6</ele>
        <time>2022-06-19T06:31:10Z</time>
      </trkpt>
      <trkpt lat="43.1909" lon="1.85137">
        <ele>346.6</ele>
        <time>2022-06-19T06:31:15Z</time>
      </trkpt>
      <trkpt lat="43.19092" lon="1.85134">
        <ele>346.8</ele>
        <time>2022-06-19T06:31:16Z</time>
      </trkpt>
      <trkpt lat="43.19094" lon="1.85132">
        <ele>347</ele>
        <time>2022-06-19T06:31:17Z</time>
      </trkpt>
      <trkpt lat="43.19101" lon="1.85123">
        <ele>347.8</ele>
        <time>2022-06-19T06:31:21Z</time>
      </trkpt>
      <trkpt lat="43.19107" lon="1.85118">
        <ele>348.6</ele>
        <time>2022-06-19T06:31:24Z</time>
      </trkpt>
      <trkpt lat="43.19109" lon="1.85117">
        <ele>348.8</ele>
        <time>2022-06-19T06:31:25Z</time>
      </trkpt>
      <trkpt lat="43.19124" lon="1.85111">
        <ele>349.8</ele>
        <time>2022-06-19T06:31:31Z</time>
      </trkpt>
      <trkpt lat="43.19127" lon="1.8511">
        <ele>350</ele>
        <time>2022-06-19T06:31:32Z</time>
      </trkpt>
      <trkpt lat="43.19135" lon="1.85105">
        <ele>351.2</ele>
        <time>2022-06-19T06:31:36Z</time>
      </trkpt>
      <trkpt lat="43.1914" lon="1.85105">
        <ele>352</ele>
        <time>2022-06-19T06:31:39Z</time>
      </trkpt>
      <trkpt lat="43.19143" lon="1.85104">
        <ele>352.4</ele>
        <time>2022-06-19T06:31:41Z</time>
      </trkpt>
      <trkpt lat="43.19151" lon="1.85103">
        <ele>353.6</ele>
        <time>2022-06-19T06:31:46Z</time>
      </trkpt>
      <trkpt lat="43.19152" lon="1.85102">
        <ele>353.8</ele>
        <time>2022-06-19T06:31:47Z</time>
      </trkpt>
      <trkpt lat="43.19158" lon="1.85102">
        <ele>354.6</ele>
        <time>2022-06-19T06:31:51Z</time>
      </trkpt>
      <trkpt lat="43.19162" lon="1.85101">
        <ele>355.6</ele>
        <time>2022-06-19T06:31:54Z</time>
      </trkpt>
      <trkpt lat="43.19163" lon="1.85101">
        <ele>355.8</ele>
        <time>2022-06-19T06:31:55Z</time>
      </trkpt>
      <trkpt lat="43.19168" lon="1.851">
        <ele>356.6</ele>
        <time>2022-06-19T06:31:58Z</time>
      </trkpt>
      <trkpt lat="43.19171" lon="1.85101">
        <ele>357</ele>
        <time>2022-06-19T06:32:00Z</time>
      </trkpt>
      <trkpt lat="43.1918" lon="1.85101">
        <ele>358.2</ele>
        <time>2022-06-19T06:32:05Z</time>
      </trkpt>
      <trkpt lat="43.19186" lon="1.85098">
        <ele>358.6</ele>
        <time>2022-06-19T06:32:08Z</time>
      </trkpt>
      <trkpt lat="43.19192" lon="1.85096">
        <ele>359.4</ele>
        <time>2022-06-19T06:32:11Z</time>
      </trkpt>
      <trkpt lat="43.192" lon="1.85095">
        <ele>360.6</ele>
        <time>2022-06-19T06:32:16Z</time>
      </trkpt>
      <trkpt lat="43.19202" lon="1.85098">
        <ele>361</ele>
        <time>2022-06-19T06:32:18Z</time>
      </trkpt>
      <trkpt lat="43.19201" lon="1.85101">
        <ele>361.6</ele>
        <time>2022-06-19T06:32:20Z</time>
      </trkpt>
      <trkpt lat="43.19198" lon="1.85107">
        <ele>362.6</ele>
        <time>2022-06-19T06:32:23Z</time>
      </trkpt>
      <trkpt lat="43.19197" lon="1.85112">
        <ele>362.8</ele>
        <time>2022-06-19T06:32:25Z</time>
      </trkpt>
      <trkpt lat="43.19197" lon="1.85114">
        <ele>363</ele>
        <time>2022-06-19T06:32:26Z</time>
      </trkpt>
      <trkpt lat="43.19198" lon="1.85127">
        <ele>363.8</ele>
        <time>2022-06-19T06:32:32Z</time>
      </trkpt>
      <trkpt lat="43.192" lon="1.85128">
        <ele>364</ele>
        <time>2022-06-19T06:32:33Z</time>
      </trkpt>
      <trkpt lat="43.19201" lon="1.85128">
        <ele>364</ele>
        <time>2022-06-19T06:32:34Z</time>
      </trkpt>
      <trkpt lat="43.19203" lon="1.85126">
        <ele>364.4</ele>
        <time>2022-06-19T06:32:36Z</time>
      </trkpt>
      <trkpt lat="43.19204" lon="1.85125">
        <ele>364.4</ele>
        <time>2022-06-19T06:32:37Z</time>
      </trkpt>
      <trkpt lat="43.19204" lon="1.85122">
        <ele>364.8</ele>
        <time>2022-06-19T06:32:42Z</time>
      </trkpt>
      <trkpt lat="43.19204" lon="1.85122">
        <ele>365</ele>
        <time>2022-06-19T06:32:43Z</time>
      </trkpt>
      <trkpt lat="43.19206" lon="1.85114">
        <ele>366</ele>
        <time>2022-06-19T06:33:01Z</time>
      </trkpt>
      <trkpt lat="43.19207" lon="1.851">
        <ele>365.6</ele>
        <time>2022-06-19T06:33:09Z</time>
      </trkpt>
      <trkpt lat="43.19209" lon="1.85089">
        <ele>365.4</ele>
        <time>2022-06-19T06:33:16Z</time>
      </trkpt>
      <trkpt lat="43.19211" lon="1.85088">
        <ele>365.4</ele>
        <time>2022-06-19T06:33:18Z</time>
      </trkpt>
      <trkpt lat="43.1922" lon="1.85084">
        <ele>365.6</ele>
        <time>2022-06-19T06:33:24Z</time>
      </trkpt>
      <trkpt lat="43.19223" lon="1.85082">
        <ele>365.8</ele>
        <time>2022-06-19T06:33:27Z</time>
      </trkpt>
      <trkpt lat="43.19229" lon="1.85078">
        <ele>366.2</ele>
        <time>2022-06-19T06:33:34Z</time>
      </trkpt>
      <trkpt lat="43.19229" lon="1.85077">
        <ele>366.2</ele>
        <time>2022-06-19T06:33:36Z</time>
      </trkpt>
      <trkpt lat="43.19232" lon="1.85072">
        <ele>366.6</ele>
        <time>2022-06-19T06:33:41Z</time>
      </trkpt>
      <trkpt lat="43.19235" lon="1.85073">
        <ele>366.6</ele>
        <time>2022-06-19T06:33:43Z</time>
      </trkpt>
      <trkpt lat="43.19239" lon="1.85073">
        <ele>366.8</ele>
        <time>2022-06-19T06:33:45Z</time>
      </trkpt>
      <trkpt lat="43.19243" lon="1.85072">
        <ele>366.8</ele>
        <time>2022-06-19T06:33:46Z</time>
      </trkpt>
      <trkpt lat="43.19248" lon="1.8507">
        <ele>366.8</ele>
        <time>2022-06-19T06:33:47Z</time>
      </trkpt>
      <trkpt lat="43.19264" lon="1.8506">
        <ele>367</ele>
        <time>2022-06-19T06:33:50Z</time>
      </trkpt>
      <trkpt lat="43.1927" lon="1.85057">
        <ele>367.2</ele>
        <time>2022-06-19T06:33:51Z</time>
      </trkpt>
      <trkpt lat="43.19285" lon="1.85051">
        <ele>367.2</ele>
        <time>2022-06-19T06:33:53Z</time>
      </trkpt>
      <trkpt lat="43.19292" lon="1.8505">
        <ele>367.2</ele>
        <time>2022-06-19T06:33:54Z</time>
      </trkpt>
      <trkpt lat="43.19309" lon="1.85049">
        <ele>366.8</ele>
        <time>2022-06-19T06:33:56Z</time>
      </trkpt>
      <trkpt lat="43.19326" lon="1.85053">
        <ele>366.4</ele>
        <time>2022-06-19T06:33:58Z</time>
      </trkpt>
      <trkpt lat="43.19358" lon="1.85066">
        <ele>365.6</ele>
        <time>2022-06-19T06:34:02Z</time>
      </trkpt>
      <trkpt lat="43.19366" lon="1.85068">
        <ele>365.4</ele>
        <time>2022-06-19T06:34:03Z</time>
      </trkpt>
      <trkpt lat="43.19375" lon="1.85067">
        <ele>365.2</ele>
        <time>2022-06-19T06:34:04Z</time>
      </trkpt>
      <trkpt lat="43.19399" lon="1.85061">
        <ele>364.4</ele>
        <time>2022-06-19T06:34:07Z</time>
      </trkpt>
      <trkpt lat="43.19424" lon="1.85058">
        <ele>364</ele>
        <time>2022-06-19T06:34:10Z</time>
      </trkpt>
      <trkpt lat="43.19433" lon="1.8506">
        <ele>363.6</ele>
        <time>2022-06-19T06:34:11Z</time>
      </trkpt>
      <trkpt lat="43.19442" lon="1.85062">
        <ele>363.4</ele>
        <time>2022-06-19T06:34:12Z</time>
      </trkpt>
      <trkpt lat="43.19458" lon="1.85072">
        <ele>362.8</ele>
        <time>2022-06-19T06:34:14Z</time>
      </trkpt>
      <trkpt lat="43.19466" lon="1.85079">
        <ele>362.6</ele>
        <time>2022-06-19T06:34:15Z</time>
      </trkpt>
      <trkpt lat="43.19472" lon="1.85087">
        <ele>362.2</ele>
        <time>2022-06-19T06:34:16Z</time>
      </trkpt>
      <trkpt lat="43.19484" lon="1.85105">
        <ele>361.8</ele>
        <time>2022-06-19T06:34:18Z</time>
      </trkpt>
      <trkpt lat="43.1949" lon="1.85114">
        <ele>361.4</ele>
        <time>2022-06-19T06:34:19Z</time>
      </trkpt>
      <trkpt lat="43.19502" lon="1.85132">
        <ele>360.6</ele>
        <time>2022-06-19T06:34:21Z</time>
      </trkpt>
      <trkpt lat="43.19527" lon="1.85166">
        <ele>359.8</ele>
        <time>2022-06-19T06:34:25Z</time>
      </trkpt>
      <trkpt lat="43.19533" lon="1.85172">
        <ele>359.4</ele>
        <time>2022-06-19T06:34:26Z</time>
      </trkpt>
      <trkpt lat="43.19548" lon="1.85179">
        <ele>359</ele>
        <time>2022-06-19T06:34:28Z</time>
      </trkpt>
      <trkpt lat="43.19555" lon="1.8518">
        <ele>359</ele>
        <time>2022-06-19T06:34:29Z</time>
      </trkpt>
      <trkpt lat="43.19562" lon="1.8518">
        <ele>358.8</ele>
        <time>2022-06-19T06:34:30Z</time>
      </trkpt>
      <trkpt lat="43.19568" lon="1.85179">
        <ele>358.6</ele>
        <time>2022-06-19T06:34:31Z</time>
      </trkpt>
      <trkpt lat="43.19574" lon="1.85175">
        <ele>358.4</ele>
        <time>2022-06-19T06:34:32Z</time>
      </trkpt>
      <trkpt lat="43.19588" lon="1.85157">
        <ele>357.6</ele>
        <time>2022-06-19T06:34:35Z</time>
      </trkpt>
      <trkpt lat="43.19593" lon="1.8515">
        <ele>357.6</ele>
        <time>2022-06-19T06:34:36Z</time>
      </trkpt>
      <trkpt lat="43.19617" lon="1.85119">
        <ele>356.4</ele>
        <time>2022-06-19T06:34:40Z</time>
      </trkpt>
      <trkpt lat="43.19623" lon="1.85109">
        <ele>356.2</ele>
        <time>2022-06-19T06:34:41Z</time>
      </trkpt>
      <trkpt lat="43.19646" lon="1.85062">
        <ele>355</ele>
        <time>2022-06-19T06:34:45Z</time>
      </trkpt>
      <trkpt lat="43.1965" lon="1.85048">
        <ele>354.6</ele>
        <time>2022-06-19T06:34:46Z</time>
      </trkpt>
      <trkpt lat="43.19656" lon="1.85018">
        <ele>353.6</ele>
        <time>2022-06-19T06:34:48Z</time>
      </trkpt>
      <trkpt lat="43.19663" lon="1.84986">
        <ele>352.6</ele>
        <time>2022-06-19T06:34:50Z</time>
      </trkpt>
      <trkpt lat="43.19667" lon="1.84971">
        <ele>352</ele>
        <time>2022-06-19T06:34:51Z</time>
      </trkpt>
      <trkpt lat="43.19672" lon="1.84955">
        <ele>351.4</ele>
        <time>2022-06-19T06:34:52Z</time>
      </trkpt>
      <trkpt lat="43.19683" lon="1.84925">
        <ele>349.8</ele>
        <time>2022-06-19T06:34:54Z</time>
      </trkpt>
      <trkpt lat="43.19694" lon="1.84895">
        <ele>348.2</ele>
        <time>2022-06-19T06:34:56Z</time>
      </trkpt>
      <trkpt lat="43.19705" lon="1.84869">
        <ele>346.4</ele>
        <time>2022-06-19T06:34:58Z</time>
      </trkpt>
      <trkpt lat="43.19711" lon="1.84858">
        <ele>345.4</ele>
        <time>2022-06-19T06:34:59Z</time>
      </trkpt>
      <trkpt lat="43.19716" lon="1.84849">
        <ele>344.8</ele>
        <time>2022-06-19T06:35:00Z</time>
      </trkpt>
      <trkpt lat="43.1972" lon="1.84841">
        <ele>344</ele>
        <time>2022-06-19T06:35:01Z</time>
      </trkpt>
      <trkpt lat="43.19723" lon="1.84834">
        <ele>343</ele>
        <time>2022-06-19T06:35:02Z</time>
      </trkpt>
      <trkpt lat="43.19724" lon="1.84827">
        <ele>341.4</ele>
        <time>2022-06-19T06:35:03Z</time>
      </trkpt>
      <trkpt lat="43.19722" lon="1.8482">
        <ele>340.8</ele>
        <time>2022-06-19T06:35:04Z</time>
      </trkpt>
      <trkpt lat="43.1972" lon="1.84818">
        <ele>339.6</ele>
        <time>2022-06-19T06:35:05Z</time>
      </trkpt>
      <trkpt lat="43.19717" lon="1.84817">
        <ele>338</ele>
        <time>2022-06-19T06:35:06Z</time>
      </trkpt>
      <trkpt lat="43.19713" lon="1.84818">
        <ele>336</ele>
        <time>2022-06-19T06:35:08Z</time>
      </trkpt>
      <trkpt lat="43.19709" lon="1.84821">
        <ele>334.4</ele>
        <time>2022-06-19T06:35:10Z</time>
      </trkpt>
      <trkpt lat="43.19706" lon="1.84825">
        <ele>333</ele>
        <time>2022-06-19T06:35:12Z</time>
      </trkpt>
      <trkpt lat="43.19704" lon="1.84827">
        <ele>332</ele>
        <time>2022-06-19T06:35:13Z</time>
      </trkpt>
      <trkpt lat="43.197" lon="1.84832">
        <ele>330.6</ele>
        <time>2022-06-19T06:35:15Z</time>
      </trkpt>
      <trkpt lat="43.19694" lon="1.84836">
        <ele>329.2</ele>
        <time>2022-06-19T06:35:17Z</time>
      </trkpt>
      <trkpt lat="43.19691" lon="1.84836">
        <ele>328.8</ele>
        <time>2022-06-19T06:35:18Z</time>
      </trkpt>
      <trkpt lat="43.19688" lon="1.84835">
        <ele>328</ele>
        <time>2022-06-19T06:35:19Z</time>
      </trkpt>
      <trkpt lat="43.19687" lon="1.8483">
        <ele>327.2</ele>
        <time>2022-06-19T06:35:20Z</time>
      </trkpt>
      <trkpt lat="43.19687" lon="1.84827">
        <ele>326.8</ele>
        <time>2022-06-19T06:35:21Z</time>
      </trkpt>
      <trkpt lat="43.19689" lon="1.84823">
        <ele>326</ele>
        <time>2022-06-19T06:35:22Z</time>
      </trkpt>
      <trkpt lat="43.19693" lon="1.84818">
        <ele>325.6</ele>
        <time>2022-06-19T06:35:23Z</time>
      </trkpt>
      <trkpt lat="43.197" lon="1.84812">
        <ele>324</ele>
        <time>2022-06-19T06:35:25Z</time>
      </trkpt>
      <trkpt lat="43.19703" lon="1.84808">
        <ele>323.6</ele>
        <time>2022-06-19T06:35:26Z</time>
      </trkpt>
      <trkpt lat="43.19708" lon="1.84803">
        <ele>322.8</ele>
        <time>2022-06-19T06:35:27Z</time>
      </trkpt>
      <trkpt lat="43.19722" lon="1.84785">
        <ele>321.6</ele>
        <time>2022-06-19T06:35:30Z</time>
      </trkpt>
      <trkpt lat="43.19727" lon="1.84778">
        <ele>320.6</ele>
        <time>2022-06-19T06:35:31Z</time>
      </trkpt>
      <trkpt lat="43.19732" lon="1.8477">
        <ele>320.2</ele>
        <time>2022-06-19T06:35:32Z</time>
      </trkpt>
      <trkpt lat="43.19751" lon="1.84744">
        <ele>319</ele>
        <time>2022-06-19T06:35:35Z</time>
      </trkpt>
      <trkpt lat="43.19778" lon="1.84724">
        <ele>317.8</ele>
        <time>2022-06-19T06:35:38Z</time>
      </trkpt>
      <trkpt lat="43.19807" lon="1.84707">
        <ele>316.2</ele>
        <time>2022-06-19T06:35:41Z</time>
      </trkpt>
      <trkpt lat="43.19817" lon="1.84702">
        <ele>315.8</ele>
        <time>2022-06-19T06:35:42Z</time>
      </trkpt>
      <trkpt lat="43.19827" lon="1.847">
        <ele>315</ele>
        <time>2022-06-19T06:35:43Z</time>
      </trkpt>
      <trkpt lat="43.19845" lon="1.84698">
        <ele>313.6</ele>
        <time>2022-06-19T06:35:45Z</time>
      </trkpt>
      <trkpt lat="43.1986" lon="1.84696">
        <ele>312.6</ele>
        <time>2022-06-19T06:35:47Z</time>
      </trkpt>
      <trkpt lat="43.19876" lon="1.84696">
        <ele>311.2</ele>
        <time>2022-06-19T06:35:50Z</time>
      </trkpt>
      <trkpt lat="43.1988" lon="1.84696">
        <ele>311</ele>
        <time>2022-06-19T06:35:51Z</time>
      </trkpt>
      <trkpt lat="43.19886" lon="1.84695">
        <ele>310</ele>
        <time>2022-06-19T06:35:53Z</time>
      </trkpt>
      <trkpt lat="43.19894" lon="1.84695">
        <ele>309.6</ele>
        <time>2022-06-19T06:35:56Z</time>
      </trkpt>
      <trkpt lat="43.19902" lon="1.84694">
        <ele>309.2</ele>
        <time>2022-06-19T06:35:59Z</time>
      </trkpt>
      <trkpt lat="43.19907" lon="1.84694">
        <ele>309</ele>
        <time>2022-06-19T06:36:01Z</time>
      </trkpt>
      <trkpt lat="43.19909" lon="1.84694">
        <ele>309</ele>
        <time>2022-06-19T06:36:02Z</time>
      </trkpt>
      <trkpt lat="43.19927" lon="1.84693">
        <ele>309</ele>
        <time>2022-06-19T06:36:11Z</time>
      </trkpt>
      <trkpt lat="43.19941" lon="1.84692">
        <ele>309.6</ele>
        <time>2022-06-19T06:36:19Z</time>
      </trkpt>
      <trkpt lat="43.19957" lon="1.84692">
        <ele>310.2</ele>
        <time>2022-06-19T06:36:28Z</time>
      </trkpt>
      <trkpt lat="43.1997" lon="1.84691">
        <ele>311.4</ele>
        <time>2022-06-19T06:36:35Z</time>
      </trkpt>
      <trkpt lat="43.19972" lon="1.84691">
        <ele>311.4</ele>
        <time>2022-06-19T06:36:36Z</time>
      </trkpt>
      <trkpt lat="43.1998" lon="1.8469">
        <ele>312.4</ele>
        <time>2022-06-19T06:36:41Z</time>
      </trkpt>
      <trkpt lat="43.19982" lon="1.84691">
        <ele>312.6</ele>
        <time>2022-06-19T06:36:42Z</time>
      </trkpt>
      <trkpt lat="43.19989" lon="1.8469">
        <ele>313.4</ele>
        <time>2022-06-19T06:36:46Z</time>
      </trkpt>
      <trkpt lat="43.19995" lon="1.84689">
        <ele>314.2</ele>
        <time>2022-06-19T06:36:50Z</time>
      </trkpt>
      <trkpt lat="43.19997" lon="1.84688">
        <ele>314.6</ele>
        <time>2022-06-19T06:36:51Z</time>
      </trkpt>
      <trkpt lat="43.20008" lon="1.84688">
        <ele>315.4</ele>
        <time>2022-06-19T06:36:57Z</time>
      </trkpt>
      <trkpt lat="43.2001" lon="1.84688">
        <ele>315.6</ele>
        <time>2022-06-19T06:36:58Z</time>
      </trkpt>
      <trkpt lat="43.20019" lon="1.84687">
        <ele>316.8</ele>
        <time>2022-06-19T06:37:04Z</time>
      </trkpt>
      <trkpt lat="43.20023" lon="1.84687">
        <ele>317.2</ele>
        <time>2022-06-19T06:37:06Z</time>
      </trkpt>
      <trkpt lat="43.2003" lon="1.84686">
        <ele>317.8</ele>
        <time>2022-06-19T06:37:10Z</time>
      </trkpt>
      <trkpt lat="43.20034" lon="1.84686">
        <ele>318.6</ele>
        <time>2022-06-19T06:37:13Z</time>
      </trkpt>
      <trkpt lat="43.20039" lon="1.84686">
        <ele>319</ele>
        <time>2022-06-19T06:37:16Z</time>
      </trkpt>
      <trkpt lat="43.20047" lon="1.84686">
        <ele>319.8</ele>
        <time>2022-06-19T06:37:21Z</time>
      </trkpt>
      <trkpt lat="43.20049" lon="1.84686">
        <ele>320.2</ele>
        <time>2022-06-19T06:37:22Z</time>
      </trkpt>
      <trkpt lat="43.20058" lon="1.84685">
        <ele>320.8</ele>
        <time>2022-06-19T06:37:27Z</time>
      </trkpt>
      <trkpt lat="43.20061" lon="1.84685">
        <ele>321.2</ele>
        <time>2022-06-19T06:37:29Z</time>
      </trkpt>
      <trkpt lat="43.20075" lon="1.84682">
        <ele>322.2</ele>
        <time>2022-06-19T06:37:37Z</time>
      </trkpt>
      <trkpt lat="43.20085" lon="1.84681">
        <ele>323.2</ele>
        <time>2022-06-19T06:37:44Z</time>
      </trkpt>
      <trkpt lat="43.20088" lon="1.84681">
        <ele>323.6</ele>
        <time>2022-06-19T06:37:46Z</time>
      </trkpt>
      <trkpt lat="43.20095" lon="1.8468">
        <ele>324.4</ele>
        <time>2022-06-19T06:37:50Z</time>
      </trkpt>
      <trkpt lat="43.20105" lon="1.84678">
        <ele>325.4</ele>
        <time>2022-06-19T06:37:55Z</time>
      </trkpt>
      <trkpt lat="43.20108" lon="1.84678">
        <ele>325.4</ele>
        <time>2022-06-19T06:37:56Z</time>
      </trkpt>
      <trkpt lat="43.20119" lon="1.84677">
        <ele>326.6</ele>
        <time>2022-06-19T06:38:02Z</time>
      </trkpt>
      <trkpt lat="43.20125" lon="1.84676">
        <ele>327.2</ele>
        <time>2022-06-19T06:38:05Z</time>
      </trkpt>
      <trkpt lat="43.20129" lon="1.84676">
        <ele>327.8</ele>
        <time>2022-06-19T06:38:07Z</time>
      </trkpt>
      <trkpt lat="43.20139" lon="1.84677">
        <ele>328.8</ele>
        <time>2022-06-19T06:38:12Z</time>
      </trkpt>
      <trkpt lat="43.2014" lon="1.84677">
        <ele>329</ele>
        <time>2022-06-19T06:38:13Z</time>
      </trkpt>
      <trkpt lat="43.20142" lon="1.84677">
        <ele>329.4</ele>
        <time>2022-06-19T06:38:14Z</time>
      </trkpt>
      <trkpt lat="43.20149" lon="1.84679">
        <ele>329.8</ele>
        <time>2022-06-19T06:38:18Z</time>
      </trkpt>
      <trkpt lat="43.20156" lon="1.84679">
        <ele>330.4</ele>
        <time>2022-06-19T06:38:22Z</time>
      </trkpt>
      <trkpt lat="43.20161" lon="1.8468">
        <ele>331.2</ele>
        <time>2022-06-19T06:38:25Z</time>
      </trkpt>
      <trkpt lat="43.20174" lon="1.84681">
        <ele>331.6</ele>
        <time>2022-06-19T06:38:31Z</time>
      </trkpt>
      <trkpt lat="43.20182" lon="1.84681">
        <ele>332</ele>
        <time>2022-06-19T06:38:35Z</time>
      </trkpt>
      <trkpt lat="43.20196" lon="1.8468">
        <ele>333</ele>
        <time>2022-06-19T06:38:42Z</time>
      </trkpt>
      <trkpt lat="43.20198" lon="1.8468">
        <ele>333.2</ele>
        <time>2022-06-19T06:38:43Z</time>
      </trkpt>
      <trkpt lat="43.20217" lon="1.84676">
        <ele>334.2</ele>
        <time>2022-06-19T06:38:52Z</time>
      </trkpt>
      <trkpt lat="43.20219" lon="1.84676">
        <ele>334.4</ele>
        <time>2022-06-19T06:38:53Z</time>
      </trkpt>
      <trkpt lat="43.2023" lon="1.84675">
        <ele>335.4</ele>
        <time>2022-06-19T06:38:58Z</time>
      </trkpt>
      <trkpt lat="43.20246" lon="1.84672">
        <ele>336.6</ele>
        <time>2022-06-19T06:39:05Z</time>
      </trkpt>
      <trkpt lat="43.20249" lon="1.84672">
        <ele>336.6</ele>
        <time>2022-06-19T06:39:06Z</time>
      </trkpt>
      <trkpt lat="43.20263" lon="1.84669">
        <ele>337.6</ele>
        <time>2022-06-19T06:39:12Z</time>
      </trkpt>
      <trkpt lat="43.20273" lon="1.84667">
        <ele>338.4</ele>
        <time>2022-06-19T06:39:16Z</time>
      </trkpt>
      <trkpt lat="43.20277" lon="1.84666">
        <ele>338.8</ele>
        <time>2022-06-19T06:39:18Z</time>
      </trkpt>
      <trkpt lat="43.20287" lon="1.84664">
        <ele>340</ele>
        <time>2022-06-19T06:39:22Z</time>
      </trkpt>
      <trkpt lat="43.20298" lon="1.84662">
        <ele>340.8</ele>
        <time>2022-06-19T06:39:27Z</time>
      </trkpt>
      <trkpt lat="43.20307" lon="1.84659">
        <ele>341.2</ele>
        <time>2022-06-19T06:39:31Z</time>
      </trkpt>
      <trkpt lat="43.20315" lon="1.84656">
        <ele>341.6</ele>
        <time>2022-06-19T06:39:35Z</time>
      </trkpt>
      <trkpt lat="43.20325" lon="1.84653">
        <ele>342.2</ele>
        <time>2022-06-19T06:39:40Z</time>
      </trkpt>
      <trkpt lat="43.20331" lon="1.84648">
        <ele>343</ele>
        <time>2022-06-19T06:39:44Z</time>
      </trkpt>
      <trkpt lat="43.20333" lon="1.84648">
        <ele>343.4</ele>
        <time>2022-06-19T06:39:45Z</time>
      </trkpt>
      <trkpt lat="43.20345" lon="1.84641">
        <ele>344.4</ele>
        <time>2022-06-19T06:39:52Z</time>
      </trkpt>
      <trkpt lat="43.20357" lon="1.84633">
        <ele>345.6</ele>
        <time>2022-06-19T06:39:58Z</time>
      </trkpt>
      <trkpt lat="43.20363" lon="1.84628">
        <ele>346.4</ele>
        <time>2022-06-19T06:40:02Z</time>
      </trkpt>
      <trkpt lat="43.20364" lon="1.84628">
        <ele>346.6</ele>
        <time>2022-06-19T06:40:03Z</time>
      </trkpt>
      <trkpt lat="43.20371" lon="1.84622">
        <ele>347.4</ele>
        <time>2022-06-19T06:40:09Z</time>
      </trkpt>
      <trkpt lat="43.20373" lon="1.8462">
        <ele>347.6</ele>
        <time>2022-06-19T06:40:11Z</time>
      </trkpt>
      <trkpt lat="43.2038" lon="1.84615">
        <ele>348</ele>
        <time>2022-06-19T06:40:17Z</time>
      </trkpt>
      <trkpt lat="43.20386" lon="1.84609">
        <ele>348</ele>
        <time>2022-06-19T06:40:23Z</time>
      </trkpt>
      <trkpt lat="43.20397" lon="1.84596">
        <ele>347.8</ele>
        <time>2022-06-19T06:40:33Z</time>
      </trkpt>
      <trkpt lat="43.20411" lon="1.84577">
        <ele>347.2</ele>
        <time>2022-06-19T06:40:40Z</time>
      </trkpt>
      <trkpt lat="43.20421" lon="1.84571">
        <ele>347</ele>
        <time>2022-06-19T06:40:44Z</time>
      </trkpt>
      <trkpt lat="43.20424" lon="1.8457">
        <ele>347</ele>
        <time>2022-06-19T06:40:45Z</time>
      </trkpt>
      <trkpt lat="43.20442" lon="1.84575">
        <ele>347.2</ele>
        <time>2022-06-19T06:40:50Z</time>
      </trkpt>
      <trkpt lat="43.20469" lon="1.84577">
        <ele>347.2</ele>
        <time>2022-06-19T06:40:58Z</time>
      </trkpt>
      <trkpt lat="43.20494" lon="1.84575">
        <ele>346.8</ele>
        <time>2022-06-19T06:41:06Z</time>
      </trkpt>
      <trkpt lat="43.20513" lon="1.84576">
        <ele>347.2</ele>
        <time>2022-06-19T06:41:13Z</time>
      </trkpt>
      <trkpt lat="43.20541" lon="1.84576">
        <ele>347.4</ele>
        <time>2022-06-19T06:41:20Z</time>
      </trkpt>
      <trkpt lat="43.20556" lon="1.84578">
        <ele>347.4</ele>
        <time>2022-06-19T06:41:23Z</time>
      </trkpt>
      <trkpt lat="43.20571" lon="1.84583">
        <ele>347.4</ele>
        <time>2022-06-19T06:41:26Z</time>
      </trkpt>
      <trkpt lat="43.20611" lon="1.84598">
        <ele>347.6</ele>
        <time>2022-06-19T06:41:34Z</time>
      </trkpt>
      <trkpt lat="43.20645" lon="1.84611">
        <ele>347.6</ele>
        <time>2022-06-19T06:41:39Z</time>
      </trkpt>
      <trkpt lat="43.20692" lon="1.84628">
        <ele>347.2</ele>
        <time>2022-06-19T06:41:45Z</time>
      </trkpt>
      <trkpt lat="43.20712" lon="1.84637">
        <ele>346.8</ele>
        <time>2022-06-19T06:41:48Z</time>
      </trkpt>
      <trkpt lat="43.20731" lon="1.84645">
        <ele>346.4</ele>
        <time>2022-06-19T06:41:51Z</time>
      </trkpt>
      <trkpt lat="43.20763" lon="1.84656">
        <ele>346</ele>
        <time>2022-06-19T06:41:57Z</time>
      </trkpt>
      <trkpt lat="43.20781" lon="1.84663">
        <ele>345.8</ele>
        <time>2022-06-19T06:42:01Z</time>
      </trkpt>
      <trkpt lat="43.20792" lon="1.84667">
        <ele>345.6</ele>
        <time>2022-06-19T06:42:04Z</time>
      </trkpt>
      <trkpt lat="43.20825" lon="1.84679">
        <ele>345.4</ele>
        <time>2022-06-19T06:42:12Z</time>
      </trkpt>
      <trkpt lat="43.2083" lon="1.84681">
        <ele>345.4</ele>
        <time>2022-06-19T06:42:13Z</time>
      </trkpt>
      <trkpt lat="43.20837" lon="1.84685">
        <ele>345.4</ele>
        <time>2022-06-19T06:42:15Z</time>
      </trkpt>
      <trkpt lat="43.2085" lon="1.84688">
        <ele>345.6</ele>
        <time>2022-06-19T06:42:18Z</time>
      </trkpt>
      <trkpt lat="43.20872" lon="1.8469">
        <ele>346.4</ele>
        <time>2022-06-19T06:42:23Z</time>
      </trkpt>
      <trkpt lat="43.20879" lon="1.84691">
        <ele>346.8</ele>
        <time>2022-06-19T06:42:25Z</time>
      </trkpt>
      <trkpt lat="43.20883" lon="1.84692">
        <ele>346.8</ele>
        <time>2022-06-19T06:42:26Z</time>
      </trkpt>
      <trkpt lat="43.20887" lon="1.84692">
        <ele>347</ele>
        <time>2022-06-19T06:42:27Z</time>
      </trkpt>
      <trkpt lat="43.20906" lon="1.84695">
        <ele>347.6</ele>
        <time>2022-06-19T06:42:32Z</time>
      </trkpt>
      <trkpt lat="43.20912" lon="1.84695">
        <ele>348</ele>
        <time>2022-06-19T06:42:34Z</time>
      </trkpt>
      <trkpt lat="43.20924" lon="1.84697">
        <ele>348.6</ele>
        <time>2022-06-19T06:42:38Z</time>
      </trkpt>
      <trkpt lat="43.20939" lon="1.84699">
        <ele>349.2</ele>
        <time>2022-06-19T06:42:43Z</time>
      </trkpt>
      <trkpt lat="43.20942" lon="1.84699">
        <ele>349.4</ele>
        <time>2022-06-19T06:42:44Z</time>
      </trkpt>
      <trkpt lat="43.20957" lon="1.84697">
        <ele>350.4</ele>
        <time>2022-06-19T06:42:49Z</time>
      </trkpt>
      <trkpt lat="43.2096" lon="1.84696">
        <ele>350.4</ele>
        <time>2022-06-19T06:42:50Z</time>
      </trkpt>
      <trkpt lat="43.20976" lon="1.84685">
        <ele>351.4</ele>
        <time>2022-06-19T06:42:55Z</time>
      </trkpt>
      <trkpt lat="43.20981" lon="1.84682">
        <ele>351.6</ele>
        <time>2022-06-19T06:42:56Z</time>
      </trkpt>
      <trkpt lat="43.2101" lon="1.84661">
        <ele>352.2</ele>
        <time>2022-06-19T06:43:02Z</time>
      </trkpt>
      <trkpt lat="43.21061" lon="1.84624">
        <ele>352.2</ele>
        <time>2022-06-19T06:43:11Z</time>
      </trkpt>
      <trkpt lat="43.21104" lon="1.84591">
        <ele>351.8</ele>
        <time>2022-06-19T06:43:18Z</time>
      </trkpt>
      <trkpt lat="43.21143" lon="1.84561">
        <ele>351.4</ele>
        <time>2022-06-19T06:43:23Z</time>
      </trkpt>
      <trkpt lat="43.21191" lon="1.84525">
        <ele>350</ele>
        <time>2022-06-19T06:43:28Z</time>
      </trkpt>
      <trkpt lat="43.21222" lon="1.84502">
        <ele>348.6</ele>
        <time>2022-06-19T06:43:31Z</time>
      </trkpt>
      <trkpt lat="43.21251" lon="1.84478">
        <ele>347.4</ele>
        <time>2022-06-19T06:43:34Z</time>
      </trkpt>
      <trkpt lat="43.21261" lon="1.84471">
        <ele>346.4</ele>
        <time>2022-06-19T06:43:35Z</time>
      </trkpt>
      <trkpt lat="43.2127" lon="1.84464">
        <ele>346.2</ele>
        <time>2022-06-19T06:43:36Z</time>
      </trkpt>
      <trkpt lat="43.21289" lon="1.84451">
        <ele>344.6</ele>
        <time>2022-06-19T06:43:38Z</time>
      </trkpt>
      <trkpt lat="43.21309" lon="1.84442">
        <ele>342.4</ele>
        <time>2022-06-19T06:43:40Z</time>
      </trkpt>
      <trkpt lat="43.2133" lon="1.84433">
        <ele>341</ele>
        <time>2022-06-19T06:43:42Z</time>
      </trkpt>
      <trkpt lat="43.2135" lon="1.84423">
        <ele>339.8</ele>
        <time>2022-06-19T06:43:44Z</time>
      </trkpt>
      <trkpt lat="43.2136" lon="1.84416">
        <ele>339</ele>
        <time>2022-06-19T06:43:45Z</time>
      </trkpt>
      <trkpt lat="43.21368" lon="1.84409">
        <ele>338.4</ele>
        <time>2022-06-19T06:43:46Z</time>
      </trkpt>
      <trkpt lat="43.21376" lon="1.844">
        <ele>337</ele>
        <time>2022-06-19T06:43:47Z</time>
      </trkpt>
      <trkpt lat="43.21384" lon="1.84392">
        <ele>336.2</ele>
        <time>2022-06-19T06:43:48Z</time>
      </trkpt>
      <trkpt lat="43.21392" lon="1.84386">
        <ele>335.2</ele>
        <time>2022-06-19T06:43:49Z</time>
      </trkpt>
      <trkpt lat="43.21401" lon="1.84383">
        <ele>334.6</ele>
        <time>2022-06-19T06:43:50Z</time>
      </trkpt>
      <trkpt lat="43.21409" lon="1.84382">
        <ele>334.4</ele>
        <time>2022-06-19T06:43:51Z</time>
      </trkpt>
      <trkpt lat="43.21417" lon="1.84382">
        <ele>333.2</ele>
        <time>2022-06-19T06:43:52Z</time>
      </trkpt>
      <trkpt lat="43.21431" lon="1.84382">
        <ele>331.6</ele>
        <time>2022-06-19T06:43:54Z</time>
      </trkpt>
      <trkpt lat="43.21438" lon="1.84382">
        <ele>331</ele>
        <time>2022-06-19T06:43:55Z</time>
      </trkpt>
      <trkpt lat="43.21449" lon="1.84382">
        <ele>330</ele>
        <time>2022-06-19T06:43:57Z</time>
      </trkpt>
      <trkpt lat="43.21463" lon="1.8438">
        <ele>329.4</ele>
        <time>2022-06-19T06:44:00Z</time>
      </trkpt>
      <trkpt lat="43.21471" lon="1.84378">
        <ele>329</ele>
        <time>2022-06-19T06:44:02Z</time>
      </trkpt>
      <trkpt lat="43.21483" lon="1.84375">
        <ele>328.4</ele>
        <time>2022-06-19T06:44:06Z</time>
      </trkpt>
      <trkpt lat="43.2151" lon="1.84367">
        <ele>328.2</ele>
        <time>2022-06-19T06:44:16Z</time>
      </trkpt>
      <trkpt lat="43.21524" lon="1.84361">
        <ele>329</ele>
        <time>2022-06-19T06:44:23Z</time>
      </trkpt>
      <trkpt lat="43.21541" lon="1.84353">
        <ele>330</ele>
        <time>2022-06-19T06:44:32Z</time>
      </trkpt>
      <trkpt lat="43.21548" lon="1.8435">
        <ele>330.2</ele>
        <time>2022-06-19T06:44:36Z</time>
      </trkpt>
      <trkpt lat="43.21553" lon="1.84347">
        <ele>330.6</ele>
        <time>2022-06-19T06:44:39Z</time>
      </trkpt>
      <trkpt lat="43.21559" lon="1.84344">
        <ele>331.4</ele>
        <time>2022-06-19T06:44:43Z</time>
      </trkpt>
      <trkpt lat="43.21565" lon="1.84341">
        <ele>332.2</ele>
        <time>2022-06-19T06:44:48Z</time>
      </trkpt>
      <trkpt lat="43.21567" lon="1.84339">
        <ele>332.6</ele>
        <time>2022-06-19T06:44:50Z</time>
      </trkpt>
      <trkpt lat="43.21572" lon="1.84336">
        <ele>333.6</ele>
        <time>2022-06-19T06:44:54Z</time>
      </trkpt>
      <trkpt lat="43.21575" lon="1.84335">
        <ele>334</ele>
        <time>2022-06-19T06:44:56Z</time>
      </trkpt>
      <trkpt lat="43.21581" lon="1.84331">
        <ele>334.8</ele>
        <time>2022-06-19T06:45:00Z</time>
      </trkpt>
      <trkpt lat="43.2159" lon="1.84328">
        <ele>335.8</ele>
        <time>2022-06-19T06:45:05Z</time>
      </trkpt>
      <trkpt lat="43.21591" lon="1.84327">
        <ele>336</ele>
        <time>2022-06-19T06:45:06Z</time>
      </trkpt>
      <trkpt lat="43.21597" lon="1.84326">
        <ele>337</ele>
        <time>2022-06-19T06:45:11Z</time>
      </trkpt>
      <trkpt lat="43.21601" lon="1.84326">
        <ele>337.4</ele>
        <time>2022-06-19T06:45:13Z</time>
      </trkpt>
      <trkpt lat="43.21603" lon="1.84327">
        <ele>337.8</ele>
        <time>2022-06-19T06:45:14Z</time>
      </trkpt>
      <trkpt lat="43.21604" lon="1.84328">
        <ele>338.2</ele>
        <time>2022-06-19T06:45:15Z</time>
      </trkpt>
      <trkpt lat="43.21608" lon="1.84334">
        <ele>339</ele>
        <time>2022-06-19T06:45:18Z</time>
      </trkpt>
      <trkpt lat="43.21609" lon="1.84336">
        <ele>339.2</ele>
        <time>2022-06-19T06:45:19Z</time>
      </trkpt>
      <trkpt lat="43.21617" lon="1.8435">
        <ele>340.2</ele>
        <time>2022-06-19T06:45:26Z</time>
      </trkpt>
      <trkpt lat="43.21622" lon="1.84364">
        <ele>341.2</ele>
        <time>2022-06-19T06:45:33Z</time>
      </trkpt>
      <trkpt lat="43.21626" lon="1.84372">
        <ele>341.8</ele>
        <time>2022-06-19T06:45:37Z</time>
      </trkpt>
      <trkpt lat="43.21628" lon="1.84375">
        <ele>342</ele>
        <time>2022-06-19T06:45:39Z</time>
      </trkpt>
      <trkpt lat="43.21629" lon="1.84377">
        <ele>342.4</ele>
        <time>2022-06-19T06:45:40Z</time>
      </trkpt>
      <trkpt lat="43.21629" lon="1.84378">
        <ele>342.4</ele>
        <time>2022-06-19T06:45:41Z</time>
      </trkpt>
      <trkpt lat="43.21632" lon="1.84383">
        <ele>343.2</ele>
        <time>2022-06-19T06:45:45Z</time>
      </trkpt>
      <trkpt lat="43.21635" lon="1.84385">
        <ele>343.4</ele>
        <time>2022-06-19T06:45:47Z</time>
      </trkpt>
      <trkpt lat="43.21637" lon="1.84385">
        <ele>343.4</ele>
        <time>2022-06-19T06:45:49Z</time>
      </trkpt>
      <trkpt lat="43.21638" lon="1.84385">
        <ele>343.4</ele>
        <time>2022-06-19T06:45:50Z</time>
      </trkpt>
      <trkpt lat="43.2164" lon="1.84384">
        <ele>343.4</ele>
        <time>2022-06-19T06:45:51Z</time>
      </trkpt>
      <trkpt lat="43.21643" lon="1.84378">
        <ele>343.2</ele>
        <time>2022-06-19T06:45:55Z</time>
      </trkpt>
      <trkpt lat="43.21644" lon="1.84377">
        <ele>343.2</ele>
        <time>2022-06-19T06:45:56Z</time>
      </trkpt>
      <trkpt lat="43.21645" lon="1.84376">
        <ele>343.2</ele>
        <time>2022-06-19T06:45:57Z</time>
      </trkpt>
      <trkpt lat="43.21646" lon="1.84375">
        <ele>343.2</ele>
        <time>2022-06-19T06:45:59Z</time>
      </trkpt>
      <trkpt lat="43.21663" lon="1.84381">
        <ele>343.2</ele>
        <time>2022-06-19T06:46:06Z</time>
      </trkpt>
      <trkpt lat="43.21688" lon="1.84388">
        <ele>343.2</ele>
        <time>2022-06-19T06:46:10Z</time>
      </trkpt>
      <trkpt lat="43.21715" lon="1.84399">
        <ele>343.2</ele>
        <time>2022-06-19T06:46:13Z</time>
      </trkpt>
      <trkpt lat="43.21756" lon="1.84414">
        <ele>342</ele>
        <time>2022-06-19T06:46:17Z</time>
      </trkpt>
      <trkpt lat="43.21766" lon="1.84417">
        <ele>341.4</ele>
        <time>2022-06-19T06:46:18Z</time>
      </trkpt>
      <trkpt lat="43.21775" lon="1.84418">
        <ele>341</ele>
        <time>2022-06-19T06:46:19Z</time>
      </trkpt>
      <trkpt lat="43.21783" lon="1.84417">
        <ele>340.2</ele>
        <time>2022-06-19T06:46:20Z</time>
      </trkpt>
      <trkpt lat="43.21791" lon="1.84414">
        <ele>340</ele>
        <time>2022-06-19T06:46:21Z</time>
      </trkpt>
      <trkpt lat="43.21798" lon="1.84408">
        <ele>338.8</ele>
        <time>2022-06-19T06:46:22Z</time>
      </trkpt>
      <trkpt lat="43.21812" lon="1.84396">
        <ele>337.4</ele>
        <time>2022-06-19T06:46:24Z</time>
      </trkpt>
      <trkpt lat="43.21819" lon="1.84392">
        <ele>336.8</ele>
        <time>2022-06-19T06:46:25Z</time>
      </trkpt>
      <trkpt lat="43.21829" lon="1.84384">
        <ele>335.8</ele>
        <time>2022-06-19T06:46:27Z</time>
      </trkpt>
      <trkpt lat="43.21843" lon="1.84377">
        <ele>335</ele>
        <time>2022-06-19T06:46:29Z</time>
      </trkpt>
      <trkpt lat="43.21856" lon="1.84373">
        <ele>334.4</ele>
        <time>2022-06-19T06:46:31Z</time>
      </trkpt>
      <trkpt lat="43.21868" lon="1.84368">
        <ele>334.2</ele>
        <time>2022-06-19T06:46:33Z</time>
      </trkpt>
      <trkpt lat="43.21873" lon="1.84363">
        <ele>333.8</ele>
        <time>2022-06-19T06:46:34Z</time>
      </trkpt>
      <trkpt lat="43.21878" lon="1.84357">
        <ele>333.8</ele>
        <time>2022-06-19T06:46:35Z</time>
      </trkpt>
      <trkpt lat="43.2188" lon="1.84352">
        <ele>333.2</ele>
        <time>2022-06-19T06:46:36Z</time>
      </trkpt>
      <trkpt lat="43.21888" lon="1.84336">
        <ele>332.8</ele>
        <time>2022-06-19T06:46:38Z</time>
      </trkpt>
      <trkpt lat="43.21899" lon="1.84311">
        <ele>332.2</ele>
        <time>2022-06-19T06:46:41Z</time>
      </trkpt>
      <trkpt lat="43.21914" lon="1.84286">
        <ele>331.4</ele>
        <time>2022-06-19T06:46:44Z</time>
      </trkpt>
      <trkpt lat="43.21926" lon="1.8427">
        <ele>330.8</ele>
        <time>2022-06-19T06:46:46Z</time>
      </trkpt>
      <trkpt lat="43.21948" lon="1.84235">
        <ele>329.6</ele>
        <time>2022-06-19T06:46:50Z</time>
      </trkpt>
      <trkpt lat="43.21963" lon="1.8421">
        <ele>328.6</ele>
        <time>2022-06-19T06:46:53Z</time>
      </trkpt>
      <trkpt lat="43.21968" lon="1.84204">
        <ele>328.4</ele>
        <time>2022-06-19T06:46:54Z</time>
      </trkpt>
      <trkpt lat="43.21974" lon="1.84199">
        <ele>328</ele>
        <time>2022-06-19T06:46:55Z</time>
      </trkpt>
      <trkpt lat="43.21987" lon="1.84192">
        <ele>326.8</ele>
        <time>2022-06-19T06:46:57Z</time>
      </trkpt>
      <trkpt lat="43.21998" lon="1.84187">
        <ele>325.8</ele>
        <time>2022-06-19T06:46:59Z</time>
      </trkpt>
      <trkpt lat="43.22004" lon="1.84184">
        <ele>324.6</ele>
        <time>2022-06-19T06:47:01Z</time>
      </trkpt>
      <trkpt lat="43.22006" lon="1.84184">
        <ele>324</ele>
        <time>2022-06-19T06:47:02Z</time>
      </trkpt>
      <trkpt lat="43.22008" lon="1.84185">
        <ele>323.6</ele>
        <time>2022-06-19T06:47:03Z</time>
      </trkpt>
      <trkpt lat="43.22011" lon="1.84189">
        <ele>322.8</ele>
        <time>2022-06-19T06:47:04Z</time>
      </trkpt>
      <trkpt lat="43.22011" lon="1.84192">
        <ele>322.2</ele>
        <time>2022-06-19T06:47:05Z</time>
      </trkpt>
      <trkpt lat="43.22016" lon="1.84205">
        <ele>321</ele>
        <time>2022-06-19T06:47:08Z</time>
      </trkpt>
      <trkpt lat="43.22021" lon="1.84219">
        <ele>319.2</ele>
        <time>2022-06-19T06:47:11Z</time>
      </trkpt>
      <trkpt lat="43.22025" lon="1.84227">
        <ele>318.4</ele>
        <time>2022-06-19T06:47:13Z</time>
      </trkpt>
      <trkpt lat="43.22027" lon="1.84231">
        <ele>318</ele>
        <time>2022-06-19T06:47:14Z</time>
      </trkpt>
      <trkpt lat="43.22038" lon="1.84247">
        <ele>316.8</ele>
        <time>2022-06-19T06:47:19Z</time>
      </trkpt>
      <trkpt lat="43.22051" lon="1.84255">
        <ele>315.8</ele>
        <time>2022-06-19T06:47:23Z</time>
      </trkpt>
      <trkpt lat="43.22062" lon="1.84258">
        <ele>315.4</ele>
        <time>2022-06-19T06:47:26Z</time>
      </trkpt>
      <trkpt lat="43.22079" lon="1.84256">
        <ele>314.8</ele>
        <time>2022-06-19T06:47:30Z</time>
      </trkpt>
      <trkpt lat="43.22089" lon="1.84252">
        <ele>314.6</ele>
        <time>2022-06-19T06:47:32Z</time>
      </trkpt>
      <trkpt lat="43.22122" lon="1.84233">
        <ele>313.8</ele>
        <time>2022-06-19T06:47:39Z</time>
      </trkpt>
      <trkpt lat="43.22127" lon="1.8423">
        <ele>313.6</ele>
        <time>2022-06-19T06:47:40Z</time>
      </trkpt>
      <trkpt lat="43.22167" lon="1.84207">
        <ele>313.4</ele>
        <time>2022-06-19T06:47:48Z</time>
      </trkpt>
      <trkpt lat="43.22212" lon="1.84176">
        <ele>313.4</ele>
        <time>2022-06-19T06:47:58Z</time>
      </trkpt>
      <trkpt lat="43.22259" lon="1.84133">
        <ele>313.4</ele>
        <time>2022-06-19T06:48:09Z</time>
      </trkpt>
      <trkpt lat="43.22305" lon="1.84092">
        <ele>314</ele>
        <time>2022-06-19T06:48:20Z</time>
      </trkpt>
      <trkpt lat="43.22313" lon="1.84084">
        <ele>314</ele>
        <time>2022-06-19T06:48:22Z</time>
      </trkpt>
      <trkpt lat="43.2236" lon="1.84042">
        <ele>314.8</ele>
        <time>2022-06-19T06:48:33Z</time>
      </trkpt>
      <trkpt lat="43.22364" lon="1.84039">
        <ele>314.8</ele>
        <time>2022-06-19T06:48:34Z</time>
      </trkpt>
      <trkpt lat="43.22373" lon="1.84032">
        <ele>314.8</ele>
        <time>2022-06-19T06:48:36Z</time>
      </trkpt>
      <trkpt lat="43.22403" lon="1.84006">
        <ele>315</ele>
        <time>2022-06-19T06:48:43Z</time>
      </trkpt>
      <trkpt lat="43.22416" lon="1.83994">
        <ele>315.4</ele>
        <time>2022-06-19T06:48:46Z</time>
      </trkpt>
      <trkpt lat="43.22424" lon="1.83986">
        <ele>315.8</ele>
        <time>2022-06-19T06:48:48Z</time>
      </trkpt>
      <trkpt lat="43.22432" lon="1.83979">
        <ele>316</ele>
        <time>2022-06-19T06:48:50Z</time>
      </trkpt>
      <trkpt lat="43.2245" lon="1.83964">
        <ele>316.6</ele>
        <time>2022-06-19T06:48:54Z</time>
      </trkpt>
      <trkpt lat="43.22454" lon="1.8396">
        <ele>316.8</ele>
        <time>2022-06-19T06:48:55Z</time>
      </trkpt>
      <trkpt lat="43.22463" lon="1.83954">
        <ele>317.2</ele>
        <time>2022-06-19T06:48:57Z</time>
      </trkpt>
      <trkpt lat="43.22485" lon="1.83942">
        <ele>318</ele>
        <time>2022-06-19T06:49:02Z</time>
      </trkpt>
      <trkpt lat="43.22499" lon="1.83937">
        <ele>318.4</ele>
        <time>2022-06-19T06:49:05Z</time>
      </trkpt>
      <trkpt lat="43.22508" lon="1.83936">
        <ele>318.8</ele>
        <time>2022-06-19T06:49:07Z</time>
      </trkpt>
      <trkpt lat="43.22517" lon="1.83938">
        <ele>319</ele>
        <time>2022-06-19T06:49:09Z</time>
      </trkpt>
      <trkpt lat="43.22521" lon="1.83939">
        <ele>319.2</ele>
        <time>2022-06-19T06:49:10Z</time>
      </trkpt>
      <trkpt lat="43.22528" lon="1.83943">
        <ele>319.6</ele>
        <time>2022-06-19T06:49:12Z</time>
      </trkpt>
      <trkpt lat="43.22538" lon="1.83953">
        <ele>320</ele>
        <time>2022-06-19T06:49:15Z</time>
      </trkpt>
      <trkpt lat="43.22541" lon="1.83957">
        <ele>320.2</ele>
        <time>2022-06-19T06:49:16Z</time>
      </trkpt>
      <trkpt lat="43.22558" lon="1.83981">
        <ele>321.2</ele>
        <time>2022-06-19T06:49:22Z</time>
      </trkpt>
      <trkpt lat="43.2256" lon="1.83983">
        <ele>321.4</ele>
        <time>2022-06-19T06:49:23Z</time>
      </trkpt>
      <trkpt lat="43.22579" lon="1.83996">
        <ele>321.6</ele>
        <time>2022-06-19T06:49:28Z</time>
      </trkpt>
      <trkpt lat="43.226" lon="1.84006">
        <ele>321.8</ele>
        <time>2022-06-19T06:49:34Z</time>
      </trkpt>
      <trkpt lat="43.2262" lon="1.84009">
        <ele>322.4</ele>
        <time>2022-06-19T06:49:39Z</time>
      </trkpt>
      <trkpt lat="43.22629" lon="1.84008">
        <ele>322.4</ele>
        <time>2022-06-19T06:49:41Z</time>
      </trkpt>
      <trkpt lat="43.22658" lon="1.84003">
        <ele>323.4</ele>
        <time>2022-06-19T06:49:49Z</time>
      </trkpt>
      <trkpt lat="43.22662" lon="1.84002">
        <ele>323.4</ele>
        <time>2022-06-19T06:49:50Z</time>
      </trkpt>
      <trkpt lat="43.22681" lon="1.84">
        <ele>324</ele>
        <time>2022-06-19T06:49:55Z</time>
      </trkpt>
      <trkpt lat="43.22698" lon="1.84007">
        <ele>324.6</ele>
        <time>2022-06-19T06:50:00Z</time>
      </trkpt>
      <trkpt lat="43.22701" lon="1.84009">
        <ele>324.8</ele>
        <time>2022-06-19T06:50:01Z</time>
      </trkpt>
      <trkpt lat="43.22718" lon="1.84024">
        <ele>325.6</ele>
        <time>2022-06-19T06:50:06Z</time>
      </trkpt>
      <trkpt lat="43.22733" lon="1.84034">
        <ele>326.4</ele>
        <time>2022-06-19T06:50:10Z</time>
      </trkpt>
      <trkpt lat="43.22751" lon="1.8404">
        <ele>326.6</ele>
        <time>2022-06-19T06:50:15Z</time>
      </trkpt>
      <trkpt lat="43.22759" lon="1.84039">
        <ele>327</ele>
        <time>2022-06-19T06:50:17Z</time>
      </trkpt>
      <trkpt lat="43.22785" lon="1.84028">
        <ele>327.6</ele>
        <time>2022-06-19T06:50:24Z</time>
      </trkpt>
      <trkpt lat="43.22821" lon="1.84003">
        <ele>328.2</ele>
        <time>2022-06-19T06:50:33Z</time>
      </trkpt>
      <trkpt lat="43.22841" lon="1.83987">
        <ele>328.8</ele>
        <time>2022-06-19T06:50:38Z</time>
      </trkpt>
      <trkpt lat="43.2286" lon="1.8397">
        <ele>329.4</ele>
        <time>2022-06-19T06:50:43Z</time>
      </trkpt>
      <trkpt lat="43.22877" lon="1.83951">
        <ele>329.8</ele>
        <time>2022-06-19T06:50:48Z</time>
      </trkpt>
      <trkpt lat="43.2289" lon="1.83938">
        <ele>330.6</ele>
        <time>2022-06-19T06:50:52Z</time>
      </trkpt>
      <trkpt lat="43.22899" lon="1.83927">
        <ele>330.8</ele>
        <time>2022-06-19T06:50:55Z</time>
      </trkpt>
      <trkpt lat="43.22922" lon="1.83904">
        <ele>331.8</ele>
        <time>2022-06-19T06:51:02Z</time>
      </trkpt>
      <trkpt lat="43.22929" lon="1.83899">
        <ele>332</ele>
        <time>2022-06-19T06:51:04Z</time>
      </trkpt>
      <trkpt lat="43.22953" lon="1.83884">
        <ele>333.2</ele>
        <time>2022-06-19T06:51:11Z</time>
      </trkpt>
      <trkpt lat="43.22976" lon="1.83872">
        <ele>334.2</ele>
        <time>2022-06-19T06:51:17Z</time>
      </trkpt>
      <trkpt lat="43.22986" lon="1.83869">
        <ele>334.6</ele>
        <time>2022-06-19T06:51:20Z</time>
      </trkpt>
      <trkpt lat="43.22998" lon="1.83878">
        <ele>335</ele>
        <time>2022-06-19T06:51:25Z</time>
      </trkpt>
      <trkpt lat="43.23006" lon="1.83884">
        <ele>335.2</ele>
        <time>2022-06-19T06:51:28Z</time>
      </trkpt>
      <trkpt lat="43.23017" lon="1.83896">
        <ele>335.8</ele>
        <time>2022-06-19T06:51:32Z</time>
      </trkpt>
      <trkpt lat="43.23023" lon="1.83908">
        <ele>336.4</ele>
        <time>2022-06-19T06:51:35Z</time>
      </trkpt>
      <trkpt lat="43.23025" lon="1.83917">
        <ele>336.6</ele>
        <time>2022-06-19T06:51:37Z</time>
      </trkpt>
      <trkpt lat="43.23025" lon="1.83946">
        <ele>337.6</ele>
        <time>2022-06-19T06:51:43Z</time>
      </trkpt>
      <trkpt lat="43.23024" lon="1.83956">
        <ele>338</ele>
        <time>2022-06-19T06:51:45Z</time>
      </trkpt>
      <trkpt lat="43.23025" lon="1.83988">
        <ele>338.8</ele>
        <time>2022-06-19T06:51:51Z</time>
      </trkpt>
      <trkpt lat="43.23033" lon="1.84029">
        <ele>339.8</ele>
        <time>2022-06-19T06:51:59Z</time>
      </trkpt>
      <trkpt lat="43.23034" lon="1.84034">
        <ele>339.8</ele>
        <time>2022-06-19T06:52:00Z</time>
      </trkpt>
      <trkpt lat="43.23046" lon="1.8407">
        <ele>340.6</ele>
        <time>2022-06-19T06:52:07Z</time>
      </trkpt>
      <trkpt lat="43.23051" lon="1.84078">
        <ele>341</ele>
        <time>2022-06-19T06:52:09Z</time>
      </trkpt>
      <trkpt lat="43.23058" lon="1.84085">
        <ele>341.2</ele>
        <time>2022-06-19T06:52:11Z</time>
      </trkpt>
      <trkpt lat="43.23065" lon="1.84091">
        <ele>341.6</ele>
        <time>2022-06-19T06:52:13Z</time>
      </trkpt>
      <trkpt lat="43.23072" lon="1.84095">
        <ele>342</ele>
        <time>2022-06-19T06:52:15Z</time>
      </trkpt>
      <trkpt lat="43.23089" lon="1.84098">
        <ele>342.8</ele>
        <time>2022-06-19T06:52:19Z</time>
      </trkpt>
      <trkpt lat="43.23101" lon="1.84097">
        <ele>343</ele>
        <time>2022-06-19T06:52:22Z</time>
      </trkpt>
      <trkpt lat="43.23118" lon="1.84091">
        <ele>343.4</ele>
        <time>2022-06-19T06:52:26Z</time>
      </trkpt>
      <trkpt lat="43.23151" lon="1.84071">
        <ele>343.8</ele>
        <time>2022-06-19T06:52:35Z</time>
      </trkpt>
      <trkpt lat="43.23175" lon="1.84065">
        <ele>344.2</ele>
        <time>2022-06-19T06:52:41Z</time>
      </trkpt>
      <trkpt lat="43.2318" lon="1.84064">
        <ele>344.2</ele>
        <time>2022-06-19T06:52:42Z</time>
      </trkpt>
      <trkpt lat="43.23215" lon="1.84068">
        <ele>345.2</ele>
        <time>2022-06-19T06:52:51Z</time>
      </trkpt>
      <trkpt lat="43.23218" lon="1.84069">
        <ele>345.4</ele>
        <time>2022-06-19T06:52:52Z</time>
      </trkpt>
      <trkpt lat="43.23243" lon="1.84078">
        <ele>345.6</ele>
        <time>2022-06-19T06:52:59Z</time>
      </trkpt>
      <trkpt lat="43.23267" lon="1.8408">
        <ele>345.6</ele>
        <time>2022-06-19T06:53:04Z</time>
      </trkpt>
      <trkpt lat="43.23272" lon="1.84079">
        <ele>345.6</ele>
        <time>2022-06-19T06:53:05Z</time>
      </trkpt>
      <trkpt lat="43.2329" lon="1.84071">
        <ele>345.6</ele>
        <time>2022-06-19T06:53:08Z</time>
      </trkpt>
      <trkpt lat="43.23338" lon="1.84047">
        <ele>345.6</ele>
        <time>2022-06-19T06:53:15Z</time>
      </trkpt>
      <trkpt lat="43.2339" lon="1.84017">
        <ele>345.2</ele>
        <time>2022-06-19T06:53:22Z</time>
      </trkpt>
      <trkpt lat="43.23414" lon="1.83986">
        <ele>344.4</ele>
        <time>2022-06-19T06:53:26Z</time>
      </trkpt>
      <trkpt lat="43.23419" lon="1.83977">
        <ele>344</ele>
        <time>2022-06-19T06:53:27Z</time>
      </trkpt>
      <trkpt lat="43.2344" lon="1.83935">
        <ele>343.2</ele>
        <time>2022-06-19T06:53:31Z</time>
      </trkpt>
      <trkpt lat="43.23446" lon="1.83923">
        <ele>343</ele>
        <time>2022-06-19T06:53:32Z</time>
      </trkpt>
      <trkpt lat="43.23473" lon="1.83875">
        <ele>341.8</ele>
        <time>2022-06-19T06:53:36Z</time>
      </trkpt>
      <trkpt lat="43.23496" lon="1.83847">
        <ele>340.8</ele>
        <time>2022-06-19T06:53:39Z</time>
      </trkpt>
      <trkpt lat="43.23514" lon="1.83827">
        <ele>340</ele>
        <time>2022-06-19T06:53:41Z</time>
      </trkpt>
      <trkpt lat="43.23524" lon="1.83818">
        <ele>339.4</ele>
        <time>2022-06-19T06:53:42Z</time>
      </trkpt>
      <trkpt lat="43.23552" lon="1.8379">
        <ele>338.4</ele>
        <time>2022-06-19T06:53:45Z</time>
      </trkpt>
      <trkpt lat="43.23583" lon="1.83767">
        <ele>337</ele>
        <time>2022-06-19T06:53:48Z</time>
      </trkpt>
      <trkpt lat="43.23604" lon="1.83761">
        <ele>336.4</ele>
        <time>2022-06-19T06:53:50Z</time>
      </trkpt>
      <trkpt lat="43.23615" lon="1.83762">
        <ele>335.8</ele>
        <time>2022-06-19T06:53:51Z</time>
      </trkpt>
      <trkpt lat="43.23625" lon="1.83767">
        <ele>335.4</ele>
        <time>2022-06-19T06:53:52Z</time>
      </trkpt>
      <trkpt lat="43.23641" lon="1.83784">
        <ele>335</ele>
        <time>2022-06-19T06:53:54Z</time>
      </trkpt>
      <trkpt lat="43.23648" lon="1.83795">
        <ele>334.2</ele>
        <time>2022-06-19T06:53:55Z</time>
      </trkpt>
      <trkpt lat="43.23666" lon="1.83828">
        <ele>333</ele>
        <time>2022-06-19T06:53:58Z</time>
      </trkpt>
      <trkpt lat="43.23673" lon="1.83837">
        <ele>332.6</ele>
        <time>2022-06-19T06:53:59Z</time>
      </trkpt>
      <trkpt lat="43.23681" lon="1.83845">
        <ele>332</ele>
        <time>2022-06-19T06:54:00Z</time>
      </trkpt>
      <trkpt lat="43.23697" lon="1.83859">
        <ele>331</ele>
        <time>2022-06-19T06:54:02Z</time>
      </trkpt>
      <trkpt lat="43.23705" lon="1.83865">
        <ele>330.4</ele>
        <time>2022-06-19T06:54:03Z</time>
      </trkpt>
      <trkpt lat="43.23737" lon="1.83889">
        <ele>328.8</ele>
        <time>2022-06-19T06:54:07Z</time>
      </trkpt>
      <trkpt lat="43.23745" lon="1.83894">
        <ele>328.4</ele>
        <time>2022-06-19T06:54:08Z</time>
      </trkpt>
      <trkpt lat="43.23761" lon="1.83907">
        <ele>327.4</ele>
        <time>2022-06-19T06:54:10Z</time>
      </trkpt>
      <trkpt lat="43.23773" lon="1.83916">
        <ele>326.6</ele>
        <time>2022-06-19T06:54:12Z</time>
      </trkpt>
      <trkpt lat="43.2378" lon="1.83921">
        <ele>326.4</ele>
        <time>2022-06-19T06:54:13Z</time>
      </trkpt>
      <trkpt lat="43.23797" lon="1.83934">
        <ele>325.2</ele>
        <time>2022-06-19T06:54:16Z</time>
      </trkpt>
      <trkpt lat="43.23803" lon="1.83938">
        <ele>324.8</ele>
        <time>2022-06-19T06:54:17Z</time>
      </trkpt>
      <trkpt lat="43.23814" lon="1.83945">
        <ele>324.2</ele>
        <time>2022-06-19T06:54:19Z</time>
      </trkpt>
      <trkpt lat="43.23839" lon="1.83961">
        <ele>323.2</ele>
        <time>2022-06-19T06:54:24Z</time>
      </trkpt>
      <trkpt lat="43.23867" lon="1.8398">
        <ele>322.2</ele>
        <time>2022-06-19T06:54:30Z</time>
      </trkpt>
      <trkpt lat="43.23875" lon="1.83986">
        <ele>322.2</ele>
        <time>2022-06-19T06:54:32Z</time>
      </trkpt>
      <trkpt lat="43.2388" lon="1.83989">
        <ele>322.2</ele>
        <time>2022-06-19T06:54:33Z</time>
      </trkpt>
      <trkpt lat="43.23885" lon="1.8399">
        <ele>322</ele>
        <time>2022-06-19T06:54:34Z</time>
      </trkpt>
      <trkpt lat="43.2389" lon="1.8399">
        <ele>322</ele>
        <time>2022-06-19T06:54:35Z</time>
      </trkpt>
      <trkpt lat="43.23895" lon="1.83989">
        <ele>322</ele>
        <time>2022-06-19T06:54:36Z</time>
      </trkpt>
      <trkpt lat="43.23915" lon="1.8398">
        <ele>321.4</ele>
        <time>2022-06-19T06:54:40Z</time>
      </trkpt>
      <trkpt lat="43.23952" lon="1.83963">
        <ele>321</ele>
        <time>2022-06-19T06:54:47Z</time>
      </trkpt>
      <trkpt lat="43.23956" lon="1.83962">
        <ele>321</ele>
        <time>2022-06-19T06:54:48Z</time>
      </trkpt>
      <trkpt lat="43.23978" lon="1.83952">
        <ele>321</ele>
        <time>2022-06-19T06:54:53Z</time>
      </trkpt>
      <trkpt lat="43.23986" lon="1.83948">
        <ele>321.2</ele>
        <time>2022-06-19T06:54:55Z</time>
      </trkpt>
      <trkpt lat="43.24009" lon="1.8394">
        <ele>321.2</ele>
        <time>2022-06-19T06:55:00Z</time>
      </trkpt>
      <trkpt lat="43.24018" lon="1.83937">
        <ele>321.2</ele>
        <time>2022-06-19T06:55:02Z</time>
      </trkpt>
      <trkpt lat="43.24042" lon="1.83934">
        <ele>321.6</ele>
        <time>2022-06-19T06:55:08Z</time>
      </trkpt>
      <trkpt lat="43.24067" lon="1.83933">
        <ele>321.8</ele>
        <time>2022-06-19T06:55:14Z</time>
      </trkpt>
      <trkpt lat="43.24085" lon="1.83926">
        <ele>322</ele>
        <time>2022-06-19T06:55:18Z</time>
      </trkpt>
      <trkpt lat="43.24093" lon="1.8392">
        <ele>322.2</ele>
        <time>2022-06-19T06:55:20Z</time>
      </trkpt>
      <trkpt lat="43.24101" lon="1.83912">
        <ele>322.4</ele>
        <time>2022-06-19T06:55:22Z</time>
      </trkpt>
      <trkpt lat="43.24112" lon="1.839">
        <ele>322.4</ele>
        <time>2022-06-19T06:55:25Z</time>
      </trkpt>
      <trkpt lat="43.24118" lon="1.83892">
        <ele>322.4</ele>
        <time>2022-06-19T06:55:27Z</time>
      </trkpt>
      <trkpt lat="43.24125" lon="1.83881">
        <ele>322.4</ele>
        <time>2022-06-19T06:55:29Z</time>
      </trkpt>
      <trkpt lat="43.24138" lon="1.83859">
        <ele>322.4</ele>
        <time>2022-06-19T06:55:34Z</time>
      </trkpt>
      <trkpt lat="43.24166" lon="1.83807">
        <ele>321.6</ele>
        <time>2022-06-19T06:55:43Z</time>
      </trkpt>
      <trkpt lat="43.2417" lon="1.83801">
        <ele>321.4</ele>
        <time>2022-06-19T06:55:44Z</time>
      </trkpt>
      <trkpt lat="43.24185" lon="1.83773">
        <ele>320.6</ele>
        <time>2022-06-19T06:55:48Z</time>
      </trkpt>
      <trkpt lat="43.24189" lon="1.83765">
        <ele>320.2</ele>
        <time>2022-06-19T06:55:49Z</time>
      </trkpt>
      <trkpt lat="43.24207" lon="1.83724">
        <ele>319.6</ele>
        <time>2022-06-19T06:55:54Z</time>
      </trkpt>
      <trkpt lat="43.24211" lon="1.83716">
        <ele>319.2</ele>
        <time>2022-06-19T06:55:55Z</time>
      </trkpt>
      <trkpt lat="43.24239" lon="1.83667">
        <ele>318.2</ele>
        <time>2022-06-19T06:56:01Z</time>
      </trkpt>
      <trkpt lat="43.24252" lon="1.83655">
        <ele>317.6</ele>
        <time>2022-06-19T06:56:03Z</time>
      </trkpt>
      <trkpt lat="43.24266" lon="1.83644">
        <ele>317.6</ele>
        <time>2022-06-19T06:56:05Z</time>
      </trkpt>
      <trkpt lat="43.24296" lon="1.83628">
        <ele>317.2</ele>
        <time>2022-06-19T06:56:09Z</time>
      </trkpt>
      <trkpt lat="43.24317" lon="1.83613">
        <ele>316.6</ele>
        <time>2022-06-19T06:56:12Z</time>
      </trkpt>
      <trkpt lat="43.24345" lon="1.83588">
        <ele>316</ele>
        <time>2022-06-19T06:56:16Z</time>
      </trkpt>
      <trkpt lat="43.24359" lon="1.83576">
        <ele>315.6</ele>
        <time>2022-06-19T06:56:18Z</time>
      </trkpt>
      <trkpt lat="43.24391" lon="1.83557">
        <ele>315</ele>
        <time>2022-06-19T06:56:22Z</time>
      </trkpt>
      <trkpt lat="43.244" lon="1.83554">
        <ele>315</ele>
        <time>2022-06-19T06:56:23Z</time>
      </trkpt>
      <trkpt lat="43.24409" lon="1.83552">
        <ele>314.8</ele>
        <time>2022-06-19T06:56:24Z</time>
      </trkpt>
      <trkpt lat="43.24447" lon="1.83544">
        <ele>313.8</ele>
        <time>2022-06-19T06:56:28Z</time>
      </trkpt>
      <trkpt lat="43.24457" lon="1.83542">
        <ele>313.6</ele>
        <time>2022-06-19T06:56:29Z</time>
      </trkpt>
      <trkpt lat="43.2451" lon="1.83534">
        <ele>312.6</ele>
        <time>2022-06-19T06:56:34Z</time>
      </trkpt>
      <trkpt lat="43.24521" lon="1.83532">
        <ele>312.2</ele>
        <time>2022-06-19T06:56:35Z</time>
      </trkpt>
      <trkpt lat="43.24554" lon="1.83525">
        <ele>311.4</ele>
        <time>2022-06-19T06:56:38Z</time>
      </trkpt>
      <trkpt lat="43.24575" lon="1.8352">
        <ele>310.8</ele>
        <time>2022-06-19T06:56:40Z</time>
      </trkpt>
      <trkpt lat="43.24585" lon="1.83515">
        <ele>310.6</ele>
        <time>2022-06-19T06:56:41Z</time>
      </trkpt>
      <trkpt lat="43.24595" lon="1.83508">
        <ele>310.2</ele>
        <time>2022-06-19T06:56:42Z</time>
      </trkpt>
      <trkpt lat="43.24611" lon="1.8349">
        <ele>309.4</ele>
        <time>2022-06-19T06:56:44Z</time>
      </trkpt>
      <trkpt lat="43.24618" lon="1.83479">
        <ele>308.8</ele>
        <time>2022-06-19T06:56:45Z</time>
      </trkpt>
      <trkpt lat="43.24634" lon="1.8344">
        <ele>307.6</ele>
        <time>2022-06-19T06:56:47Z</time>
      </trkpt>
      <trkpt lat="43.24634" lon="1.8344">
        <ele>307.4</ele>
        <time>2022-06-19T06:56:48Z</time>
      </trkpt>
      <trkpt lat="43.24651" lon="1.834">
        <ele>306</ele>
        <time>2022-06-19T06:56:50Z</time>
      </trkpt>
      <trkpt lat="43.24657" lon="1.83387">
        <ele>304.6</ele>
        <time>2022-06-19T06:56:52Z</time>
      </trkpt>
      <trkpt lat="43.24682" lon="1.83332">
        <ele>303.4</ele>
        <time>2022-06-19T06:56:55Z</time>
      </trkpt>
      <trkpt lat="43.247" lon="1.83308">
        <ele>302.2</ele>
        <time>2022-06-19T06:56:57Z</time>
      </trkpt>
      <trkpt lat="43.24711" lon="1.83298">
        <ele>302</ele>
        <time>2022-06-19T06:56:58Z</time>
      </trkpt>
      <trkpt lat="43.24711" lon="1.83298">
        <ele>300.8</ele>
        <time>2022-06-19T06:56:59Z</time>
      </trkpt>
      <trkpt lat="43.24745" lon="1.83274">
        <ele>299.6</ele>
        <time>2022-06-19T06:57:01Z</time>
      </trkpt>
      <trkpt lat="43.24767" lon="1.83258">
        <ele>298.4</ele>
        <time>2022-06-19T06:57:03Z</time>
      </trkpt>
      <trkpt lat="43.24778" lon="1.83251">
        <ele>297.2</ele>
        <time>2022-06-19T06:57:04Z</time>
      </trkpt>
      <trkpt lat="43.24789" lon="1.83244">
        <ele>297</ele>
        <time>2022-06-19T06:57:05Z</time>
      </trkpt>
      <trkpt lat="43.24808" lon="1.83231">
        <ele>296</ele>
        <time>2022-06-19T06:57:07Z</time>
      </trkpt>
      <trkpt lat="43.24828" lon="1.8322">
        <ele>294.6</ele>
        <time>2022-06-19T06:57:09Z</time>
      </trkpt>
      <trkpt lat="43.24838" lon="1.83217">
        <ele>293.2</ele>
        <time>2022-06-19T06:57:11Z</time>
      </trkpt>
      <trkpt lat="43.24858" lon="1.83219">
        <ele>292.6</ele>
        <time>2022-06-19T06:57:12Z</time>
      </trkpt>
      <trkpt lat="43.24868" lon="1.83225">
        <ele>291.8</ele>
        <time>2022-06-19T06:57:13Z</time>
      </trkpt>
      <trkpt lat="43.24875" lon="1.83231">
        <ele>291.4</ele>
        <time>2022-06-19T06:57:14Z</time>
      </trkpt>
      <trkpt lat="43.24883" lon="1.83239">
        <ele>290.4</ele>
        <time>2022-06-19T06:57:15Z</time>
      </trkpt>
      <trkpt lat="43.24899" lon="1.83257">
        <ele>289.4</ele>
        <time>2022-06-19T06:57:17Z</time>
      </trkpt>
      <trkpt lat="43.24916" lon="1.83274">
        <ele>288.2</ele>
        <time>2022-06-19T06:57:19Z</time>
      </trkpt>
      <trkpt lat="43.24925" lon="1.83282">
        <ele>286.8</ele>
        <time>2022-06-19T06:57:21Z</time>
      </trkpt>
      <trkpt lat="43.24953" lon="1.83305">
        <ele>285.4</ele>
        <time>2022-06-19T06:57:23Z</time>
      </trkpt>
      <trkpt lat="43.24993" lon="1.83337">
        <ele>284.2</ele>
        <time>2022-06-19T06:57:27Z</time>
      </trkpt>
      <trkpt lat="43.25011" lon="1.83353">
        <ele>283</ele>
        <time>2022-06-19T06:57:29Z</time>
      </trkpt>
      <trkpt lat="43.25021" lon="1.83361">
        <ele>282</ele>
        <time>2022-06-19T06:57:30Z</time>
      </trkpt>
      <trkpt lat="43.25039" lon="1.83376">
        <ele>280.6</ele>
        <time>2022-06-19T06:57:32Z</time>
      </trkpt>
      <trkpt lat="43.25049" lon="1.83381">
        <ele>280.2</ele>
        <time>2022-06-19T06:57:33Z</time>
      </trkpt>
      <trkpt lat="43.25058" lon="1.83385">
        <ele>279.6</ele>
        <time>2022-06-19T06:57:34Z</time>
      </trkpt>
      <trkpt lat="43.25058" lon="1.83385">
        <ele>279.2</ele>
        <time>2022-06-19T06:57:35Z</time>
      </trkpt>
      <trkpt lat="43.25077" lon="1.83387">
        <ele>278.4</ele>
        <time>2022-06-19T06:57:36Z</time>
      </trkpt>
      <trkpt lat="43.25086" lon="1.83386">
        <ele>277.8</ele>
        <time>2022-06-19T06:57:37Z</time>
      </trkpt>
      <trkpt lat="43.25103" lon="1.8338">
        <ele>277.2</ele>
        <time>2022-06-19T06:57:39Z</time>
      </trkpt>
      <trkpt lat="43.25103" lon="1.8338">
        <ele>276.8</ele>
        <time>2022-06-19T06:57:40Z</time>
      </trkpt>
      <trkpt lat="43.25118" lon="1.83369">
        <ele>276.6</ele>
        <time>2022-06-19T06:57:41Z</time>
      </trkpt>
      <trkpt lat="43.25142" lon="1.83338">
        <ele>275.8</ele>
        <time>2022-06-19T06:57:45Z</time>
      </trkpt>
      <trkpt lat="43.25174" lon="1.83292">
        <ele>274.6</ele>
        <time>2022-06-19T06:57:51Z</time>
      </trkpt>
      <trkpt lat="43.2518" lon="1.83286">
        <ele>274.6</ele>
        <time>2022-06-19T06:57:53Z</time>
      </trkpt>
      <trkpt lat="43.2521" lon="1.83261">
        <ele>274.6</ele>
        <time>2022-06-19T06:57:58Z</time>
      </trkpt>
      <trkpt lat="43.25246" lon="1.83235">
        <ele>275.2</ele>
        <time>2022-06-19T06:58:05Z</time>
      </trkpt>
      <trkpt lat="43.25269" lon="1.83222">
        <ele>275.8</ele>
        <time>2022-06-19T06:58:09Z</time>
      </trkpt>
      <trkpt lat="43.25278" lon="1.83219">
        <ele>276.2</ele>
        <time>2022-06-19T06:58:11Z</time>
      </trkpt>
      <trkpt lat="43.25286" lon="1.83218">
        <ele>276.6</ele>
        <time>2022-06-19T06:58:13Z</time>
      </trkpt>
      <trkpt lat="43.2529" lon="1.83218">
        <ele>276.8</ele>
        <time>2022-06-19T06:58:14Z</time>
      </trkpt>
      <trkpt lat="43.25297" lon="1.83218">
        <ele>277.2</ele>
        <time>2022-06-19T06:58:16Z</time>
      </trkpt>
      <trkpt lat="43.25311" lon="1.83225">
        <ele>278</ele>
        <time>2022-06-19T06:58:21Z</time>
      </trkpt>
      <trkpt lat="43.25311" lon="1.83225">
        <ele>278.4</ele>
        <time>2022-06-19T06:58:22Z</time>
      </trkpt>
      <trkpt lat="43.2532" lon="1.83235">
        <ele>279.2</ele>
        <time>2022-06-19T06:58:26Z</time>
      </trkpt>
      <trkpt lat="43.25324" lon="1.83242">
        <ele>279.4</ele>
        <time>2022-06-19T06:58:27Z</time>
      </trkpt>
      <trkpt lat="43.25332" lon="1.83254">
        <ele>280.2</ele>
        <time>2022-06-19T06:58:32Z</time>
      </trkpt>
      <trkpt lat="43.25338" lon="1.83279">
        <ele>281.2</ele>
        <time>2022-06-19T06:58:37Z</time>
      </trkpt>
      <trkpt lat="43.2534" lon="1.83303">
        <ele>282.2</ele>
        <time>2022-06-19T06:58:43Z</time>
      </trkpt>
      <trkpt lat="43.25341" lon="1.83315">
        <ele>282.8</ele>
        <time>2022-06-19T06:58:46Z</time>
      </trkpt>
      <trkpt lat="43.25343" lon="1.83327">
        <ele>283.4</ele>
        <time>2022-06-19T06:58:49Z</time>
      </trkpt>
      <trkpt lat="43.25343" lon="1.83336">
        <ele>283.6</ele>
        <time>2022-06-19T06:58:51Z</time>
      </trkpt>
      <trkpt lat="43.25344" lon="1.83355">
        <ele>284.4</ele>
        <time>2022-06-19T06:58:56Z</time>
      </trkpt>
      <trkpt lat="43.25344" lon="1.83392">
        <ele>285.4</ele>
        <time>2022-06-19T06:59:06Z</time>
      </trkpt>
      <trkpt lat="43.25344" lon="1.83399">
        <ele>285.6</ele>
        <time>2022-06-19T06:59:07Z</time>
      </trkpt>
      <trkpt lat="43.25343" lon="1.8342">
        <ele>286.2</ele>
        <time>2022-06-19T06:59:12Z</time>
      </trkpt>
      <trkpt lat="43.25343" lon="1.83423">
        <ele>286.6</ele>
        <time>2022-06-19T06:59:14Z</time>
      </trkpt>
      <trkpt lat="43.25341" lon="1.83455">
        <ele>287.4</ele>
        <time>2022-06-19T06:59:21Z</time>
      </trkpt>
      <trkpt lat="43.25341" lon="1.83459">
        <ele>287.6</ele>
        <time>2022-06-19T06:59:22Z</time>
      </trkpt>
      <trkpt lat="43.25342" lon="1.83497">
        <ele>288.6</ele>
        <time>2022-06-19T06:59:31Z</time>
      </trkpt>
      <trkpt lat="43.25343" lon="1.83502">
        <ele>288.8</ele>
        <time>2022-06-19T06:59:32Z</time>
      </trkpt>
      <trkpt lat="43.25344" lon="1.8353">
        <ele>290</ele>
        <time>2022-06-19T06:59:39Z</time>
      </trkpt>
      <trkpt lat="43.25345" lon="1.83552">
        <ele>291</ele>
        <time>2022-06-19T06:59:46Z</time>
      </trkpt>
      <trkpt lat="43.25346" lon="1.83563">
        <ele>291.6</ele>
        <time>2022-06-19T06:59:49Z</time>
      </trkpt>
      <trkpt lat="43.25348" lon="1.83577">
        <ele>292.2</ele>
        <time>2022-06-19T06:59:52Z</time>
      </trkpt>
      <trkpt lat="43.25351" lon="1.83597">
        <ele>293</ele>
        <time>2022-06-19T06:59:57Z</time>
      </trkpt>
      <trkpt lat="43.25352" lon="1.836">
        <ele>293.2</ele>
        <time>2022-06-19T06:59:58Z</time>
      </trkpt>
      <trkpt lat="43.2536" lon="1.83631">
        <ele>294.4</ele>
        <time>2022-06-19T07:00:07Z</time>
      </trkpt>
      <trkpt lat="43.25361" lon="1.83635">
        <ele>294.6</ele>
        <time>2022-06-19T07:00:08Z</time>
      </trkpt>
      <trkpt lat="43.25366" lon="1.83657">
        <ele>295.6</ele>
        <time>2022-06-19T07:00:14Z</time>
      </trkpt>
      <trkpt lat="43.25368" lon="1.83667">
        <ele>296.2</ele>
        <time>2022-06-19T07:00:17Z</time>
      </trkpt>
      <trkpt lat="43.25369" lon="1.83687">
        <ele>296.8</ele>
        <time>2022-06-19T07:00:22Z</time>
      </trkpt>
      <trkpt lat="43.2537" lon="1.83698">
        <ele>297.4</ele>
        <time>2022-06-19T07:00:25Z</time>
      </trkpt>
      <trkpt lat="43.25371" lon="1.83705">
        <ele>297.8</ele>
        <time>2022-06-19T07:00:27Z</time>
      </trkpt>
      <trkpt lat="43.25376" lon="1.83727">
        <ele>299</ele>
        <time>2022-06-19T07:00:33Z</time>
      </trkpt>
      <trkpt lat="43.25377" lon="1.8373">
        <ele>299</ele>
        <time>2022-06-19T07:00:34Z</time>
      </trkpt>
      <trkpt lat="43.25387" lon="1.83743">
        <ele>300</ele>
        <time>2022-06-19T07:00:40Z</time>
      </trkpt>
      <trkpt lat="43.25391" lon="1.83747">
        <ele>300</ele>
        <time>2022-06-19T07:00:41Z</time>
      </trkpt>
      <trkpt lat="43.25407" lon="1.83752">
        <ele>300.8</ele>
        <time>2022-06-19T07:00:47Z</time>
      </trkpt>
      <trkpt lat="43.25413" lon="1.83751">
        <ele>301</ele>
        <time>2022-06-19T07:00:49Z</time>
      </trkpt>
      <trkpt lat="43.25429" lon="1.83744">
        <ele>301.8</ele>
        <time>2022-06-19T07:00:55Z</time>
      </trkpt>
      <trkpt lat="43.25433" lon="1.8374">
        <ele>302</ele>
        <time>2022-06-19T07:00:57Z</time>
      </trkpt>
      <trkpt lat="43.25441" lon="1.83724">
        <ele>302.6</ele>
        <time>2022-06-19T07:01:02Z</time>
      </trkpt>
      <trkpt lat="43.25447" lon="1.83706">
        <ele>303</ele>
        <time>2022-06-19T07:01:08Z</time>
      </trkpt>
      <trkpt lat="43.25452" lon="1.83686">
        <ele>303.2</ele>
        <time>2022-06-19T07:01:12Z</time>
      </trkpt>
      <trkpt lat="43.25458" lon="1.83663">
        <ele>304</ele>
        <time>2022-06-19T07:01:18Z</time>
      </trkpt>
      <trkpt lat="43.25462" lon="1.83648">
        <ele>305</ele>
        <time>2022-06-19T07:01:23Z</time>
      </trkpt>
      <trkpt lat="43.25465" lon="1.83636">
        <ele>305.2</ele>
        <time>2022-06-19T07:01:25Z</time>
      </trkpt>
      <trkpt lat="43.2547" lon="1.83623">
        <ele>305.8</ele>
        <time>2022-06-19T07:01:29Z</time>
      </trkpt>
      <trkpt lat="43.25473" lon="1.83611">
        <ele>306.4</ele>
        <time>2022-06-19T07:01:32Z</time>
      </trkpt>
      <trkpt lat="43.25476" lon="1.836">
        <ele>307</ele>
        <time>2022-06-19T07:01:35Z</time>
      </trkpt>
      <trkpt lat="43.25478" lon="1.83592">
        <ele>307.6</ele>
        <time>2022-06-19T07:01:37Z</time>
      </trkpt>
      <trkpt lat="43.25487" lon="1.83572">
        <ele>308.6</ele>
        <time>2022-06-19T07:01:42Z</time>
      </trkpt>
      <trkpt lat="43.25502" lon="1.83549">
        <ele>309.6</ele>
        <time>2022-06-19T07:01:49Z</time>
      </trkpt>
      <trkpt lat="43.25505" lon="1.83546">
        <ele>309.8</ele>
        <time>2022-06-19T07:01:50Z</time>
      </trkpt>
      <trkpt lat="43.25521" lon="1.83531">
        <ele>310.8</ele>
        <time>2022-06-19T07:01:56Z</time>
      </trkpt>
      <trkpt lat="43.25521" lon="1.83531">
        <ele>311</ele>
        <time>2022-06-19T07:01:57Z</time>
      </trkpt>
      <trkpt lat="43.25529" lon="1.83526">
        <ele>311.4</ele>
        <time>2022-06-19T07:01:59Z</time>
      </trkpt>
      <trkpt lat="43.25533" lon="1.83529">
        <ele>312</ele>
        <time>2022-06-19T07:02:01Z</time>
      </trkpt>
      <trkpt lat="43.25533" lon="1.83531">
        <ele>312</ele>
        <time>2022-06-19T07:02:02Z</time>
      </trkpt>
      <trkpt lat="43.25532" lon="1.83539">
        <ele>312.2</ele>
        <time>2022-06-19T07:02:05Z</time>
      </trkpt>
      <trkpt lat="43.25529" lon="1.83557">
        <ele>313</ele>
        <time>2022-06-19T07:02:11Z</time>
      </trkpt>
      <trkpt lat="43.25529" lon="1.83559">
        <ele>313.4</ele>
        <time>2022-06-19T07:02:12Z</time>
      </trkpt>
      <trkpt lat="43.25529" lon="1.8356">
        <ele>313.4</ele>
        <time>2022-06-19T07:02:13Z</time>
      </trkpt>
      <trkpt lat="43.25531" lon="1.83559">
        <ele>313.8</ele>
        <time>2022-06-19T07:02:15Z</time>
      </trkpt>
      <trkpt lat="43.25531" lon="1.83557">
        <ele>314</ele>
        <time>2022-06-19T07:02:16Z</time>
      </trkpt>
      <trkpt lat="43.25531" lon="1.83553">
        <ele>314.2</ele>
        <time>2022-06-19T07:02:18Z</time>
      </trkpt>
      <trkpt lat="43.25532" lon="1.83549">
        <ele>314.2</ele>
        <time>2022-06-19T07:02:20Z</time>
      </trkpt>
      <trkpt lat="43.25534" lon="1.83532">
        <ele>315</ele>
        <time>2022-06-19T07:02:28Z</time>
      </trkpt>
      <trkpt lat="43.25537" lon="1.83526">
        <ele>315.2</ele>
        <time>2022-06-19T07:02:30Z</time>
      </trkpt>
      <trkpt lat="43.2554" lon="1.83523">
        <ele>315.2</ele>
        <time>2022-06-19T07:02:31Z</time>
      </trkpt>
      <trkpt lat="43.25544" lon="1.83522">
        <ele>315.2</ele>
        <time>2022-06-19T07:02:32Z</time>
      </trkpt>
      <trkpt lat="43.25566" lon="1.83528">
        <ele>315.4</ele>
        <time>2022-06-19T07:02:38Z</time>
      </trkpt>
      <trkpt lat="43.25587" lon="1.83548">
        <ele>315.4</ele>
        <time>2022-06-19T07:02:44Z</time>
      </trkpt>
      <trkpt lat="43.2561" lon="1.83578">
        <ele>315.8</ele>
        <time>2022-06-19T07:02:52Z</time>
      </trkpt>
      <trkpt lat="43.25623" lon="1.83584">
        <ele>315.8</ele>
        <time>2022-06-19T07:02:55Z</time>
      </trkpt>
      <trkpt lat="43.25632" lon="1.83585">
        <ele>315.8</ele>
        <time>2022-06-19T07:02:57Z</time>
      </trkpt>
      <trkpt lat="43.2564" lon="1.83585">
        <ele>316</ele>
        <time>2022-06-19T07:02:59Z</time>
      </trkpt>
      <trkpt lat="43.25658" lon="1.83581">
        <ele>316</ele>
        <time>2022-06-19T07:03:03Z</time>
      </trkpt>
      <trkpt lat="43.25671" lon="1.83576">
        <ele>316.2</ele>
        <time>2022-06-19T07:03:06Z</time>
      </trkpt>
      <trkpt lat="43.25702" lon="1.83569">
        <ele>316.6</ele>
        <time>2022-06-19T07:03:13Z</time>
      </trkpt>
      <trkpt lat="43.25711" lon="1.8357">
        <ele>316.8</ele>
        <time>2022-06-19T07:03:15Z</time>
      </trkpt>
      <trkpt lat="43.25727" lon="1.83578">
        <ele>317</ele>
        <time>2022-06-19T07:03:19Z</time>
      </trkpt>
      <trkpt lat="43.25747" lon="1.83596">
        <ele>317.2</ele>
        <time>2022-06-19T07:03:25Z</time>
      </trkpt>
      <trkpt lat="43.25768" lon="1.83609">
        <ele>317.8</ele>
        <time>2022-06-19T07:03:31Z</time>
      </trkpt>
      <trkpt lat="43.25782" lon="1.83599">
        <ele>318.2</ele>
        <time>2022-06-19T07:03:35Z</time>
      </trkpt>
      <trkpt lat="43.25787" lon="1.8359">
        <ele>318.4</ele>
        <time>2022-06-19T07:03:37Z</time>
      </trkpt>
      <trkpt lat="43.25801" lon="1.83561">
        <ele>318.8</ele>
        <time>2022-06-19T07:03:43Z</time>
      </trkpt>
      <trkpt lat="43.25822" lon="1.83523">
        <ele>319.2</ele>
        <time>2022-06-19T07:03:51Z</time>
      </trkpt>
      <trkpt lat="43.25833" lon="1.83502">
        <ele>319.4</ele>
        <time>2022-06-19T07:03:55Z</time>
      </trkpt>
      <trkpt lat="43.25848" lon="1.83474">
        <ele>319.4</ele>
        <time>2022-06-19T07:04:00Z</time>
      </trkpt>
      <trkpt lat="43.25878" lon="1.83429">
        <ele>319.2</ele>
        <time>2022-06-19T07:04:09Z</time>
      </trkpt>
      <trkpt lat="43.2589" lon="1.83414">
        <ele>319</ele>
        <time>2022-06-19T07:04:14Z</time>
      </trkpt>
      <trkpt lat="43.25889" lon="1.83411">
        <ele>319</ele>
        <time>2022-06-19T07:04:18Z</time>
      </trkpt>
      <trkpt lat="43.25889" lon="1.83411">
        <ele>319</ele>
        <time>2022-06-19T07:04:21Z</time>
      </trkpt>
      <trkpt lat="43.25894" lon="1.83407">
        <ele>319</ele>
        <time>2022-06-19T07:05:01Z</time>
      </trkpt>
      <trkpt lat="43.25896" lon="1.83404">
        <ele>319</ele>
        <time>2022-06-19T07:05:02Z</time>
      </trkpt>
      <trkpt lat="43.2591" lon="1.83388">
        <ele>318.4</ele>
        <time>2022-06-19T07:05:08Z</time>
      </trkpt>
      <trkpt lat="43.25912" lon="1.83385">
        <ele>318.4</ele>
        <time>2022-06-19T07:05:09Z</time>
      </trkpt>
      <trkpt lat="43.25937" lon="1.83352">
        <ele>318.2</ele>
        <time>2022-06-19T07:05:18Z</time>
      </trkpt>
      <trkpt lat="43.2594" lon="1.83348">
        <ele>318.2</ele>
        <time>2022-06-19T07:05:19Z</time>
      </trkpt>
      <trkpt lat="43.25952" lon="1.83322">
        <ele>318.2</ele>
        <time>2022-06-19T07:05:24Z</time>
      </trkpt>
      <trkpt lat="43.25964" lon="1.83283">
        <ele>317.8</ele>
        <time>2022-06-19T07:05:30Z</time>
      </trkpt>
      <trkpt lat="43.25972" lon="1.83258">
        <ele>317.2</ele>
        <time>2022-06-19T07:05:34Z</time>
      </trkpt>
      <trkpt lat="43.25979" lon="1.83249">
        <ele>317</ele>
        <time>2022-06-19T07:05:36Z</time>
      </trkpt>
      <trkpt lat="43.25997" lon="1.8324">
        <ele>316.6</ele>
        <time>2022-06-19T07:05:41Z</time>
      </trkpt>
      <trkpt lat="43.26001" lon="1.83239">
        <ele>316.6</ele>
        <time>2022-06-19T07:05:42Z</time>
      </trkpt>
      <trkpt lat="43.26019" lon="1.83244">
        <ele>316.6</ele>
        <time>2022-06-19T07:05:47Z</time>
      </trkpt>
      <trkpt lat="43.26037" lon="1.83255">
        <ele>317</ele>
        <time>2022-06-19T07:05:53Z</time>
      </trkpt>
      <trkpt lat="43.26053" lon="1.83252">
        <ele>317.2</ele>
        <time>2022-06-19T07:05:57Z</time>
      </trkpt>
      <trkpt lat="43.26083" lon="1.83241">
        <ele>317.6</ele>
        <time>2022-06-19T07:06:02Z</time>
      </trkpt>
      <trkpt lat="43.26118" lon="1.83225">
        <ele>317.6</ele>
        <time>2022-06-19T07:06:07Z</time>
      </trkpt>
      <trkpt lat="43.26131" lon="1.83212">
        <ele>317.4</ele>
        <time>2022-06-19T07:06:09Z</time>
      </trkpt>
      <trkpt lat="43.26136" lon="1.83203">
        <ele>317.4</ele>
        <time>2022-06-19T07:06:10Z</time>
      </trkpt>
      <trkpt lat="43.26164" lon="1.83148">
        <ele>316.8</ele>
        <time>2022-06-19T07:06:15Z</time>
      </trkpt>
      <trkpt lat="43.26178" lon="1.83127">
        <ele>316.4</ele>
        <time>2022-06-19T07:06:17Z</time>
      </trkpt>
      <trkpt lat="43.26186" lon="1.83117">
        <ele>316</ele>
        <time>2022-06-19T07:06:18Z</time>
      </trkpt>
      <trkpt lat="43.26194" lon="1.83107">
        <ele>315.6</ele>
        <time>2022-06-19T07:06:19Z</time>
      </trkpt>
      <trkpt lat="43.26212" lon="1.83087">
        <ele>315</ele>
        <time>2022-06-19T07:06:21Z</time>
      </trkpt>
      <trkpt lat="43.26237" lon="1.83058">
        <ele>313.8</ele>
        <time>2022-06-19T07:06:24Z</time>
      </trkpt>
      <trkpt lat="43.26245" lon="1.83049">
        <ele>313.8</ele>
        <time>2022-06-19T07:06:25Z</time>
      </trkpt>
      <trkpt lat="43.26265" lon="1.83038">
        <ele>313</ele>
        <time>2022-06-19T07:06:27Z</time>
      </trkpt>
      <trkpt lat="43.26277" lon="1.83036">
        <ele>312.6</ele>
        <time>2022-06-19T07:06:28Z</time>
      </trkpt>
      <trkpt lat="43.26295" lon="1.83035">
        <ele>311.8</ele>
        <time>2022-06-19T07:06:30Z</time>
      </trkpt>
      <trkpt lat="43.26323" lon="1.83037">
        <ele>310.6</ele>
        <time>2022-06-19T07:06:33Z</time>
      </trkpt>
      <trkpt lat="43.26367" lon="1.83044">
        <ele>309.2</ele>
        <time>2022-06-19T07:06:38Z</time>
      </trkpt>
      <trkpt lat="43.26375" lon="1.83044">
        <ele>309</ele>
        <time>2022-06-19T07:06:39Z</time>
      </trkpt>
      <trkpt lat="43.26393" lon="1.83042">
        <ele>308.6</ele>
        <time>2022-06-19T07:06:41Z</time>
      </trkpt>
      <trkpt lat="43.26411" lon="1.83034">
        <ele>308</ele>
        <time>2022-06-19T07:06:43Z</time>
      </trkpt>
      <trkpt lat="43.26446" lon="1.83017">
        <ele>306.8</ele>
        <time>2022-06-19T07:06:47Z</time>
      </trkpt>
      <trkpt lat="43.26455" lon="1.83014">
        <ele>306.4</ele>
        <time>2022-06-19T07:06:48Z</time>
      </trkpt>
      <trkpt lat="43.26472" lon="1.83009">
        <ele>305.6</ele>
        <time>2022-06-19T07:06:50Z</time>
      </trkpt>
      <trkpt lat="43.26488" lon="1.83005">
        <ele>305</ele>
        <time>2022-06-19T07:06:52Z</time>
      </trkpt>
      <trkpt lat="43.26503" lon="1.83007">
        <ele>304.4</ele>
        <time>2022-06-19T07:06:54Z</time>
      </trkpt>
      <trkpt lat="43.26535" lon="1.83025">
        <ele>303.6</ele>
        <time>2022-06-19T07:06:58Z</time>
      </trkpt>
      <trkpt lat="43.26544" lon="1.83028">
        <ele>303.4</ele>
        <time>2022-06-19T07:06:59Z</time>
      </trkpt>
      <trkpt lat="43.26562" lon="1.83032">
        <ele>302.6</ele>
        <time>2022-06-19T07:07:02Z</time>
      </trkpt>
      <trkpt lat="43.26579" lon="1.83035">
        <ele>302.4</ele>
        <time>2022-06-19T07:07:03Z</time>
      </trkpt>
      <trkpt lat="43.26587" lon="1.83037">
        <ele>301.6</ele>
        <time>2022-06-19T07:07:04Z</time>
      </trkpt>
      <trkpt lat="43.26594" lon="1.8304">
        <ele>301.2</ele>
        <time>2022-06-19T07:07:05Z</time>
      </trkpt>
      <trkpt lat="43.266" lon="1.83045">
        <ele>300.8</ele>
        <time>2022-06-19T07:07:06Z</time>
      </trkpt>
      <trkpt lat="43.26609" lon="1.83059">
        <ele>299.8</ele>
        <time>2022-06-19T07:07:08Z</time>
      </trkpt>
      <trkpt lat="43.26614" lon="1.83078">
        <ele>299.4</ele>
        <time>2022-06-19T07:07:10Z</time>
      </trkpt>
      <trkpt lat="43.26617" lon="1.83089">
        <ele>299</ele>
        <time>2022-06-19T07:07:11Z</time>
      </trkpt>
      <trkpt lat="43.26621" lon="1.83099">
        <ele>298.8</ele>
        <time>2022-06-19T07:07:12Z</time>
      </trkpt>
      <trkpt lat="43.2663" lon="1.8312">
        <ele>297.8</ele>
        <time>2022-06-19T07:07:14Z</time>
      </trkpt>
      <trkpt lat="43.26638" lon="1.83142">
        <ele>296.6</ele>
        <time>2022-06-19T07:07:16Z</time>
      </trkpt>
      <trkpt lat="43.26642" lon="1.83167">
        <ele>295.8</ele>
        <time>2022-06-19T07:07:18Z</time>
      </trkpt>
      <trkpt lat="43.26642" lon="1.83179">
        <ele>295.4</ele>
        <time>2022-06-19T07:07:19Z</time>
      </trkpt>
      <trkpt lat="43.26643" lon="1.83192">
        <ele>295.2</ele>
        <time>2022-06-19T07:07:20Z</time>
      </trkpt>
      <trkpt lat="43.26644" lon="1.83216">
        <ele>294.2</ele>
        <time>2022-06-19T07:07:22Z</time>
      </trkpt>
      <trkpt lat="43.26645" lon="1.8324">
        <ele>293</ele>
        <time>2022-06-19T07:07:24Z</time>
      </trkpt>
      <trkpt lat="43.26643" lon="1.83266">
        <ele>292</ele>
        <time>2022-06-19T07:07:26Z</time>
      </trkpt>
      <trkpt lat="43.26639" lon="1.83293">
        <ele>290.6</ele>
        <time>2022-06-19T07:07:28Z</time>
      </trkpt>
      <trkpt lat="43.26637" lon="1.83307">
        <ele>290.2</ele>
        <time>2022-06-19T07:07:29Z</time>
      </trkpt>
      <trkpt lat="43.26634" lon="1.83335">
        <ele>289.2</ele>
        <time>2022-06-19T07:07:31Z</time>
      </trkpt>
      <trkpt lat="43.26635" lon="1.83349">
        <ele>288</ele>
        <time>2022-06-19T07:07:32Z</time>
      </trkpt>
      <trkpt lat="43.26636" lon="1.83363">
        <ele>286.8</ele>
        <time>2022-06-19T07:07:34Z</time>
      </trkpt>
      <trkpt lat="43.26639" lon="1.83388">
        <ele>286</ele>
        <time>2022-06-19T07:07:35Z</time>
      </trkpt>
      <trkpt lat="43.26643" lon="1.834">
        <ele>285.6</ele>
        <time>2022-06-19T07:07:36Z</time>
      </trkpt>
      <trkpt lat="43.26647" lon="1.83411">
        <ele>284.8</ele>
        <time>2022-06-19T07:07:37Z</time>
      </trkpt>
      <trkpt lat="43.26651" lon="1.83421">
        <ele>284.4</ele>
        <time>2022-06-19T07:07:38Z</time>
      </trkpt>
      <trkpt lat="43.26657" lon="1.8343">
        <ele>283.2</ele>
        <time>2022-06-19T07:07:39Z</time>
      </trkpt>
      <trkpt lat="43.26675" lon="1.83454">
        <ele>281.8</ele>
        <time>2022-06-19T07:07:42Z</time>
      </trkpt>
      <trkpt lat="43.2668" lon="1.83464">
        <ele>281</ele>
        <time>2022-06-19T07:07:43Z</time>
      </trkpt>
      <trkpt lat="43.26684" lon="1.83477">
        <ele>280</ele>
        <time>2022-06-19T07:07:44Z</time>
      </trkpt>
      <trkpt lat="43.26686" lon="1.835">
        <ele>278.6</ele>
        <time>2022-06-19T07:07:46Z</time>
      </trkpt>
      <trkpt lat="43.26684" lon="1.83524">
        <ele>277</ele>
        <time>2022-06-19T07:07:48Z</time>
      </trkpt>
      <trkpt lat="43.26685" lon="1.83536">
        <ele>275.8</ele>
        <time>2022-06-19T07:07:49Z</time>
      </trkpt>
      <trkpt lat="43.26689" lon="1.8356">
        <ele>274.6</ele>
        <time>2022-06-19T07:07:51Z</time>
      </trkpt>
      <trkpt lat="43.26696" lon="1.83582">
        <ele>273.2</ele>
        <time>2022-06-19T07:07:53Z</time>
      </trkpt>
      <trkpt lat="43.26704" lon="1.83601">
        <ele>272</ele>
        <time>2022-06-19T07:07:55Z</time>
      </trkpt>
      <trkpt lat="43.26707" lon="1.83609">
        <ele>270.8</ele>
        <time>2022-06-19T07:07:56Z</time>
      </trkpt>
      <trkpt lat="43.26718" lon="1.83622">
        <ele>268.8</ele>
        <time>2022-06-19T07:07:58Z</time>
      </trkpt>
      <trkpt lat="43.2673" lon="1.83625">
        <ele>267.2</ele>
        <time>2022-06-19T07:08:00Z</time>
      </trkpt>
      <trkpt lat="43.26737" lon="1.83627">
        <ele>266.2</ele>
        <time>2022-06-19T07:08:01Z</time>
      </trkpt>
      <trkpt lat="43.26751" lon="1.83632">
        <ele>264.4</ele>
        <time>2022-06-19T07:08:03Z</time>
      </trkpt>
      <trkpt lat="43.26763" lon="1.83635">
        <ele>263</ele>
        <time>2022-06-19T07:08:05Z</time>
      </trkpt>
      <trkpt lat="43.26776" lon="1.83639">
        <ele>261.8</ele>
        <time>2022-06-19T07:08:07Z</time>
      </trkpt>
      <trkpt lat="43.26789" lon="1.83643">
        <ele>260.2</ele>
        <time>2022-06-19T07:08:09Z</time>
      </trkpt>
      <trkpt lat="43.26802" lon="1.83646">
        <ele>259.2</ele>
        <time>2022-06-19T07:08:11Z</time>
      </trkpt>
      <trkpt lat="43.26809" lon="1.83648">
        <ele>258.8</ele>
        <time>2022-06-19T07:08:12Z</time>
      </trkpt>
      <trkpt lat="43.26821" lon="1.83652">
        <ele>257.8</ele>
        <time>2022-06-19T07:08:14Z</time>
      </trkpt>
      <trkpt lat="43.2684" lon="1.83658">
        <ele>256.4</ele>
        <time>2022-06-19T07:08:17Z</time>
      </trkpt>
      <trkpt lat="43.26858" lon="1.83664">
        <ele>255.4</ele>
        <time>2022-06-19T07:08:20Z</time>
      </trkpt>
      <trkpt lat="43.26872" lon="1.83667">
        <ele>254.2</ele>
        <time>2022-06-19T07:08:23Z</time>
      </trkpt>
      <trkpt lat="43.26893" lon="1.83673">
        <ele>253</ele>
        <time>2022-06-19T07:08:26Z</time>
      </trkpt>
      <trkpt lat="43.26897" lon="1.83674">
        <ele>252.8</ele>
        <time>2022-06-19T07:08:27Z</time>
      </trkpt>
      <trkpt lat="43.26901" lon="1.83676">
        <ele>252.8</ele>
        <time>2022-06-19T07:08:28Z</time>
      </trkpt>
      <trkpt lat="43.26916" lon="1.83684">
        <ele>252</ele>
        <time>2022-06-19T07:08:31Z</time>
      </trkpt>
      <trkpt lat="43.26925" lon="1.83692">
        <ele>251.6</ele>
        <time>2022-06-19T07:08:33Z</time>
      </trkpt>
      <trkpt lat="43.26935" lon="1.83701">
        <ele>251.4</ele>
        <time>2022-06-19T07:08:35Z</time>
      </trkpt>
      <trkpt lat="43.26945" lon="1.83704">
        <ele>251.2</ele>
        <time>2022-06-19T07:08:37Z</time>
      </trkpt>
      <trkpt lat="43.26949" lon="1.83704">
        <ele>251</ele>
        <time>2022-06-19T07:08:38Z</time>
      </trkpt>
      <trkpt lat="43.26953" lon="1.83702">
        <ele>251</ele>
        <time>2022-06-19T07:08:39Z</time>
      </trkpt>
      <trkpt lat="43.26957" lon="1.83694">
        <ele>250.6</ele>
        <time>2022-06-19T07:08:41Z</time>
      </trkpt>
      <trkpt lat="43.26958" lon="1.83688">
        <ele>250.4</ele>
        <time>2022-06-19T07:08:42Z</time>
      </trkpt>
      <trkpt lat="43.26959" lon="1.83669">
        <ele>250</ele>
        <time>2022-06-19T07:08:45Z</time>
      </trkpt>
      <trkpt lat="43.26959" lon="1.83656">
        <ele>250</ele>
        <time>2022-06-19T07:08:47Z</time>
      </trkpt>
      <trkpt lat="43.2696" lon="1.83635">
        <ele>249.8</ele>
        <time>2022-06-19T07:08:50Z</time>
      </trkpt>
      <trkpt lat="43.26962" lon="1.83622">
        <ele>249.6</ele>
        <time>2022-06-19T07:08:52Z</time>
      </trkpt>
      <trkpt lat="43.26966" lon="1.83591">
        <ele>249.8</ele>
        <time>2022-06-19T07:08:56Z</time>
      </trkpt>
      <trkpt lat="43.26971" lon="1.83577">
        <ele>249.8</ele>
        <time>2022-06-19T07:08:58Z</time>
      </trkpt>
      <trkpt lat="43.26986" lon="1.83521">
        <ele>249.6</ele>
        <time>2022-06-19T07:09:05Z</time>
      </trkpt>
      <trkpt lat="43.2701" lon="1.83443">
        <ele>249.4</ele>
        <time>2022-06-19T07:09:15Z</time>
      </trkpt>
      <trkpt lat="43.27029" lon="1.83376">
        <ele>249.4</ele>
        <time>2022-06-19T07:09:23Z</time>
      </trkpt>
      <trkpt lat="43.27053" lon="1.83309">
        <ele>249</ele>
        <time>2022-06-19T07:09:31Z</time>
      </trkpt>
      <trkpt lat="43.27083" lon="1.83242">
        <ele>249</ele>
        <time>2022-06-19T07:09:39Z</time>
      </trkpt>
      <trkpt lat="43.27094" lon="1.83217">
        <ele>248.8</ele>
        <time>2022-06-19T07:09:42Z</time>
      </trkpt>
      <trkpt lat="43.27128" lon="1.83149">
        <ele>248.6</ele>
        <time>2022-06-19T07:09:50Z</time>
      </trkpt>
      <trkpt lat="43.27142" lon="1.83123">
        <ele>248.6</ele>
        <time>2022-06-19T07:09:53Z</time>
      </trkpt>
      <trkpt lat="43.27171" lon="1.83056">
        <ele>248.4</ele>
        <time>2022-06-19T07:10:00Z</time>
      </trkpt>
      <trkpt lat="43.27189" lon="1.82978">
        <ele>247.8</ele>
        <time>2022-06-19T07:10:07Z</time>
      </trkpt>
      <trkpt lat="43.27207" lon="1.82908">
        <ele>247</ele>
        <time>2022-06-19T07:10:13Z</time>
      </trkpt>
      <trkpt lat="43.27217" lon="1.82887">
        <ele>246.8</ele>
        <time>2022-06-19T07:10:15Z</time>
      </trkpt>
      <trkpt lat="43.27235" lon="1.82858">
        <ele>246.4</ele>
        <time>2022-06-19T07:10:18Z</time>
      </trkpt>
      <trkpt lat="43.27272" lon="1.82809">
        <ele>245.6</ele>
        <time>2022-06-19T07:10:24Z</time>
      </trkpt>
      <trkpt lat="43.27284" lon="1.82792">
        <ele>245.4</ele>
        <time>2022-06-19T07:10:26Z</time>
      </trkpt>
      <trkpt lat="43.27322" lon="1.82739">
        <ele>245</ele>
        <time>2022-06-19T07:10:33Z</time>
      </trkpt>
      <trkpt lat="43.27332" lon="1.82723">
        <ele>245</ele>
        <time>2022-06-19T07:10:35Z</time>
      </trkpt>
      <trkpt lat="43.27373" lon="1.82665">
        <ele>244.8</ele>
        <time>2022-06-19T07:10:43Z</time>
      </trkpt>
      <trkpt lat="43.27386" lon="1.82644">
        <ele>244.8</ele>
        <time>2022-06-19T07:10:46Z</time>
      </trkpt>
      <trkpt lat="43.27413" lon="1.82612">
        <ele>245.2</ele>
        <time>2022-06-19T07:10:52Z</time>
      </trkpt>
      <trkpt lat="43.27428" lon="1.82594">
        <ele>245.2</ele>
        <time>2022-06-19T07:10:57Z</time>
      </trkpt>
      <trkpt lat="43.27448" lon="1.82563">
        <ele>245</ele>
        <time>2022-06-19T07:11:03Z</time>
      </trkpt>
      <trkpt lat="43.27481" lon="1.82525">
        <ele>245.2</ele>
        <time>2022-06-19T07:11:10Z</time>
      </trkpt>
      <trkpt lat="43.27531" lon="1.82477">
        <ele>246</ele>
        <time>2022-06-19T07:11:19Z</time>
      </trkpt>
      <trkpt lat="43.27583" lon="1.82435">
        <ele>246.6</ele>
        <time>2022-06-19T07:11:28Z</time>
      </trkpt>
      <trkpt lat="43.27588" lon="1.82431">
        <ele>246.6</ele>
        <time>2022-06-19T07:11:29Z</time>
      </trkpt>
      <trkpt lat="43.27613" lon="1.82405">
        <ele>247.4</ele>
        <time>2022-06-19T07:11:34Z</time>
      </trkpt>
      <trkpt lat="43.2762" lon="1.82394">
        <ele>247.4</ele>
        <time>2022-06-19T07:11:36Z</time>
      </trkpt>
      <trkpt lat="43.27631" lon="1.82372">
        <ele>247.8</ele>
        <time>2022-06-19T07:11:39Z</time>
      </trkpt>
      <trkpt lat="43.27645" lon="1.82327">
        <ele>248.2</ele>
        <time>2022-06-19T07:11:44Z</time>
      </trkpt>
      <trkpt lat="43.2766" lon="1.82296">
        <ele>248.2</ele>
        <time>2022-06-19T07:11:47Z</time>
      </trkpt>
      <trkpt lat="43.27664" lon="1.82289">
        <ele>248.2</ele>
        <time>2022-06-19T07:11:48Z</time>
      </trkpt>
      <trkpt lat="43.27707" lon="1.82238">
        <ele>248.2</ele>
        <time>2022-06-19T07:11:55Z</time>
      </trkpt>
      <trkpt lat="43.27739" lon="1.82193">
        <ele>247.4</ele>
        <time>2022-06-19T07:12:01Z</time>
      </trkpt>
      <trkpt lat="43.27781" lon="1.82134">
        <ele>247.4</ele>
        <time>2022-06-19T07:12:09Z</time>
      </trkpt>
      <trkpt lat="43.27786" lon="1.82127">
        <ele>247.4</ele>
        <time>2022-06-19T07:12:10Z</time>
      </trkpt>
      <trkpt lat="43.27821" lon="1.82084">
        <ele>247.8</ele>
        <time>2022-06-19T07:12:16Z</time>
      </trkpt>
      <trkpt lat="43.27858" lon="1.82023">
        <ele>248.2</ele>
        <time>2022-06-19T07:12:23Z</time>
      </trkpt>
      <trkpt lat="43.27863" lon="1.82014">
        <ele>248.2</ele>
        <time>2022-06-19T07:12:24Z</time>
      </trkpt>
      <trkpt lat="43.279" lon="1.81952">
        <ele>247.6</ele>
        <time>2022-06-19T07:12:31Z</time>
      </trkpt>
      <trkpt lat="43.27927" lon="1.81907">
        <ele>247.4</ele>
        <time>2022-06-19T07:12:36Z</time>
      </trkpt>
      <trkpt lat="43.27954" lon="1.81859">
        <ele>246.8</ele>
        <time>2022-06-19T07:12:41Z</time>
      </trkpt>
      <trkpt lat="43.27979" lon="1.81809">
        <ele>246.2</ele>
        <time>2022-06-19T07:12:46Z</time>
      </trkpt>
      <trkpt lat="43.27983" lon="1.81798">
        <ele>246</ele>
        <time>2022-06-19T07:12:47Z</time>
      </trkpt>
      <trkpt lat="43.27985" lon="1.81786">
        <ele>245.8</ele>
        <time>2022-06-19T07:12:48Z</time>
      </trkpt>
      <trkpt lat="43.27989" lon="1.81761">
        <ele>245.4</ele>
        <time>2022-06-19T07:12:50Z</time>
      </trkpt>
      <trkpt lat="43.27999" lon="1.81709">
        <ele>244.8</ele>
        <time>2022-06-19T07:12:54Z</time>
      </trkpt>
      <trkpt lat="43.28003" lon="1.81697">
        <ele>244.6</ele>
        <time>2022-06-19T07:12:55Z</time>
      </trkpt>
      <trkpt lat="43.28008" lon="1.81686">
        <ele>244.4</ele>
        <time>2022-06-19T07:12:56Z</time>
      </trkpt>
      <trkpt lat="43.2802" lon="1.81666">
        <ele>244.2</ele>
        <time>2022-06-19T07:12:58Z</time>
      </trkpt>
      <trkpt lat="43.2804" lon="1.81627">
        <ele>243.6</ele>
        <time>2022-06-19T07:13:02Z</time>
      </trkpt>
      <trkpt lat="43.28049" lon="1.81607">
        <ele>243.4</ele>
        <time>2022-06-19T07:13:04Z</time>
      </trkpt>
      <trkpt lat="43.28066" lon="1.81566">
        <ele>243</ele>
        <time>2022-06-19T07:13:08Z</time>
      </trkpt>
      <trkpt lat="43.28082" lon="1.81525">
        <ele>242.4</ele>
        <time>2022-06-19T07:13:12Z</time>
      </trkpt>
      <trkpt lat="43.28115" lon="1.81453">
        <ele>241.8</ele>
        <time>2022-06-19T07:13:19Z</time>
      </trkpt>
      <trkpt lat="43.2812" lon="1.81443">
        <ele>241.8</ele>
        <time>2022-06-19T07:13:20Z</time>
      </trkpt>
      <trkpt lat="43.28126" lon="1.81433">
        <ele>241.4</ele>
        <time>2022-06-19T07:13:21Z</time>
      </trkpt>
      <trkpt lat="43.28162" lon="1.81365">
        <ele>241</ele>
        <time>2022-06-19T07:13:28Z</time>
      </trkpt>
      <trkpt lat="43.28178" lon="1.81337">
        <ele>241</ele>
        <time>2022-06-19T07:13:31Z</time>
      </trkpt>
      <trkpt lat="43.28216" lon="1.81279">
        <ele>241</ele>
        <time>2022-06-19T07:13:38Z</time>
      </trkpt>
      <trkpt lat="43.28254" lon="1.8122">
        <ele>241</ele>
        <time>2022-06-19T07:13:45Z</time>
      </trkpt>
      <trkpt lat="43.28265" lon="1.81203">
        <ele>241</ele>
        <time>2022-06-19T07:13:47Z</time>
      </trkpt>
      <trkpt lat="43.28303" lon="1.81138">
        <ele>241</ele>
        <time>2022-06-19T07:13:54Z</time>
      </trkpt>
      <trkpt lat="43.28319" lon="1.81112">
        <ele>241</ele>
        <time>2022-06-19T07:13:57Z</time>
      </trkpt>
      <trkpt lat="43.28355" lon="1.81057">
        <ele>240.8</ele>
        <time>2022-06-19T07:14:03Z</time>
      </trkpt>
      <trkpt lat="43.28367" lon="1.81038">
        <ele>240.6</ele>
        <time>2022-06-19T07:14:05Z</time>
      </trkpt>
      <trkpt lat="43.2838" lon="1.81005">
        <ele>240.4</ele>
        <time>2022-06-19T07:14:08Z</time>
      </trkpt>
      <trkpt lat="43.28384" lon="1.80994">
        <ele>240.2</ele>
        <time>2022-06-19T07:14:09Z</time>
      </trkpt>
      <trkpt lat="43.28406" lon="1.80938">
        <ele>239.4</ele>
        <time>2022-06-19T07:14:14Z</time>
      </trkpt>
      <trkpt lat="43.28412" lon="1.80928">
        <ele>239.4</ele>
        <time>2022-06-19T07:14:15Z</time>
      </trkpt>
      <trkpt lat="43.28438" lon="1.80891">
        <ele>239.2</ele>
        <time>2022-06-19T07:14:19Z</time>
      </trkpt>
      <trkpt lat="43.28477" lon="1.80836">
        <ele>239.2</ele>
        <time>2022-06-19T07:14:25Z</time>
      </trkpt>
      <trkpt lat="43.28502" lon="1.80801">
        <ele>239.2</ele>
        <time>2022-06-19T07:14:29Z</time>
      </trkpt>
      <trkpt lat="43.28551" lon="1.80746">
        <ele>239</ele>
        <time>2022-06-19T07:14:36Z</time>
      </trkpt>
      <trkpt lat="43.28565" lon="1.80729">
        <ele>239</ele>
        <time>2022-06-19T07:14:38Z</time>
      </trkpt>
      <trkpt lat="43.28607" lon="1.80676">
        <ele>238.8</ele>
        <time>2022-06-19T07:14:44Z</time>
      </trkpt>
      <trkpt lat="43.2862" lon="1.8066">
        <ele>238.8</ele>
        <time>2022-06-19T07:14:46Z</time>
      </trkpt>
      <trkpt lat="43.28655" lon="1.80622">
        <ele>238.6</ele>
        <time>2022-06-19T07:14:51Z</time>
      </trkpt>
      <trkpt lat="43.28682" lon="1.80594">
        <ele>238.4</ele>
        <time>2022-06-19T07:14:55Z</time>
      </trkpt>
      <trkpt lat="43.2873" lon="1.80545">
        <ele>238.2</ele>
        <time>2022-06-19T07:15:02Z</time>
      </trkpt>
      <trkpt lat="43.28761" lon="1.80515">
        <ele>238</ele>
        <time>2022-06-19T07:15:06Z</time>
      </trkpt>
      <trkpt lat="43.28806" lon="1.8046">
        <ele>237.8</ele>
        <time>2022-06-19T07:15:13Z</time>
      </trkpt>
      <trkpt lat="43.28837" lon="1.80403">
        <ele>237.6</ele>
        <time>2022-06-19T07:15:19Z</time>
      </trkpt>
      <trkpt lat="43.28843" lon="1.80392">
        <ele>237.4</ele>
        <time>2022-06-19T07:15:20Z</time>
      </trkpt>
      <trkpt lat="43.28876" lon="1.80327">
        <ele>236.4</ele>
        <time>2022-06-19T07:15:27Z</time>
      </trkpt>
      <trkpt lat="43.289" lon="1.8028">
        <ele>236</ele>
        <time>2022-06-19T07:15:32Z</time>
      </trkpt>
      <trkpt lat="43.2892" lon="1.80241">
        <ele>235.4</ele>
        <time>2022-06-19T07:15:36Z</time>
      </trkpt>
      <trkpt lat="43.28943" lon="1.80196">
        <ele>235.4</ele>
        <time>2022-06-19T07:15:41Z</time>
      </trkpt>
      <trkpt lat="43.28978" lon="1.80128">
        <ele>235</ele>
        <time>2022-06-19T07:15:49Z</time>
      </trkpt>
      <trkpt lat="43.29" lon="1.80085">
        <ele>234.6</ele>
        <time>2022-06-19T07:15:54Z</time>
      </trkpt>
      <trkpt lat="43.2903" lon="1.80028">
        <ele>234.2</ele>
        <time>2022-06-19T07:16:01Z</time>
      </trkpt>
      <trkpt lat="43.29062" lon="1.79964">
        <ele>234</ele>
        <time>2022-06-19T07:16:08Z</time>
      </trkpt>
      <trkpt lat="43.29075" lon="1.7994">
        <ele>233.4</ele>
        <time>2022-06-19T07:16:11Z</time>
      </trkpt>
      <trkpt lat="43.2908" lon="1.79932">
        <ele>233.4</ele>
        <time>2022-06-19T07:16:12Z</time>
      </trkpt>
      <trkpt lat="43.29111" lon="1.79871">
        <ele>232.8</ele>
        <time>2022-06-19T07:16:19Z</time>
      </trkpt>
      <trkpt lat="43.2912" lon="1.79854">
        <ele>232.8</ele>
        <time>2022-06-19T07:16:21Z</time>
      </trkpt>
      <trkpt lat="43.29155" lon="1.79786">
        <ele>232.6</ele>
        <time>2022-06-19T07:16:29Z</time>
      </trkpt>
      <trkpt lat="43.29164" lon="1.79767">
        <ele>232.6</ele>
        <time>2022-06-19T07:16:31Z</time>
      </trkpt>
      <trkpt lat="43.29183" lon="1.7973">
        <ele>232.4</ele>
        <time>2022-06-19T07:16:35Z</time>
      </trkpt>
      <trkpt lat="43.29205" lon="1.79695">
        <ele>232.2</ele>
        <time>2022-06-19T07:16:39Z</time>
      </trkpt>
      <trkpt lat="43.29238" lon="1.79663">
        <ele>232.2</ele>
        <time>2022-06-19T07:16:44Z</time>
      </trkpt>
      <trkpt lat="43.29285" lon="1.79628">
        <ele>232.4</ele>
        <time>2022-06-19T07:16:51Z</time>
      </trkpt>
      <trkpt lat="43.29328" lon="1.79589">
        <ele>233.2</ele>
        <time>2022-06-19T07:16:58Z</time>
      </trkpt>
      <trkpt lat="43.29355" lon="1.79554">
        <ele>233.4</ele>
        <time>2022-06-19T07:17:03Z</time>
      </trkpt>
      <trkpt lat="43.29374" lon="1.79526">
        <ele>233.6</ele>
        <time>2022-06-19T07:17:07Z</time>
      </trkpt>
      <trkpt lat="43.29407" lon="1.79482">
        <ele>233.8</ele>
        <time>2022-06-19T07:17:14Z</time>
      </trkpt>
      <trkpt lat="43.29411" lon="1.79476">
        <ele>233.8</ele>
        <time>2022-06-19T07:17:15Z</time>
      </trkpt>
      <trkpt lat="43.29441" lon="1.79438">
        <ele>234</ele>
        <time>2022-06-19T07:17:21Z</time>
      </trkpt>
      <trkpt lat="43.29485" lon="1.79386">
        <ele>234</ele>
        <time>2022-06-19T07:17:29Z</time>
      </trkpt>
      <trkpt lat="43.29501" lon="1.79367">
        <ele>234</ele>
        <time>2022-06-19T07:17:32Z</time>
      </trkpt>
      <trkpt lat="43.29526" lon="1.79335">
        <ele>234</ele>
        <time>2022-06-19T07:17:37Z</time>
      </trkpt>
      <trkpt lat="43.29537" lon="1.79324">
        <ele>234</ele>
        <time>2022-06-19T07:17:39Z</time>
      </trkpt>
      <trkpt lat="43.29567" lon="1.79288">
        <ele>233.8</ele>
        <time>2022-06-19T07:17:45Z</time>
      </trkpt>
      <trkpt lat="43.29606" lon="1.79236">
        <ele>233.4</ele>
        <time>2022-06-19T07:17:53Z</time>
      </trkpt>
      <trkpt lat="43.29645" lon="1.79175">
        <ele>233.2</ele>
        <time>2022-06-19T07:18:01Z</time>
      </trkpt>
      <trkpt lat="43.2965" lon="1.79168">
        <ele>233.2</ele>
        <time>2022-06-19T07:18:02Z</time>
      </trkpt>
      <trkpt lat="43.29687" lon="1.79113">
        <ele>232.6</ele>
        <time>2022-06-19T07:18:10Z</time>
      </trkpt>
      <trkpt lat="43.2971" lon="1.79078">
        <ele>232.4</ele>
        <time>2022-06-19T07:18:15Z</time>
      </trkpt>
      <trkpt lat="43.2973" lon="1.7904">
        <ele>232.4</ele>
        <time>2022-06-19T07:18:20Z</time>
      </trkpt>
      <trkpt lat="43.29758" lon="1.78987">
        <ele>232.4</ele>
        <time>2022-06-19T07:18:27Z</time>
      </trkpt>
      <trkpt lat="43.29774" lon="1.78936">
        <ele>232.4</ele>
        <time>2022-06-19T07:18:33Z</time>
      </trkpt>
      <trkpt lat="43.29785" lon="1.78865">
        <ele>232.2</ele>
        <time>2022-06-19T07:18:41Z</time>
      </trkpt>
      <trkpt lat="43.29792" lon="1.78803">
        <ele>232</ele>
        <time>2022-06-19T07:18:48Z</time>
      </trkpt>
      <trkpt lat="43.29808" lon="1.78725">
        <ele>232.2</ele>
        <time>2022-06-19T07:18:57Z</time>
      </trkpt>
      <trkpt lat="43.29824" lon="1.78659">
        <ele>232</ele>
        <time>2022-06-19T07:19:05Z</time>
      </trkpt>
      <trkpt lat="43.29832" lon="1.78619">
        <ele>231.8</ele>
        <time>2022-06-19T07:19:10Z</time>
      </trkpt>
      <trkpt lat="43.29836" lon="1.78607">
        <ele>232</ele>
        <time>2022-06-19T07:19:12Z</time>
      </trkpt>
      <trkpt lat="43.29838" lon="1.786">
        <ele>232</ele>
        <time>2022-06-19T07:19:13Z</time>
      </trkpt>
      <trkpt lat="43.29839" lon="1.78585">
        <ele>232.2</ele>
        <time>2022-06-19T07:19:16Z</time>
      </trkpt>
      <trkpt lat="43.29842" lon="1.78568">
        <ele>232.6</ele>
        <time>2022-06-19T07:19:21Z</time>
      </trkpt>
      <trkpt lat="43.29857" lon="1.78551">
        <ele>233.2</ele>
        <time>2022-06-19T07:19:27Z</time>
      </trkpt>
      <trkpt lat="43.29863" lon="1.78549">
        <ele>233.8</ele>
        <time>2022-06-19T07:19:29Z</time>
      </trkpt>
      <trkpt lat="43.29875" lon="1.78541">
        <ele>234.6</ele>
        <time>2022-06-19T07:19:34Z</time>
      </trkpt>
      <trkpt lat="43.29878" lon="1.78539">
        <ele>235</ele>
        <time>2022-06-19T07:19:35Z</time>
      </trkpt>
      <trkpt lat="43.29896" lon="1.78524">
        <ele>235.6</ele>
        <time>2022-06-19T07:19:40Z</time>
      </trkpt>
      <trkpt lat="43.29907" lon="1.78512">
        <ele>236</ele>
        <time>2022-06-19T07:19:43Z</time>
      </trkpt>
      <trkpt lat="43.2991" lon="1.78507">
        <ele>236</ele>
        <time>2022-06-19T07:19:44Z</time>
      </trkpt>
      <trkpt lat="43.29913" lon="1.78501">
        <ele>236.2</ele>
        <time>2022-06-19T07:19:45Z</time>
      </trkpt>
      <trkpt lat="43.29936" lon="1.78464">
        <ele>236.4</ele>
        <time>2022-06-19T07:19:51Z</time>
      </trkpt>
      <trkpt lat="43.29967" lon="1.78414">
        <ele>235.6</ele>
        <time>2022-06-19T07:19:58Z</time>
      </trkpt>
      <trkpt lat="43.29986" lon="1.78372">
        <ele>235.2</ele>
        <time>2022-06-19T07:20:04Z</time>
      </trkpt>
      <trkpt lat="43.29993" lon="1.78358">
        <ele>235.2</ele>
        <time>2022-06-19T07:20:06Z</time>
      </trkpt>
      <trkpt lat="43.30014" lon="1.7831">
        <ele>234.6</ele>
        <time>2022-06-19T07:20:13Z</time>
      </trkpt>
      <trkpt lat="43.30024" lon="1.78286">
        <ele>234.2</ele>
        <time>2022-06-19T07:20:17Z</time>
      </trkpt>
      <trkpt lat="43.30027" lon="1.78279">
        <ele>234</ele>
        <time>2022-06-19T07:20:18Z</time>
      </trkpt>
      <trkpt lat="43.30043" lon="1.78241">
        <ele>233.2</ele>
        <time>2022-06-19T07:20:24Z</time>
      </trkpt>
      <trkpt lat="43.30044" lon="1.78228">
        <ele>233.2</ele>
        <time>2022-06-19T07:20:26Z</time>
      </trkpt>
      <trkpt lat="43.30039" lon="1.78217">
        <ele>233</ele>
        <time>2022-06-19T07:20:28Z</time>
      </trkpt>
      <trkpt lat="43.30035" lon="1.78212">
        <ele>233</ele>
        <time>2022-06-19T07:20:29Z</time>
      </trkpt>
      <trkpt lat="43.30031" lon="1.78208">
        <ele>233</ele>
        <time>2022-06-19T07:20:30Z</time>
      </trkpt>
      <trkpt lat="43.30019" lon="1.78195">
        <ele>233</ele>
        <time>2022-06-19T07:20:33Z</time>
      </trkpt>
      <trkpt lat="43.30016" lon="1.78189">
        <ele>232.8</ele>
        <time>2022-06-19T07:20:34Z</time>
      </trkpt>
      <trkpt lat="43.30013" lon="1.78182">
        <ele>232.8</ele>
        <time>2022-06-19T07:20:35Z</time>
      </trkpt>
      <trkpt lat="43.3001" lon="1.78168">
        <ele>232.6</ele>
        <time>2022-06-19T07:20:37Z</time>
      </trkpt>
      <trkpt lat="43.3001" lon="1.7816">
        <ele>232.4</ele>
        <time>2022-06-19T07:20:38Z</time>
      </trkpt>
      <trkpt lat="43.3001" lon="1.78153">
        <ele>232.4</ele>
        <time>2022-06-19T07:20:39Z</time>
      </trkpt>
      <trkpt lat="43.30014" lon="1.78131">
        <ele>232.2</ele>
        <time>2022-06-19T07:20:42Z</time>
      </trkpt>
      <trkpt lat="43.30019" lon="1.78112">
        <ele>232</ele>
        <time>2022-06-19T07:20:44Z</time>
      </trkpt>
      <trkpt lat="43.30024" lon="1.78085">
        <ele>231.8</ele>
        <time>2022-06-19T07:20:47Z</time>
      </trkpt>
      <trkpt lat="43.30026" lon="1.78067">
        <ele>231.8</ele>
        <time>2022-06-19T07:20:49Z</time>
      </trkpt>
      <trkpt lat="43.30028" lon="1.77998">
        <ele>231.4</ele>
        <time>2022-06-19T07:20:57Z</time>
      </trkpt>
      <trkpt lat="43.30028" lon="1.7795">
        <ele>231.2</ele>
        <time>2022-06-19T07:21:02Z</time>
      </trkpt>
      <trkpt lat="43.30033" lon="1.77927">
        <ele>231.2</ele>
        <time>2022-06-19T07:21:04Z</time>
      </trkpt>
      <trkpt lat="43.30037" lon="1.77918">
        <ele>231.2</ele>
        <time>2022-06-19T07:21:05Z</time>
      </trkpt>
      <trkpt lat="43.30058" lon="1.77883">
        <ele>231.2</ele>
        <time>2022-06-19T07:21:10Z</time>
      </trkpt>
      <trkpt lat="43.30063" lon="1.77877">
        <ele>231</ele>
        <time>2022-06-19T07:21:11Z</time>
      </trkpt>
      <trkpt lat="43.30084" lon="1.77854">
        <ele>230.6</ele>
        <time>2022-06-19T07:21:16Z</time>
      </trkpt>
      <trkpt lat="43.30123" lon="1.77814">
        <ele>230.2</ele>
        <time>2022-06-19T07:21:24Z</time>
      </trkpt>
      <trkpt lat="43.30152" lon="1.77767">
        <ele>230</ele>
        <time>2022-06-19T07:21:31Z</time>
      </trkpt>
      <trkpt lat="43.30176" lon="1.77712">
        <ele>229.8</ele>
        <time>2022-06-19T07:21:39Z</time>
      </trkpt>
      <trkpt lat="43.30183" lon="1.77697">
        <ele>229.8</ele>
        <time>2022-06-19T07:21:40Z</time>
      </trkpt>
      <trkpt lat="43.302" lon="1.77671">
        <ele>229.6</ele>
        <time>2022-06-19T07:21:44Z</time>
      </trkpt>
      <trkpt lat="43.3023" lon="1.77633">
        <ele>229</ele>
        <time>2022-06-19T07:21:50Z</time>
      </trkpt>
      <trkpt lat="43.30235" lon="1.77626">
        <ele>228.8</ele>
        <time>2022-06-19T07:21:51Z</time>
      </trkpt>
      <trkpt lat="43.30261" lon="1.77584">
        <ele>228.4</ele>
        <time>2022-06-19T07:21:57Z</time>
      </trkpt>
      <trkpt lat="43.3027" lon="1.77571">
        <ele>228.6</ele>
        <time>2022-06-19T07:21:59Z</time>
      </trkpt>
      <trkpt lat="43.30289" lon="1.77549">
        <ele>228.6</ele>
        <time>2022-06-19T07:22:03Z</time>
      </trkpt>
      <trkpt lat="43.30325" lon="1.77509">
        <ele>228.8</ele>
        <time>2022-06-19T07:22:10Z</time>
      </trkpt>
      <trkpt lat="43.30363" lon="1.77462">
        <ele>228.6</ele>
        <time>2022-06-19T07:22:18Z</time>
      </trkpt>
      <trkpt lat="43.304" lon="1.77414">
        <ele>228.6</ele>
        <time>2022-06-19T07:22:26Z</time>
      </trkpt>
      <trkpt lat="43.30436" lon="1.7736">
        <ele>228.8</ele>
        <time>2022-06-19T07:22:34Z</time>
      </trkpt>
      <trkpt lat="43.30468" lon="1.77314">
        <ele>228.6</ele>
        <time>2022-06-19T07:22:41Z</time>
      </trkpt>
      <trkpt lat="43.30505" lon="1.77259">
        <ele>228</ele>
        <time>2022-06-19T07:22:49Z</time>
      </trkpt>
      <trkpt lat="43.30515" lon="1.77245">
        <ele>227.8</ele>
        <time>2022-06-19T07:22:51Z</time>
      </trkpt>
      <trkpt lat="43.3055" lon="1.77197">
        <ele>227.6</ele>
        <time>2022-06-19T07:22:58Z</time>
      </trkpt>
      <trkpt lat="43.30592" lon="1.77141">
        <ele>226.8</ele>
        <time>2022-06-19T07:23:06Z</time>
      </trkpt>
      <trkpt lat="43.30597" lon="1.77135">
        <ele>226.8</ele>
        <time>2022-06-19T07:23:07Z</time>
      </trkpt>
      <trkpt lat="43.30601" lon="1.77128">
        <ele>226.6</ele>
        <time>2022-06-19T07:23:08Z</time>
      </trkpt>
      <trkpt lat="43.30637" lon="1.77072">
        <ele>226.2</ele>
        <time>2022-06-19T07:23:16Z</time>
      </trkpt>
      <trkpt lat="43.30654" lon="1.77041">
        <ele>226.2</ele>
        <time>2022-06-19T07:23:20Z</time>
      </trkpt>
      <trkpt lat="43.30665" lon="1.7703">
        <ele>225.8</ele>
        <time>2022-06-19T07:23:22Z</time>
      </trkpt>
      <trkpt lat="43.30674" lon="1.77026">
        <ele>225.6</ele>
        <time>2022-06-19T07:23:24Z</time>
      </trkpt>
      <trkpt lat="43.30682" lon="1.77023">
        <ele>225.4</ele>
        <time>2022-06-19T07:23:26Z</time>
      </trkpt>
      <trkpt lat="43.30705" lon="1.77014">
        <ele>224.8</ele>
        <time>2022-06-19T07:23:31Z</time>
      </trkpt>
      <trkpt lat="43.30705" lon="1.77014">
        <ele>224.8</ele>
        <time>2022-06-19T07:23:32Z</time>
      </trkpt>
      <trkpt lat="43.3072" lon="1.77001">
        <ele>224.8</ele>
        <time>2022-06-19T07:23:34Z</time>
      </trkpt>
      <trkpt lat="43.30728" lon="1.76991">
        <ele>224.8</ele>
        <time>2022-06-19T07:23:37Z</time>
      </trkpt>
      <trkpt lat="43.30775" lon="1.76935">
        <ele>224.4</ele>
        <time>2022-06-19T07:23:46Z</time>
      </trkpt>
      <trkpt lat="43.308" lon="1.76904">
        <ele>223.6</ele>
        <time>2022-06-19T07:23:52Z</time>
      </trkpt>
      <trkpt lat="43.30805" lon="1.76898">
        <ele>223.4</ele>
        <time>2022-06-19T07:23:53Z</time>
      </trkpt>
      <trkpt lat="43.30855" lon="1.76844">
        <ele>222.4</ele>
        <time>2022-06-19T07:24:01Z</time>
      </trkpt>
      <trkpt lat="43.30893" lon="1.76794">
        <ele>221.8</ele>
        <time>2022-06-19T07:24:08Z</time>
      </trkpt>
      <trkpt lat="43.30934" lon="1.76746">
        <ele>221.4</ele>
        <time>2022-06-19T07:24:16Z</time>
      </trkpt>
      <trkpt lat="43.30968" lon="1.76705">
        <ele>221</ele>
        <time>2022-06-19T07:24:21Z</time>
      </trkpt>
      <trkpt lat="43.30981" lon="1.76692">
        <ele>221</ele>
        <time>2022-06-19T07:24:23Z</time>
      </trkpt>
      <trkpt lat="43.30988" lon="1.76687">
        <ele>221</ele>
        <time>2022-06-19T07:24:24Z</time>
      </trkpt>
      <trkpt lat="43.31035" lon="1.76642">
        <ele>220.8</ele>
        <time>2022-06-19T07:24:31Z</time>
      </trkpt>
      <trkpt lat="43.3105" lon="1.76629">
        <ele>220.8</ele>
        <time>2022-06-19T07:24:33Z</time>
      </trkpt>
      <trkpt lat="43.31063" lon="1.7662">
        <ele>220.6</ele>
        <time>2022-06-19T07:24:36Z</time>
      </trkpt>
      <trkpt lat="43.31115" lon="1.76584">
        <ele>220.4</ele>
        <time>2022-06-19T07:24:42Z</time>
      </trkpt>
      <trkpt lat="43.31136" lon="1.76568">
        <ele>220.4</ele>
        <time>2022-06-19T07:24:46Z</time>
      </trkpt>
      <trkpt lat="43.31143" lon="1.76563">
        <ele>220.4</ele>
        <time>2022-06-19T07:24:47Z</time>
      </trkpt>
      <trkpt lat="43.31196" lon="1.76528">
        <ele>220.2</ele>
        <time>2022-06-19T07:24:54Z</time>
      </trkpt>
      <trkpt lat="43.31196" lon="1.76528">
        <ele>220.2</ele>
        <time>2022-06-19T07:24:55Z</time>
      </trkpt>
      <trkpt lat="43.3123" lon="1.76502">
        <ele>220.4</ele>
        <time>2022-06-19T07:25:01Z</time>
      </trkpt>
      <trkpt lat="43.31264" lon="1.76476">
        <ele>220.4</ele>
        <time>2022-06-19T07:25:07Z</time>
      </trkpt>
      <trkpt lat="43.31309" lon="1.76439">
        <ele>219.6</ele>
        <time>2022-06-19T07:25:16Z</time>
      </trkpt>
      <trkpt lat="43.31353" lon="1.76404">
        <ele>219.6</ele>
        <time>2022-06-19T07:25:25Z</time>
      </trkpt>
      <trkpt lat="43.31374" lon="1.76388">
        <ele>219.2</ele>
        <time>2022-06-19T07:25:29Z</time>
      </trkpt>
      <trkpt lat="43.31404" lon="1.76363">
        <ele>218.8</ele>
        <time>2022-06-19T07:25:35Z</time>
      </trkpt>
      <trkpt lat="43.31431" lon="1.76342">
        <ele>218.2</ele>
        <time>2022-06-19T07:25:40Z</time>
      </trkpt>
      <trkpt lat="43.31463" lon="1.76318">
        <ele>218</ele>
        <time>2022-06-19T07:25:46Z</time>
      </trkpt>
      <trkpt lat="43.31501" lon="1.7629">
        <ele>218</ele>
        <time>2022-06-19T07:25:54Z</time>
      </trkpt>
      <trkpt lat="43.31506" lon="1.76288">
        <ele>218</ele>
        <time>2022-06-19T07:25:55Z</time>
      </trkpt>
      <trkpt lat="43.31529" lon="1.76274">
        <ele>218.2</ele>
        <time>2022-06-19T07:26:00Z</time>
      </trkpt>
      <trkpt lat="43.31561" lon="1.76255">
        <ele>218.2</ele>
        <time>2022-06-19T07:26:07Z</time>
      </trkpt>
      <trkpt lat="43.31571" lon="1.76249">
        <ele>218.4</ele>
        <time>2022-06-19T07:26:09Z</time>
      </trkpt>
      <trkpt lat="43.31599" lon="1.76232">
        <ele>219.2</ele>
        <time>2022-06-19T07:26:15Z</time>
      </trkpt>
      <trkpt lat="43.31617" lon="1.76223">
        <ele>219.4</ele>
        <time>2022-06-19T07:26:19Z</time>
      </trkpt>
      <trkpt lat="43.31654" lon="1.76209">
        <ele>219.2</ele>
        <time>2022-06-19T07:26:27Z</time>
      </trkpt>
      <trkpt lat="43.31704" lon="1.76191">
        <ele>219.2</ele>
        <time>2022-06-19T07:26:38Z</time>
      </trkpt>
      <trkpt lat="43.31738" lon="1.76176">
        <ele>219.6</ele>
        <time>2022-06-19T07:26:44Z</time>
      </trkpt>
      <trkpt lat="43.31749" lon="1.76165">
        <ele>219.4</ele>
        <time>2022-06-19T07:26:47Z</time>
      </trkpt>
      <trkpt lat="43.31752" lon="1.76161">
        <ele>219.2</ele>
        <time>2022-06-19T07:26:48Z</time>
      </trkpt>
      <trkpt lat="43.31759" lon="1.76141">
        <ele>218.6</ele>
        <time>2022-06-19T07:26:52Z</time>
      </trkpt>
      <trkpt lat="43.31761" lon="1.76136">
        <ele>218.2</ele>
        <time>2022-06-19T07:26:53Z</time>
      </trkpt>
      <trkpt lat="43.31763" lon="1.76131">
        <ele>218</ele>
        <time>2022-06-19T07:26:54Z</time>
      </trkpt>
      <trkpt lat="43.31769" lon="1.76123">
        <ele>217.6</ele>
        <time>2022-06-19T07:26:56Z</time>
      </trkpt>
      <trkpt lat="43.31786" lon="1.76109">
        <ele>217</ele>
        <time>2022-06-19T07:27:01Z</time>
      </trkpt>
      <trkpt lat="43.31805" lon="1.76094">
        <ele>216.6</ele>
        <time>2022-06-19T07:27:06Z</time>
      </trkpt>
      <trkpt lat="43.31843" lon="1.76074">
        <ele>216.6</ele>
        <time>2022-06-19T07:27:15Z</time>
      </trkpt>
      <trkpt lat="43.31885" lon="1.7605">
        <ele>216.8</ele>
        <time>2022-06-19T07:27:25Z</time>
      </trkpt>
      <trkpt lat="43.31923" lon="1.76027">
        <ele>217</ele>
        <time>2022-06-19T07:27:34Z</time>
      </trkpt>
      <trkpt lat="43.31963" lon="1.76015">
        <ele>217.4</ele>
        <time>2022-06-19T07:27:42Z</time>
      </trkpt>
      <trkpt lat="43.31994" lon="1.76007">
        <ele>217.6</ele>
        <time>2022-06-19T07:27:49Z</time>
      </trkpt>
      <trkpt lat="43.32023" lon="1.76">
        <ele>217.8</ele>
        <time>2022-06-19T07:27:56Z</time>
      </trkpt>
      <trkpt lat="43.32066" lon="1.75986">
        <ele>217.8</ele>
        <time>2022-06-19T07:28:07Z</time>
      </trkpt>
      <trkpt lat="43.3209" lon="1.75974">
        <ele>218</ele>
        <time>2022-06-19T07:28:14Z</time>
      </trkpt>
      <trkpt lat="43.32093" lon="1.75972">
        <ele>218</ele>
        <time>2022-06-19T07:28:15Z</time>
      </trkpt>
      <trkpt lat="43.32115" lon="1.75962">
        <ele>218.8</ele>
        <time>2022-06-19T07:28:21Z</time>
      </trkpt>
      <trkpt lat="43.32127" lon="1.7596">
        <ele>219.2</ele>
        <time>2022-06-19T07:28:24Z</time>
      </trkpt>
      <trkpt lat="43.32154" lon="1.75956">
        <ele>219.6</ele>
        <time>2022-06-19T07:28:30Z</time>
      </trkpt>
      <trkpt lat="43.32165" lon="1.75956">
        <ele>220.2</ele>
        <time>2022-06-19T07:28:32Z</time>
      </trkpt>
      <trkpt lat="43.32191" lon="1.75953">
        <ele>220.4</ele>
        <time>2022-06-19T07:28:38Z</time>
      </trkpt>
      <trkpt lat="43.3224" lon="1.75946">
        <ele>220</ele>
        <time>2022-06-19T07:28:46Z</time>
      </trkpt>
      <trkpt lat="43.32259" lon="1.75937">
        <ele>219.4</ele>
        <time>2022-06-19T07:28:51Z</time>
      </trkpt>
      <trkpt lat="43.32266" lon="1.75931">
        <ele>219.2</ele>
        <time>2022-06-19T07:28:54Z</time>
      </trkpt>
      <trkpt lat="43.32268" lon="1.75928">
        <ele>219</ele>
        <time>2022-06-19T07:28:55Z</time>
      </trkpt>
      <trkpt lat="43.3227" lon="1.75924">
        <ele>218.8</ele>
        <time>2022-06-19T07:28:56Z</time>
      </trkpt>
      <trkpt lat="43.32276" lon="1.75903">
        <ele>218</ele>
        <time>2022-06-19T07:29:00Z</time>
      </trkpt>
      <trkpt lat="43.3228" lon="1.75892">
        <ele>217.6</ele>
        <time>2022-06-19T07:29:02Z</time>
      </trkpt>
      <trkpt lat="43.32285" lon="1.75881">
        <ele>217</ele>
        <time>2022-06-19T07:29:04Z</time>
      </trkpt>
      <trkpt lat="43.32297" lon="1.75852">
        <ele>216</ele>
        <time>2022-06-19T07:29:09Z</time>
      </trkpt>
      <trkpt lat="43.3231" lon="1.75822">
        <ele>215</ele>
        <time>2022-06-19T07:29:14Z</time>
      </trkpt>
      <trkpt lat="43.32315" lon="1.75816">
        <ele>214.8</ele>
        <time>2022-06-19T07:29:15Z</time>
      </trkpt>
      <trkpt lat="43.32319" lon="1.75812">
        <ele>214.8</ele>
        <time>2022-06-19T07:29:16Z</time>
      </trkpt>
      <trkpt lat="43.32329" lon="1.75806">
        <ele>214.6</ele>
        <time>2022-06-19T07:29:18Z</time>
      </trkpt>
      <trkpt lat="43.32344" lon="1.758">
        <ele>213.8</ele>
        <time>2022-06-19T07:29:21Z</time>
      </trkpt>
      <trkpt lat="43.32392" lon="1.75791">
        <ele>213.4</ele>
        <time>2022-06-19T07:29:30Z</time>
      </trkpt>
      <trkpt lat="43.3243" lon="1.75782">
        <ele>213.2</ele>
        <time>2022-06-19T07:29:38Z</time>
      </trkpt>
      <trkpt lat="43.32439" lon="1.7578">
        <ele>213.2</ele>
        <time>2022-06-19T07:29:43Z</time>
      </trkpt>
      <trkpt lat="43.32455" lon="1.75776">
        <ele>213</ele>
        <time>2022-06-19T07:29:50Z</time>
      </trkpt>
      <trkpt lat="43.32465" lon="1.75774">
        <ele>213.2</ele>
        <time>2022-06-19T07:29:56Z</time>
      </trkpt>
      <trkpt lat="43.32466" lon="1.75771">
        <ele>213.2</ele>
        <time>2022-06-19T07:29:58Z</time>
      </trkpt>
      <trkpt lat="43.32466" lon="1.75763">
        <ele>213</ele>
        <time>2022-06-19T07:30:02Z</time>
      </trkpt>
      <trkpt lat="43.32466" lon="1.75756">
        <ele>212.8</ele>
        <time>2022-06-19T07:30:04Z</time>
      </trkpt>
      <trkpt lat="43.32467" lon="1.75744">
        <ele>212.6</ele>
        <time>2022-06-19T07:30:07Z</time>
      </trkpt>
      <trkpt lat="43.32464" lon="1.75719">
        <ele>212.8</ele>
        <time>2022-06-19T07:30:14Z</time>
      </trkpt>
      <trkpt lat="43.32461" lon="1.75692">
        <ele>213</ele>
        <time>2022-06-19T07:30:21Z</time>
      </trkpt>
      <trkpt lat="43.32457" lon="1.75681">
        <ele>213.4</ele>
        <time>2022-06-19T07:30:25Z</time>
      </trkpt>
      <trkpt lat="43.32456" lon="1.75674">
        <ele>213.6</ele>
        <time>2022-06-19T07:30:30Z</time>
      </trkpt>
      <trkpt lat="43.32462" lon="1.7567">
        <ele>213.8</ele>
        <time>2022-06-19T07:30:33Z</time>
      </trkpt>
      <trkpt lat="43.32472" lon="1.75664">
        <ele>214</ele>
        <time>2022-06-19T07:30:37Z</time>
      </trkpt>
      <trkpt lat="43.3249" lon="1.75663">
        <ele>214</ele>
        <time>2022-06-19T07:30:43Z</time>
      </trkpt>
      <trkpt lat="43.32491" lon="1.75664">
        <ele>214</ele>
        <time>2022-06-19T07:30:44Z</time>
      </trkpt>
      <trkpt lat="43.32493" lon="1.75665">
        <ele>214</ele>
        <time>2022-06-19T07:30:49Z</time>
      </trkpt>
      <trkpt lat="43.32493" lon="1.75661">
        <ele>212.6</ele>
        <time>2022-06-19T07:32:09Z</time>
      </trkpt>
      <trkpt lat="43.32478" lon="1.75663">
        <ele>212.4</ele>
        <time>2022-06-19T07:32:14Z</time>
      </trkpt>
      <trkpt lat="43.32467" lon="1.75667">
        <ele>212.4</ele>
        <time>2022-06-19T07:32:19Z</time>
      </trkpt>
      <trkpt lat="43.32466" lon="1.75669">
        <ele>212.4</ele>
        <time>2022-06-19T07:32:20Z</time>
      </trkpt>
      <trkpt lat="43.32463" lon="1.75673">
        <ele>212.4</ele>
        <time>2022-06-19T07:32:22Z</time>
      </trkpt>
      <trkpt lat="43.32461" lon="1.75678">
        <ele>212.6</ele>
        <time>2022-06-19T07:32:24Z</time>
      </trkpt>
      <trkpt lat="43.32464" lon="1.75696">
        <ele>212.8</ele>
        <time>2022-06-19T07:32:29Z</time>
      </trkpt>
      <trkpt lat="43.32463" lon="1.75699">
        <ele>212.8</ele>
        <time>2022-06-19T07:32:30Z</time>
      </trkpt>
      <trkpt lat="43.32468" lon="1.75728">
        <ele>213</ele>
        <time>2022-06-19T07:32:35Z</time>
      </trkpt>
      <trkpt lat="43.3247" lon="1.75742">
        <ele>213.2</ele>
        <time>2022-06-19T07:32:37Z</time>
      </trkpt>
      <trkpt lat="43.32475" lon="1.75759">
        <ele>213.2</ele>
        <time>2022-06-19T07:32:40Z</time>
      </trkpt>
      <trkpt lat="43.32469" lon="1.75776">
        <ele>213.2</ele>
        <time>2022-06-19T07:32:44Z</time>
      </trkpt>
      <trkpt lat="43.32451" lon="1.7578">
        <ele>213</ele>
        <time>2022-06-19T07:32:48Z</time>
      </trkpt>
      <trkpt lat="43.32431" lon="1.75778">
        <ele>213</ele>
        <time>2022-06-19T07:32:52Z</time>
      </trkpt>
      <trkpt lat="43.32422" lon="1.7578">
        <ele>213</ele>
        <time>2022-06-19T07:32:54Z</time>
      </trkpt>
      <trkpt lat="43.32392" lon="1.75784">
        <ele>212.8</ele>
        <time>2022-06-19T07:33:01Z</time>
      </trkpt>
      <trkpt lat="43.32385" lon="1.75785">
        <ele>212.6</ele>
        <time>2022-06-19T07:33:03Z</time>
      </trkpt>
      <trkpt lat="43.32351" lon="1.75793">
        <ele>212.6</ele>
        <time>2022-06-19T07:33:11Z</time>
      </trkpt>
      <trkpt lat="43.32337" lon="1.75797">
        <ele>212.6</ele>
        <time>2022-06-19T07:33:14Z</time>
      </trkpt>
      <trkpt lat="43.32319" lon="1.75805">
        <ele>212.6</ele>
        <time>2022-06-19T07:33:18Z</time>
      </trkpt>
      <trkpt lat="43.32316" lon="1.75808">
        <ele>212.6</ele>
        <time>2022-06-19T07:33:19Z</time>
      </trkpt>
      <trkpt lat="43.32312" lon="1.75813">
        <ele>212.6</ele>
        <time>2022-06-19T07:33:20Z</time>
      </trkpt>
      <trkpt lat="43.32302" lon="1.75826">
        <ele>212.4</ele>
        <time>2022-06-19T07:33:23Z</time>
      </trkpt>
      <trkpt lat="43.323" lon="1.75831">
        <ele>212.4</ele>
        <time>2022-06-19T07:33:24Z</time>
      </trkpt>
      <trkpt lat="43.32292" lon="1.75849">
        <ele>212.2</ele>
        <time>2022-06-19T07:33:27Z</time>
      </trkpt>
      <trkpt lat="43.32276" lon="1.75892">
        <ele>211.6</ele>
        <time>2022-06-19T07:33:35Z</time>
      </trkpt>
      <trkpt lat="43.32261" lon="1.75937">
        <ele>212</ele>
        <time>2022-06-19T07:33:44Z</time>
      </trkpt>
      <trkpt lat="43.32254" lon="1.75963">
        <ele>212.6</ele>
        <time>2022-06-19T07:33:50Z</time>
      </trkpt>
      <trkpt lat="43.32245" lon="1.75989">
        <ele>213.2</ele>
        <time>2022-06-19T07:33:56Z</time>
      </trkpt>
      <trkpt lat="43.32243" lon="1.75997">
        <ele>213.2</ele>
        <time>2022-06-19T07:33:58Z</time>
      </trkpt>
      <trkpt lat="43.32234" lon="1.76027">
        <ele>214</ele>
        <time>2022-06-19T07:34:06Z</time>
      </trkpt>
      <trkpt lat="43.32232" lon="1.76034">
        <ele>214.2</ele>
        <time>2022-06-19T07:34:08Z</time>
      </trkpt>
      <trkpt lat="43.32226" lon="1.76054">
        <ele>215.2</ele>
        <time>2022-06-19T07:34:14Z</time>
      </trkpt>
      <trkpt lat="43.32225" lon="1.76057">
        <ele>215.6</ele>
        <time>2022-06-19T07:34:15Z</time>
      </trkpt>
      <trkpt lat="43.32221" lon="1.76071">
        <ele>216.4</ele>
        <time>2022-06-19T07:34:19Z</time>
      </trkpt>
      <trkpt lat="43.32217" lon="1.76083">
        <ele>217.4</ele>
        <time>2022-06-19T07:34:23Z</time>
      </trkpt>
      <trkpt lat="43.32216" lon="1.76086">
        <ele>217.6</ele>
        <time>2022-06-19T07:34:24Z</time>
      </trkpt>
      <trkpt lat="43.32212" lon="1.76098">
        <ele>218.6</ele>
        <time>2022-06-19T07:34:28Z</time>
      </trkpt>
      <trkpt lat="43.32207" lon="1.76109">
        <ele>219.6</ele>
        <time>2022-06-19T07:34:32Z</time>
      </trkpt>
      <trkpt lat="43.32199" lon="1.76126">
        <ele>220.8</ele>
        <time>2022-06-19T07:34:38Z</time>
      </trkpt>
      <trkpt lat="43.32198" lon="1.76129">
        <ele>220.8</ele>
        <time>2022-06-19T07:34:39Z</time>
      </trkpt>
      <trkpt lat="43.32192" lon="1.76144">
        <ele>221.8</ele>
        <time>2022-06-19T07:34:44Z</time>
      </trkpt>
      <trkpt lat="43.32185" lon="1.76159">
        <ele>222.8</ele>
        <time>2022-06-19T07:34:49Z</time>
      </trkpt>
      <trkpt lat="43.32184" lon="1.76162">
        <ele>222.8</ele>
        <time>2022-06-19T07:34:50Z</time>
      </trkpt>
      <trkpt lat="43.32176" lon="1.7618">
        <ele>224</ele>
        <time>2022-06-19T07:34:56Z</time>
      </trkpt>
      <trkpt lat="43.32168" lon="1.76199">
        <ele>224.8</ele>
        <time>2022-06-19T07:35:02Z</time>
      </trkpt>
      <trkpt lat="43.32167" lon="1.76202">
        <ele>225.2</ele>
        <time>2022-06-19T07:35:03Z</time>
      </trkpt>
      <trkpt lat="43.32155" lon="1.76226">
        <ele>226.2</ele>
        <time>2022-06-19T07:35:11Z</time>
      </trkpt>
      <trkpt lat="43.32154" lon="1.76228">
        <ele>226.2</ele>
        <time>2022-06-19T07:35:12Z</time>
      </trkpt>
      <trkpt lat="43.32144" lon="1.76245">
        <ele>227.2</ele>
        <time>2022-06-19T07:35:18Z</time>
      </trkpt>
      <trkpt lat="43.32138" lon="1.76255">
        <ele>227.8</ele>
        <time>2022-06-19T07:35:22Z</time>
      </trkpt>
      <trkpt lat="43.32134" lon="1.76262">
        <ele>228.2</ele>
        <time>2022-06-19T07:35:25Z</time>
      </trkpt>
      <trkpt lat="43.32125" lon="1.76276">
        <ele>229</ele>
        <time>2022-06-19T07:35:31Z</time>
      </trkpt>
      <trkpt lat="43.3212" lon="1.76282">
        <ele>229.6</ele>
        <time>2022-06-19T07:35:34Z</time>
      </trkpt>
      <trkpt lat="43.32111" lon="1.76297">
        <ele>230.6</ele>
        <time>2022-06-19T07:35:40Z</time>
      </trkpt>
      <trkpt lat="43.32109" lon="1.763">
        <ele>230.8</ele>
        <time>2022-06-19T07:35:41Z</time>
      </trkpt>
      <trkpt lat="43.32096" lon="1.7632">
        <ele>231.8</ele>
        <time>2022-06-19T07:35:49Z</time>
      </trkpt>
      <trkpt lat="43.32079" lon="1.76349">
        <ele>232.8</ele>
        <time>2022-06-19T07:36:00Z</time>
      </trkpt>
      <trkpt lat="43.32078" lon="1.76352">
        <ele>232.8</ele>
        <time>2022-06-19T07:36:01Z</time>
      </trkpt>
      <trkpt lat="43.32067" lon="1.76373">
        <ele>234</ele>
        <time>2022-06-19T07:36:08Z</time>
      </trkpt>
      <trkpt lat="43.32066" lon="1.76376">
        <ele>234.4</ele>
        <time>2022-06-19T07:36:09Z</time>
      </trkpt>
      <trkpt lat="43.32062" lon="1.76386">
        <ele>235</ele>
        <time>2022-06-19T07:36:12Z</time>
      </trkpt>
      <trkpt lat="43.32054" lon="1.76405">
        <ele>236</ele>
        <time>2022-06-19T07:36:18Z</time>
      </trkpt>
      <trkpt lat="43.32053" lon="1.76409">
        <ele>236.2</ele>
        <time>2022-06-19T07:36:19Z</time>
      </trkpt>
      <trkpt lat="43.32043" lon="1.76435">
        <ele>237.4</ele>
        <time>2022-06-19T07:36:26Z</time>
      </trkpt>
      <trkpt lat="43.32042" lon="1.76438">
        <ele>237.4</ele>
        <time>2022-06-19T07:36:27Z</time>
      </trkpt>
      <trkpt lat="43.32029" lon="1.76471">
        <ele>238.4</ele>
        <time>2022-06-19T07:36:35Z</time>
      </trkpt>
      <trkpt lat="43.32024" lon="1.76484">
        <ele>238.8</ele>
        <time>2022-06-19T07:36:38Z</time>
      </trkpt>
      <trkpt lat="43.32007" lon="1.76525">
        <ele>239</ele>
        <time>2022-06-19T07:36:47Z</time>
      </trkpt>
      <trkpt lat="43.3199" lon="1.76562">
        <ele>239.2</ele>
        <time>2022-06-19T07:36:55Z</time>
      </trkpt>
      <trkpt lat="43.31976" lon="1.76606">
        <ele>238.8</ele>
        <time>2022-06-19T07:37:03Z</time>
      </trkpt>
      <trkpt lat="43.31965" lon="1.76634">
        <ele>238.2</ele>
        <time>2022-06-19T07:37:08Z</time>
      </trkpt>
      <trkpt lat="43.31953" lon="1.76655">
        <ele>238</ele>
        <time>2022-06-19T07:37:12Z</time>
      </trkpt>
      <trkpt lat="43.31941" lon="1.76675">
        <ele>237.4</ele>
        <time>2022-06-19T07:37:16Z</time>
      </trkpt>
      <trkpt lat="43.31926" lon="1.76698">
        <ele>236.8</ele>
        <time>2022-06-19T07:37:21Z</time>
      </trkpt>
      <trkpt lat="43.31913" lon="1.76716">
        <ele>236.4</ele>
        <time>2022-06-19T07:37:25Z</time>
      </trkpt>
      <trkpt lat="43.31894" lon="1.7674">
        <ele>235.2</ele>
        <time>2022-06-19T07:37:30Z</time>
      </trkpt>
      <trkpt lat="43.31887" lon="1.7675">
        <ele>235</ele>
        <time>2022-06-19T07:37:32Z</time>
      </trkpt>
      <trkpt lat="43.31868" lon="1.76776">
        <ele>234.2</ele>
        <time>2022-06-19T07:37:37Z</time>
      </trkpt>
      <trkpt lat="43.31855" lon="1.76796">
        <ele>234</ele>
        <time>2022-06-19T07:37:40Z</time>
      </trkpt>
      <trkpt lat="43.31835" lon="1.76832">
        <ele>233.4</ele>
        <time>2022-06-19T07:37:45Z</time>
      </trkpt>
      <trkpt lat="43.31831" lon="1.76839">
        <ele>233.2</ele>
        <time>2022-06-19T07:37:46Z</time>
      </trkpt>
      <trkpt lat="43.31821" lon="1.76857">
        <ele>232.4</ele>
        <time>2022-06-19T07:37:49Z</time>
      </trkpt>
      <trkpt lat="43.31816" lon="1.76868">
        <ele>231.8</ele>
        <time>2022-06-19T07:37:51Z</time>
      </trkpt>
      <trkpt lat="43.31813" lon="1.76874">
        <ele>231.6</ele>
        <time>2022-06-19T07:37:52Z</time>
      </trkpt>
      <trkpt lat="43.31808" lon="1.76891">
        <ele>230.6</ele>
        <time>2022-06-19T07:37:55Z</time>
      </trkpt>
      <trkpt lat="43.31807" lon="1.76903">
        <ele>230</ele>
        <time>2022-06-19T07:37:57Z</time>
      </trkpt>
      <trkpt lat="43.31807" lon="1.76909">
        <ele>229.8</ele>
        <time>2022-06-19T07:37:58Z</time>
      </trkpt>
      <trkpt lat="43.31806" lon="1.76915">
        <ele>229.6</ele>
        <time>2022-06-19T07:37:59Z</time>
      </trkpt>
      <trkpt lat="43.31806" lon="1.76932">
        <ele>229</ele>
        <time>2022-06-19T07:38:02Z</time>
      </trkpt>
      <trkpt lat="43.31807" lon="1.76948">
        <ele>228.6</ele>
        <time>2022-06-19T07:38:05Z</time>
      </trkpt>
      <trkpt lat="43.31806" lon="1.76953">
        <ele>228.2</ele>
        <time>2022-06-19T07:38:06Z</time>
      </trkpt>
      <trkpt lat="43.31807" lon="1.77006">
        <ele>227.4</ele>
        <time>2022-06-19T07:38:16Z</time>
      </trkpt>
      <trkpt lat="43.31807" lon="1.77045">
        <ele>227.2</ele>
        <time>2022-06-19T07:38:23Z</time>
      </trkpt>
      <trkpt lat="43.31807" lon="1.77079">
        <ele>227.2</ele>
        <time>2022-06-19T07:38:29Z</time>
      </trkpt>
      <trkpt lat="43.31806" lon="1.7713">
        <ele>227.4</ele>
        <time>2022-06-19T07:38:38Z</time>
      </trkpt>
      <trkpt lat="43.31813" lon="1.77172">
        <ele>227.4</ele>
        <time>2022-06-19T07:38:46Z</time>
      </trkpt>
      <trkpt lat="43.31829" lon="1.77218">
        <ele>227.4</ele>
        <time>2022-06-19T07:38:55Z</time>
      </trkpt>
      <trkpt lat="43.31842" lon="1.77264">
        <ele>227.4</ele>
        <time>2022-06-19T07:39:04Z</time>
      </trkpt>
      <trkpt lat="43.31852" lon="1.77306">
        <ele>227.8</ele>
        <time>2022-06-19T07:39:12Z</time>
      </trkpt>
      <trkpt lat="43.31862" lon="1.77365">
        <ele>228.2</ele>
        <time>2022-06-19T07:39:23Z</time>
      </trkpt>
      <trkpt lat="43.31866" lon="1.77386">
        <ele>228.2</ele>
        <time>2022-06-19T07:39:27Z</time>
      </trkpt>
      <trkpt lat="43.31873" lon="1.77406">
        <ele>228.4</ele>
        <time>2022-06-19T07:39:31Z</time>
      </trkpt>
      <trkpt lat="43.31896" lon="1.77442">
        <ele>229</ele>
        <time>2022-06-19T07:39:40Z</time>
      </trkpt>
      <trkpt lat="43.31916" lon="1.7747">
        <ele>229.2</ele>
        <time>2022-06-19T07:39:47Z</time>
      </trkpt>
      <trkpt lat="43.31919" lon="1.77473">
        <ele>229.2</ele>
        <time>2022-06-19T07:39:48Z</time>
      </trkpt>
      <trkpt lat="43.31947" lon="1.7751">
        <ele>229.4</ele>
        <time>2022-06-19T07:39:58Z</time>
      </trkpt>
      <trkpt lat="43.31971" lon="1.77543">
        <ele>229.6</ele>
        <time>2022-06-19T07:40:07Z</time>
      </trkpt>
      <trkpt lat="43.31985" lon="1.77565">
        <ele>229.8</ele>
        <time>2022-06-19T07:40:14Z</time>
      </trkpt>
      <trkpt lat="43.32007" lon="1.77606">
        <ele>229.4</ele>
        <time>2022-06-19T07:40:24Z</time>
      </trkpt>
      <trkpt lat="43.32029" lon="1.77655">
        <ele>229.4</ele>
        <time>2022-06-19T07:40:35Z</time>
      </trkpt>
      <trkpt lat="43.32042" lon="1.77704">
        <ele>229.8</ele>
        <time>2022-06-19T07:40:45Z</time>
      </trkpt>
      <trkpt lat="43.32043" lon="1.77743">
        <ele>230.2</ele>
        <time>2022-06-19T07:40:52Z</time>
      </trkpt>
      <trkpt lat="43.32042" lon="1.77754">
        <ele>230.4</ele>
        <time>2022-06-19T07:40:54Z</time>
      </trkpt>
      <trkpt lat="43.32037" lon="1.77786">
        <ele>230.8</ele>
        <time>2022-06-19T07:41:00Z</time>
      </trkpt>
      <trkpt lat="43.32029" lon="1.77815">
        <ele>231.2</ele>
        <time>2022-06-19T07:41:06Z</time>
      </trkpt>
      <trkpt lat="43.32027" lon="1.7782">
        <ele>231.2</ele>
        <time>2022-06-19T07:41:07Z</time>
      </trkpt>
      <trkpt lat="43.32022" lon="1.77838">
        <ele>232.2</ele>
        <time>2022-06-19T07:41:11Z</time>
      </trkpt>
      <trkpt lat="43.32017" lon="1.77852">
        <ele>233.8</ele>
        <time>2022-06-19T07:41:14Z</time>
      </trkpt>
      <trkpt lat="43.32009" lon="1.7788">
        <ele>234.8</ele>
        <time>2022-06-19T07:41:20Z</time>
      </trkpt>
      <trkpt lat="43.32006" lon="1.7789">
        <ele>235</ele>
        <time>2022-06-19T07:41:22Z</time>
      </trkpt>
      <trkpt lat="43.31993" lon="1.77953">
        <ele>235.8</ele>
        <time>2022-06-19T07:41:35Z</time>
      </trkpt>
      <trkpt lat="43.31991" lon="1.77962">
        <ele>235.8</ele>
        <time>2022-06-19T07:41:37Z</time>
      </trkpt>
      <trkpt lat="43.31989" lon="1.77983">
        <ele>236.2</ele>
        <time>2022-06-19T07:41:41Z</time>
      </trkpt>
      <trkpt lat="43.31983" lon="1.78031">
        <ele>236.4</ele>
        <time>2022-06-19T07:41:50Z</time>
      </trkpt>
      <trkpt lat="43.31979" lon="1.78065">
        <ele>236.8</ele>
        <time>2022-06-19T07:41:56Z</time>
      </trkpt>
      <trkpt lat="43.31977" lon="1.78086">
        <ele>237</ele>
        <time>2022-06-19T07:42:00Z</time>
      </trkpt>
      <trkpt lat="43.31971" lon="1.78137">
        <ele>237.2</ele>
        <time>2022-06-19T07:42:09Z</time>
      </trkpt>
      <trkpt lat="43.31965" lon="1.78195">
        <ele>237.8</ele>
        <time>2022-06-19T07:42:20Z</time>
      </trkpt>
      <trkpt lat="43.31964" lon="1.78206">
        <ele>238</ele>
        <time>2022-06-19T07:42:22Z</time>
      </trkpt>
      <trkpt lat="43.3196" lon="1.78254">
        <ele>238.2</ele>
        <time>2022-06-19T07:42:31Z</time>
      </trkpt>
      <trkpt lat="43.31954" lon="1.78293">
        <ele>238.4</ele>
        <time>2022-06-19T07:42:39Z</time>
      </trkpt>
      <trkpt lat="43.31949" lon="1.7833">
        <ele>239</ele>
        <time>2022-06-19T07:42:47Z</time>
      </trkpt>
      <trkpt lat="43.31948" lon="1.7834">
        <ele>239.2</ele>
        <time>2022-06-19T07:42:49Z</time>
      </trkpt>
      <trkpt lat="43.31941" lon="1.78389">
        <ele>240</ele>
        <time>2022-06-19T07:42:59Z</time>
      </trkpt>
      <trkpt lat="43.31936" lon="1.78436">
        <ele>241</ele>
        <time>2022-06-19T07:43:08Z</time>
      </trkpt>
      <trkpt lat="43.31931" lon="1.7848">
        <ele>241.6</ele>
        <time>2022-06-19T07:43:17Z</time>
      </trkpt>
      <trkpt lat="43.31929" lon="1.78498">
        <ele>242.2</ele>
        <time>2022-06-19T07:43:21Z</time>
      </trkpt>
      <trkpt lat="43.31926" lon="1.78526">
        <ele>242.8</ele>
        <time>2022-06-19T07:43:27Z</time>
      </trkpt>
      <trkpt lat="43.31925" lon="1.78535">
        <ele>243.2</ele>
        <time>2022-06-19T07:43:29Z</time>
      </trkpt>
      <trkpt lat="43.31923" lon="1.78567">
        <ele>244.2</ele>
        <time>2022-06-19T07:43:36Z</time>
      </trkpt>
      <trkpt lat="43.31921" lon="1.78576">
        <ele>244.4</ele>
        <time>2022-06-19T07:43:38Z</time>
      </trkpt>
      <trkpt lat="43.31919" lon="1.78598">
        <ele>245.6</ele>
        <time>2022-06-19T07:43:43Z</time>
      </trkpt>
      <trkpt lat="43.31921" lon="1.78608">
        <ele>246.2</ele>
        <time>2022-06-19T07:43:46Z</time>
      </trkpt>
      <trkpt lat="43.31929" lon="1.78618">
        <ele>246.8</ele>
        <time>2022-06-19T07:43:50Z</time>
      </trkpt>
      <trkpt lat="43.31932" lon="1.78619">
        <ele>246.8</ele>
        <time>2022-06-19T07:43:51Z</time>
      </trkpt>
      <trkpt lat="43.31952" lon="1.78624">
        <ele>248</ele>
        <time>2022-06-19T07:43:57Z</time>
      </trkpt>
      <trkpt lat="43.31961" lon="1.78626">
        <ele>248.4</ele>
        <time>2022-06-19T07:44:00Z</time>
      </trkpt>
      <trkpt lat="43.31976" lon="1.78628">
        <ele>249</ele>
        <time>2022-06-19T07:44:06Z</time>
      </trkpt>
      <trkpt lat="43.31984" lon="1.7863">
        <ele>249.2</ele>
        <time>2022-06-19T07:44:09Z</time>
      </trkpt>
      <trkpt lat="43.32001" lon="1.78629">
        <ele>250</ele>
        <time>2022-06-19T07:44:16Z</time>
      </trkpt>
      <trkpt lat="43.32003" lon="1.78629">
        <ele>250</ele>
        <time>2022-06-19T07:44:17Z</time>
      </trkpt>
      <trkpt lat="43.32014" lon="1.78626">
        <ele>251</ele>
        <time>2022-06-19T07:44:22Z</time>
      </trkpt>
      <trkpt lat="43.32018" lon="1.78624">
        <ele>251.4</ele>
        <time>2022-06-19T07:44:24Z</time>
      </trkpt>
      <trkpt lat="43.32022" lon="1.78622">
        <ele>252.2</ele>
        <time>2022-06-19T07:44:26Z</time>
      </trkpt>
      <trkpt lat="43.32033" lon="1.78615">
        <ele>253.2</ele>
        <time>2022-06-19T07:44:31Z</time>
      </trkpt>
      <trkpt lat="43.32035" lon="1.78614">
        <ele>253.4</ele>
        <time>2022-06-19T07:44:32Z</time>
      </trkpt>
      <trkpt lat="43.32045" lon="1.78607">
        <ele>254.4</ele>
        <time>2022-06-19T07:44:37Z</time>
      </trkpt>
      <trkpt lat="43.32051" lon="1.78602">
        <ele>255</ele>
        <time>2022-06-19T07:44:40Z</time>
      </trkpt>
      <trkpt lat="43.32059" lon="1.78596">
        <ele>255.6</ele>
        <time>2022-06-19T07:44:44Z</time>
      </trkpt>
      <trkpt lat="43.32066" lon="1.78587">
        <ele>256.4</ele>
        <time>2022-06-19T07:44:48Z</time>
      </trkpt>
      <trkpt lat="43.32068" lon="1.78585">
        <ele>256.8</ele>
        <time>2022-06-19T07:44:49Z</time>
      </trkpt>
      <trkpt lat="43.32073" lon="1.78579">
        <ele>257.8</ele>
        <time>2022-06-19T07:44:52Z</time>
      </trkpt>
      <trkpt lat="43.32082" lon="1.78567">
        <ele>258.8</ele>
        <time>2022-06-19T07:44:57Z</time>
      </trkpt>
      <trkpt lat="43.32093" lon="1.78553">
        <ele>260</ele>
        <time>2022-06-19T07:45:03Z</time>
      </trkpt>
      <trkpt lat="43.32096" lon="1.78549">
        <ele>260.4</ele>
        <time>2022-06-19T07:45:05Z</time>
      </trkpt>
      <trkpt lat="43.32101" lon="1.78542">
        <ele>261</ele>
        <time>2022-06-19T07:45:08Z</time>
      </trkpt>
      <trkpt lat="43.32108" lon="1.78533">
        <ele>261.8</ele>
        <time>2022-06-19T07:45:12Z</time>
      </trkpt>
      <trkpt lat="43.32109" lon="1.78531">
        <ele>262.4</ele>
        <time>2022-06-19T07:45:13Z</time>
      </trkpt>
      <trkpt lat="43.32116" lon="1.78522">
        <ele>263</ele>
        <time>2022-06-19T07:45:17Z</time>
      </trkpt>
      <trkpt lat="43.32126" lon="1.78512">
        <ele>264</ele>
        <time>2022-06-19T07:45:22Z</time>
      </trkpt>
      <trkpt lat="43.32127" lon="1.7851">
        <ele>264.4</ele>
        <time>2022-06-19T07:45:23Z</time>
      </trkpt>
      <trkpt lat="43.32135" lon="1.78502">
        <ele>265</ele>
        <time>2022-06-19T07:45:27Z</time>
      </trkpt>
      <trkpt lat="43.32142" lon="1.78493">
        <ele>265.8</ele>
        <time>2022-06-19T07:45:31Z</time>
      </trkpt>
      <trkpt lat="43.32146" lon="1.78489">
        <ele>266.2</ele>
        <time>2022-06-19T07:45:33Z</time>
      </trkpt>
      <trkpt lat="43.32157" lon="1.78478">
        <ele>267.4</ele>
        <time>2022-06-19T07:45:39Z</time>
      </trkpt>
      <trkpt lat="43.32162" lon="1.78475">
        <ele>267.8</ele>
        <time>2022-06-19T07:45:41Z</time>
      </trkpt>
      <trkpt lat="43.3217" lon="1.78467">
        <ele>268.4</ele>
        <time>2022-06-19T07:45:45Z</time>
      </trkpt>
      <trkpt lat="43.32177" lon="1.78461">
        <ele>269.4</ele>
        <time>2022-06-19T07:45:49Z</time>
      </trkpt>
      <trkpt lat="43.32179" lon="1.78459">
        <ele>269.4</ele>
        <time>2022-06-19T07:45:50Z</time>
      </trkpt>
      <trkpt lat="43.32192" lon="1.78449">
        <ele>270.6</ele>
        <time>2022-06-19T07:45:56Z</time>
      </trkpt>
      <trkpt lat="43.32196" lon="1.78446">
        <ele>270.8</ele>
        <time>2022-06-19T07:45:58Z</time>
      </trkpt>
      <trkpt lat="43.32217" lon="1.78435">
        <ele>271.8</ele>
        <time>2022-06-19T07:46:07Z</time>
      </trkpt>
      <trkpt lat="43.32219" lon="1.78434">
        <ele>271.8</ele>
        <time>2022-06-19T07:46:08Z</time>
      </trkpt>
      <trkpt lat="43.32245" lon="1.78422">
        <ele>272.8</ele>
        <time>2022-06-19T07:46:18Z</time>
      </trkpt>
      <trkpt lat="43.32247" lon="1.78421">
        <ele>272.8</ele>
        <time>2022-06-19T07:46:19Z</time>
      </trkpt>
      <trkpt lat="43.32257" lon="1.78418">
        <ele>273.8</ele>
        <time>2022-06-19T07:46:24Z</time>
      </trkpt>
      <trkpt lat="43.32264" lon="1.78417">
        <ele>274.2</ele>
        <time>2022-06-19T07:46:28Z</time>
      </trkpt>
      <trkpt lat="43.32269" lon="1.78416">
        <ele>274.8</ele>
        <time>2022-06-19T07:46:33Z</time>
      </trkpt>
      <trkpt lat="43.32272" lon="1.78416">
        <ele>277.8</ele>
        <time>2022-06-19T07:47:06Z</time>
      </trkpt>
      <trkpt lat="43.3228" lon="1.78414">
        <ele>277.8</ele>
        <time>2022-06-19T07:47:09Z</time>
      </trkpt>
      <trkpt lat="43.32304" lon="1.78411">
        <ele>278</ele>
        <time>2022-06-19T07:47:16Z</time>
      </trkpt>
      <trkpt lat="43.3233" lon="1.78411">
        <ele>278</ele>
        <time>2022-06-19T07:47:23Z</time>
      </trkpt>
      <trkpt lat="43.32366" lon="1.78417">
        <ele>277.8</ele>
        <time>2022-06-19T07:47:31Z</time>
      </trkpt>
      <trkpt lat="43.32397" lon="1.78427">
        <ele>277.4</ele>
        <time>2022-06-19T07:47:37Z</time>
      </trkpt>
      <trkpt lat="43.32411" lon="1.78435">
        <ele>277</ele>
        <time>2022-06-19T07:47:40Z</time>
      </trkpt>
      <trkpt lat="43.32415" lon="1.78443">
        <ele>277</ele>
        <time>2022-06-19T07:47:42Z</time>
      </trkpt>
      <trkpt lat="43.32409" lon="1.78451">
        <ele>276.6</ele>
        <time>2022-06-19T07:47:45Z</time>
      </trkpt>
      <trkpt lat="43.32407" lon="1.78451">
        <ele>276.4</ele>
        <time>2022-06-19T07:47:47Z</time>
      </trkpt>
      <trkpt lat="43.32407" lon="1.78451">
        <ele>276.4</ele>
        <time>2022-06-19T07:47:48Z</time>
      </trkpt>
      <trkpt lat="43.32403" lon="1.78452">
        <ele>275.8</ele>
        <time>2022-06-19T07:47:55Z</time>
      </trkpt>
      <trkpt lat="43.32398" lon="1.78454">
        <ele>275.6</ele>
        <time>2022-06-19T07:47:58Z</time>
      </trkpt>
      <trkpt lat="43.32394" lon="1.78456">
        <ele>275.4</ele>
        <time>2022-06-19T07:48:00Z</time>
      </trkpt>
      <trkpt lat="43.32385" lon="1.78457">
        <ele>275.4</ele>
        <time>2022-06-19T07:48:04Z</time>
      </trkpt>
      <trkpt lat="43.32367" lon="1.78463">
        <ele>275.8</ele>
        <time>2022-06-19T07:48:12Z</time>
      </trkpt>
      <trkpt lat="43.32359" lon="1.78466">
        <ele>276.6</ele>
        <time>2022-06-19T07:48:16Z</time>
      </trkpt>
      <trkpt lat="43.32355" lon="1.78468">
        <ele>277</ele>
        <time>2022-06-19T07:48:18Z</time>
      </trkpt>
      <trkpt lat="43.32346" lon="1.78473">
        <ele>277.8</ele>
        <time>2022-06-19T07:48:23Z</time>
      </trkpt>
      <trkpt lat="43.32339" lon="1.78479">
        <ele>278.6</ele>
        <time>2022-06-19T07:48:27Z</time>
      </trkpt>
      <trkpt lat="43.32335" lon="1.78483">
        <ele>279</ele>
        <time>2022-06-19T07:48:29Z</time>
      </trkpt>
      <trkpt lat="43.32325" lon="1.78501">
        <ele>280</ele>
        <time>2022-06-19T07:48:35Z</time>
      </trkpt>
      <trkpt lat="43.32316" lon="1.78517">
        <ele>281.2</ele>
        <time>2022-06-19T07:48:40Z</time>
      </trkpt>
      <trkpt lat="43.3231" lon="1.78528">
        <ele>281.6</ele>
        <time>2022-06-19T07:48:43Z</time>
      </trkpt>
      <trkpt lat="43.32304" lon="1.78539">
        <ele>282.2</ele>
        <time>2022-06-19T07:48:46Z</time>
      </trkpt>
      <trkpt lat="43.32293" lon="1.78557">
        <ele>282.6</ele>
        <time>2022-06-19T07:48:51Z</time>
      </trkpt>
      <trkpt lat="43.32269" lon="1.78598">
        <ele>283.2</ele>
        <time>2022-06-19T07:49:01Z</time>
      </trkpt>
      <trkpt lat="43.32265" lon="1.78607">
        <ele>283.2</ele>
        <time>2022-06-19T07:49:03Z</time>
      </trkpt>
      <trkpt lat="43.32248" lon="1.78639">
        <ele>283.8</ele>
        <time>2022-06-19T07:49:11Z</time>
      </trkpt>
      <trkpt lat="43.32237" lon="1.78662">
        <ele>284.2</ele>
        <time>2022-06-19T07:49:17Z</time>
      </trkpt>
      <trkpt lat="43.32233" lon="1.78669">
        <ele>284.4</ele>
        <time>2022-06-19T07:49:19Z</time>
      </trkpt>
      <trkpt lat="43.32217" lon="1.78705">
        <ele>285.2</ele>
        <time>2022-06-19T07:49:29Z</time>
      </trkpt>
      <trkpt lat="43.32216" lon="1.78709">
        <ele>285.4</ele>
        <time>2022-06-19T07:49:30Z</time>
      </trkpt>
      <trkpt lat="43.32207" lon="1.78732">
        <ele>286.2</ele>
        <time>2022-06-19T07:49:37Z</time>
      </trkpt>
      <trkpt lat="43.32205" lon="1.78741">
        <ele>286.4</ele>
        <time>2022-06-19T07:49:40Z</time>
      </trkpt>
      <trkpt lat="43.322" lon="1.78757">
        <ele>286.8</ele>
        <time>2022-06-19T07:49:44Z</time>
      </trkpt>
      <trkpt lat="43.3219" lon="1.78793">
        <ele>287.2</ele>
        <time>2022-06-19T07:49:51Z</time>
      </trkpt>
      <trkpt lat="43.32189" lon="1.78827">
        <ele>287</ele>
        <time>2022-06-19T07:49:55Z</time>
      </trkpt>
      <trkpt lat="43.32188" lon="1.78838">
        <ele>286.8</ele>
        <time>2022-06-19T07:49:56Z</time>
      </trkpt>
      <trkpt lat="43.32184" lon="1.78876">
        <ele>286.6</ele>
        <time>2022-06-19T07:49:59Z</time>
      </trkpt>
      <trkpt lat="43.32183" lon="1.78943">
        <ele>285.2</ele>
        <time>2022-06-19T07:50:04Z</time>
      </trkpt>
      <trkpt lat="43.32197" lon="1.78991">
        <ele>284.2</ele>
        <time>2022-06-19T07:50:08Z</time>
      </trkpt>
      <trkpt lat="43.32214" lon="1.79031">
        <ele>283</ele>
        <time>2022-06-19T07:50:12Z</time>
      </trkpt>
      <trkpt lat="43.32217" lon="1.79041">
        <ele>282.8</ele>
        <time>2022-06-19T07:50:13Z</time>
      </trkpt>
      <trkpt lat="43.32224" lon="1.79071">
        <ele>282.4</ele>
        <time>2022-06-19T07:50:16Z</time>
      </trkpt>
      <trkpt lat="43.32224" lon="1.79095">
        <ele>282.2</ele>
        <time>2022-06-19T07:50:18Z</time>
      </trkpt>
      <trkpt lat="43.32224" lon="1.79106">
        <ele>281.8</ele>
        <time>2022-06-19T07:50:19Z</time>
      </trkpt>
      <trkpt lat="43.3223" lon="1.79125">
        <ele>280.8</ele>
        <time>2022-06-19T07:50:21Z</time>
      </trkpt>
      <trkpt lat="43.32236" lon="1.79133">
        <ele>280.2</ele>
        <time>2022-06-19T07:50:22Z</time>
      </trkpt>
      <trkpt lat="43.32251" lon="1.79148">
        <ele>279.4</ele>
        <time>2022-06-19T07:50:24Z</time>
      </trkpt>
      <trkpt lat="43.32258" lon="1.79155">
        <ele>279</ele>
        <time>2022-06-19T07:50:25Z</time>
      </trkpt>
      <trkpt lat="43.32274" lon="1.79169">
        <ele>277.6</ele>
        <time>2022-06-19T07:50:27Z</time>
      </trkpt>
      <trkpt lat="43.32282" lon="1.79174">
        <ele>277.4</ele>
        <time>2022-06-19T07:50:28Z</time>
      </trkpt>
      <trkpt lat="43.32289" lon="1.79178">
        <ele>276.8</ele>
        <time>2022-06-19T07:50:29Z</time>
      </trkpt>
      <trkpt lat="43.32298" lon="1.79179">
        <ele>276.4</ele>
        <time>2022-06-19T07:50:30Z</time>
      </trkpt>
      <trkpt lat="43.32305" lon="1.79177">
        <ele>275.6</ele>
        <time>2022-06-19T07:50:31Z</time>
      </trkpt>
      <trkpt lat="43.32312" lon="1.79174">
        <ele>275.4</ele>
        <time>2022-06-19T07:50:32Z</time>
      </trkpt>
      <trkpt lat="43.32324" lon="1.7916">
        <ele>274</ele>
        <time>2022-06-19T07:50:34Z</time>
      </trkpt>
      <trkpt lat="43.32329" lon="1.79153">
        <ele>273.8</ele>
        <time>2022-06-19T07:50:35Z</time>
      </trkpt>
      <trkpt lat="43.32344" lon="1.79132">
        <ele>272.4</ele>
        <time>2022-06-19T07:50:38Z</time>
      </trkpt>
      <trkpt lat="43.32352" lon="1.7912">
        <ele>271.2</ele>
        <time>2022-06-19T07:50:40Z</time>
      </trkpt>
      <trkpt lat="43.32357" lon="1.79106">
        <ele>270</ele>
        <time>2022-06-19T07:50:42Z</time>
      </trkpt>
      <trkpt lat="43.32362" lon="1.79094">
        <ele>268.8</ele>
        <time>2022-06-19T07:50:44Z</time>
      </trkpt>
      <trkpt lat="43.32364" lon="1.79088">
        <ele>267.8</ele>
        <time>2022-06-19T07:50:45Z</time>
      </trkpt>
      <trkpt lat="43.32373" lon="1.79077">
        <ele>266.2</ele>
        <time>2022-06-19T07:50:48Z</time>
      </trkpt>
      <trkpt lat="43.32376" lon="1.79075">
        <ele>266</ele>
        <time>2022-06-19T07:50:49Z</time>
      </trkpt>
      <trkpt lat="43.32381" lon="1.79076">
        <ele>265</ele>
        <time>2022-06-19T07:50:51Z</time>
      </trkpt>
      <trkpt lat="43.32387" lon="1.79076">
        <ele>263.6</ele>
        <time>2022-06-19T07:50:53Z</time>
      </trkpt>
      <trkpt lat="43.32389" lon="1.79076">
        <ele>263.4</ele>
        <time>2022-06-19T07:50:54Z</time>
      </trkpt>
      <trkpt lat="43.32396" lon="1.79077">
        <ele>262.4</ele>
        <time>2022-06-19T07:50:56Z</time>
      </trkpt>
      <trkpt lat="43.32405" lon="1.79085">
        <ele>261.2</ele>
        <time>2022-06-19T07:50:59Z</time>
      </trkpt>
      <trkpt lat="43.32414" lon="1.79094">
        <ele>260</ele>
        <time>2022-06-19T07:51:03Z</time>
      </trkpt>
      <trkpt lat="43.32418" lon="1.79099">
        <ele>259.8</ele>
        <time>2022-06-19T07:51:05Z</time>
      </trkpt>
      <trkpt lat="43.32422" lon="1.79104">
        <ele>259.2</ele>
        <time>2022-06-19T07:51:09Z</time>
      </trkpt>
      <trkpt lat="43.32422" lon="1.79104">
        <ele>259</ele>
        <time>2022-06-19T07:51:10Z</time>
      </trkpt>
      <trkpt lat="43.32408" lon="1.79129">
        <ele>242.6</ele>
        <time>2022-06-19T08:26:26Z</time>
      </trkpt>
      <trkpt lat="43.32417" lon="1.79122">
        <ele>242</ele>
        <time>2022-06-19T08:26:27Z</time>
      </trkpt>
    </trkseg>
  </trk>
</gpx>